[[{"header":{"parameterUnit":"m.s-1","parameterCategory":1,"la1":30.6,"la2":29.2853,"lo1":-89.7004,"lo2":-87.6739,"dy":0.0162,"dx":0.0183,"nx":112,"ny":82,"refTime":"2024-09-27T06:00:00:Z","depth":0,"parameterNumber":2,"parameterNumberName":"U-component_of_WINDS"},"data":[0.0,0.0,0.0,0.0,0.0,0.0,0.0,0.0,0.0,0.0,0.0,0.0,0.0,0.0,0.0,0.0,0.0,0.0,0.0,0.0,0.0,0.0,0.0,0.0,0.0,0.0,0.0,0.0,0.0,0.0,0.0,0.0,0.0,0.0,0.0,0.0,0.0,0.0,0.0,0.0,0.0,0.0,0.0,0.0,0.0,0.0,0.0,0.0,0.0,0.0,0.0,0.0,0.0,0.0,0.0,0.0,0.0,0.0,0.0,0.0,0.0,0.0,0.0,0.0,0.0,0.0,0.0,0.0,0.0,0.0,0.0,0.0,0.0,0.0,0.0,0.0,0.0,0.0,0.0,0.0,0.0,0.0,0.0,0.0,0.0,0.0,0.0,0.0,0.0,0.0,-2.6171,-2.774,-2.8697,-2.8875,-2.8106,-2.7012,-2.581,-2.4338,0.0,0.0,0.0,0.0,0.0,0.0,0.0,0.0,0.0,0.0,0.0,0.0,0.0,0.0,0.0,0.0,0.0,0.0,0.0,0.0,0.0,0.0,0.0,0.0,0.0,0.0,0.0,0.0,0.0,0.0,0.0,0.0,0.0,0.0,0.0,0.0,0.0,0.0,0.0,0.0,0.0,0.0,0.0,0.0,0.0,0.0,0.0,0.0,0.0,0.0,0.0,0.0,0.0,0.0,0.0,0.0,0.0,0.0,0.0,0.0,0.0,0.0,0.0,0.0,0.0,0.0,0.0,0.0,0.0,0.0,0.0,0.0,0.0,0.0,0.0,0.0,0.0,0.0,0.0,0.0,0.0,0.0,0.0,0.0,0.0,0.0,0.0,0.0,0.0,0.0,0.0,0.0,0.0,0.0,0.0,0.0,0.0,0.0,0.0,0.0,0.0,0.0,0.0,0.0,-2.4496,-2.6837,-2.7855,-2.8076,-2.7321,-2.651,-2.5371,-2.3678,0.0,0.0,0.0,0.0,0.0,0.0,0.0,0.0,0.0,0.0,0.0,0.0,0.0,0.0,0.0,0.0,0.0,0.0,0.0,0.0,0.0,0.0,0.0,0.0,0.0,0.0,0.0,0.0,0.0,0.0,0.0,0.0,0.0,0.0,0.0,0.0,0.0,0.0,0.0,0.0,0.0,0.0,0.0,0.0,0.0,0.0,0.0,0.0,0.0,0.0,0.0,0.0,0.0,0.0,0.0,0.0,0.0,0.0,0.0,0.0,0.0,0.0,0.0,0.0,0.0,0.0,0.0,0.0,0.0,0.0,0.0,0.0,0.0,0.0,0.0,0.0,0.0,0.0,0.0,0.0,0.0,0.0,0.0,0.0,0.0,0.0,0.0,0.0,0.0,0.0,0.0,0.0,0.0,0.0,0.0,0.0,0.0,0.0,0.0,0.0,0.0,0.0,0.0,-2.5071,-2.5949,-2.7721,-2.8087,-2.8024,-2.7509,-2.6573,-2.5381,-2.3886,-2.2667,0.0,0.0,0.0,0.0,0.0,0.0,0.0,0.0,0.0,0.0,0.0,0.0,0.0,0.0,0.0,0.0,0.0,0.0,0.0,0.0,0.0,0.0,0.0,0.0,0.0,0.0,0.0,0.0,0.0,0.0,0.0,0.0,0.0,0.0,0.0,0.0,0.0,0.0,0.0,0.0,0.0,0.0,0.0,0.0,0.0,0.0,0.0,0.0,0.0,0.0,0.0,0.0,0.0,0.0,0.0,0.0,0.0,0.0,0.0,0.0,0.0,0.0,0.0,0.0,0.0,0.0,0.0,0.0,0.0,0.0,0.0,0.0,0.0,0.0,0.0,0.0,0.0,0.0,0.0,0.0,0.0,0.0,0.0,0.0,0.0,0.0,0.0,0.0,0.0,0.0,0.0,0.0,0.0,0.0,0.0,0.0,0.0,0.0,0.0,0.0,0.0,0.0,-2.701,-2.7779,-2.8636,-2.8334,-2.794,-2.7575,-2.6442,-2.524,-2.3974,-2.2156,0.0,0.0,0.0,0.0,0.0,0.0,0.0,0.0,0.0,0.0,0.0,0.0,0.0,0.0,0.0,0.0,0.0,0.0,0.0,0.0,0.0,0.0,0.0,0.0,0.0,0.0,0.0,0.0,0.0,0.0,0.0,0.0,0.0,0.0,0.0,0.0,0.0,0.0,0.0,0.0,0.0,0.0,0.0,0.0,0.0,0.0,0.0,0.0,0.0,0.0,0.0,0.0,0.0,0.0,0.0,0.0,0.0,0.0,0.0,0.0,0.0,0.0,0.0,0.0,0.0,0.0,0.0,0.0,0.0,0.0,0.0,0.0,0.0,0.0,0.0,0.0,0.0,0.0,0.0,0.0,0.0,0.0,0.0,0.0,0.0,0.0,0.0,0.0,0.0,0.0,0.0,0.0,0.0,0.0,0.0,0.0,0.0,0.0,0.0,0.0,0.0,0.0,-2.731,-2.8634,-2.8599,-2.8147,-2.7524,-2.6841,-2.5754,-2.4529,-2.3344,-2.1156,0.0,0.0,0.0,0.0,0.0,0.0,0.0,0.0,0.0,0.0,0.0,0.0,0.0,0.0,0.0,0.0,0.0,0.0,0.0,0.0,0.0,0.0,0.0,0.0,0.0,0.0,0.0,0.0,0.0,0.0,0.0,0.0,0.0,0.0,0.0,0.0,0.0,0.0,0.0,0.0,0.0,0.0,0.0,0.0,0.0,0.0,0.0,0.0,0.0,0.0,0.0,0.0,0.0,0.0,0.0,0.0,0.0,0.0,0.0,0.0,0.0,0.0,0.0,0.0,0.0,0.0,0.0,0.0,0.0,0.0,0.0,0.0,0.0,0.0,0.0,0.0,0.0,0.0,0.0,0.0,0.0,0.0,0.0,0.0,0.0,0.0,0.0,0.0,0.0,0.0,0.0,0.0,0.0,0.0,0.0,0.0,0.0,0.0,0.0,0.0,0.0,0.0,-2.6563,-2.7827,-2.8525,-2.8096,-2.736,-2.6272,-2.5431,-2.4166,-2.2264,0.0,0.0,0.0,0.0,0.0,0.0,0.0,0.0,0.0,0.0,0.0,0.0,0.0,0.0,0.0,0.0,0.0,0.0,0.0,0.0,0.0,0.0,0.0,0.0,0.0,0.0,0.0,0.0,0.0,0.0,0.0,0.0,0.0,0.0,0.0,0.0,0.0,0.0,0.0,0.0,0.0,0.0,0.0,0.0,0.0,0.0,0.0,0.0,0.0,0.0,0.0,0.0,0.0,0.0,0.0,0.0,0.0,0.0,0.0,0.0,0.0,0.0,0.0,0.0,0.0,0.0,0.0,0.0,0.0,0.0,0.0,0.0,0.0,0.0,0.0,0.0,0.0,0.0,0.0,0.0,0.0,0.0,0.0,0.0,0.0,0.0,0.0,0.0,0.0,0.0,0.0,0.0,0.0,0.0,0.0,0.0,0.0,0.0,0.0,0.0,0.0,0.0,-2.4869,-2.628,-2.7398,-2.8201,-2.7631,-2.6781,-2.5705,-2.4727,-2.34,-2.1595,0.0,0.0,0.0,0.0,0.0,0.0,0.0,0.0,0.0,0.0,0.0,0.0,0.0,0.0,0.0,0.0,0.0,0.0,0.0,0.0,0.0,0.0,0.0,0.0,0.0,0.0,0.0,0.0,0.0,0.0,0.0,0.0,0.0,0.0,0.0,0.0,0.0,0.0,0.0,0.0,0.0,0.0,0.0,0.0,0.0,0.0,0.0,0.0,0.0,0.0,0.0,0.0,0.0,0.0,0.0,0.0,0.0,0.0,0.0,0.0,0.0,0.0,0.0,0.0,0.0,0.0,0.0,0.0,0.0,0.0,0.0,0.0,0.0,0.0,0.0,0.0,0.0,0.0,0.0,0.0,0.0,0.0,0.0,0.0,0.0,0.0,0.0,0.0,0.0,0.0,0.0,0.0,0.0,0.0,0.0,0.0,0.0,0.0,0.0,0.0,0.0,0.0,-2.5029,-2.6654,-2.7665,-2.7665,-2.6585,-2.5662,-2.5029,-2.3395,-2.2133,0.0,0.0,0.0,0.0,0.0,0.0,0.0,0.0,0.0,0.0,0.0,0.0,0.0,0.0,0.0,0.0,0.0,0.0,0.0,0.0,0.0,0.0,0.0,0.0,0.0,0.0,0.0,0.0,0.0,0.0,0.0,0.0,0.0,0.0,0.0,0.0,0.0,0.0,0.0,0.0,0.0,0.0,0.0,0.0,0.0,0.0,0.0,0.0,0.0,0.0,0.0,0.0,0.0,0.0,0.0,0.0,0.0,0.0,0.0,0.0,0.0,0.0,0.0,0.0,0.0,0.0,0.0,0.0,0.0,0.0,0.0,0.0,0.0,0.0,0.0,0.0,0.0,0.0,0.0,0.0,0.0,0.0,0.0,0.0,0.0,0.0,0.0,0.0,0.0,0.0,0.0,0.0,0.0,0.0,0.0,0.0,0.0,0.0,0.0,0.0,0.0,0.0,0.0,-2.3768,-2.5037,-2.598,-2.646,-2.5374,-2.4402,-2.3771,-2.293,-2.1632,-1.9767,0.0,0.0,0.0,0.0,0.0,0.0,0.0,0.0,0.0,0.0,0.0,0.0,0.0,0.0,0.0,0.0,0.0,0.0,0.0,0.0,0.0,0.0,0.0,0.0,0.0,0.0,0.0,0.0,0.0,0.0,0.0,0.0,0.0,0.0,0.0,0.0,0.0,0.0,0.0,0.0,0.0,0.0,0.0,0.0,0.0,0.0,0.0,0.0,0.0,0.0,0.0,0.0,0.0,0.0,0.0,0.0,0.0,0.0,0.0,0.0,0.0,0.0,0.0,0.0,0.0,0.0,0.0,0.0,0.0,0.0,0.0,0.0,0.0,0.0,0.0,0.0,0.0,0.0,0.0,0.0,0.0,0.0,0.0,0.0,0.0,0.0,0.0,0.0,0.0,0.0,0.0,0.0,0.0,0.0,0.0,0.0,0.0,0.0,0.0,0.0,0.0,0.0,-2.2828,-2.3933,-2.4696,-2.4855,-2.4198,-2.3413,-2.2575,-2.2038,-2.1006,-1.9342,0.0,0.0,0.0,0.0,0.0,0.0,0.0,0.0,0.0,0.0,0.0,0.0,0.0,0.0,0.0,0.0,0.0,0.0,0.0,0.0,0.0,0.0,0.0,0.0,0.0,0.0,0.0,0.0,0.0,0.0,0.0,0.0,0.0,0.0,0.0,0.0,0.0,0.0,0.0,0.0,0.0,0.0,0.0,0.0,0.0,0.0,0.0,0.0,0.0,0.0,0.0,0.0,0.0,0.0,0.0,0.0,0.0,0.0,0.0,0.0,0.0,0.0,0.0,0.0,0.0,0.0,0.0,0.0,0.0,0.0,0.0,0.0,0.0,0.0,0.0,0.0,0.0,0.0,0.0,0.0,0.0,0.0,0.0,0.0,0.0,0.0,0.0,0.0,0.0,0.0,0.0,0.0,0.0,0.0,0.0,0.0,0.0,0.0,0.0,0.0,0.0,0.0,-2.2038,-2.3214,-2.3635,-2.3119,-2.2956,-2.2533,-2.159,-2.0989,-2.0388,-1.9712,0.0,0.0,0.0,0.0,0.0,0.0,0.0,0.0,0.0,0.0,0.0,0.0,0.0,0.0,0.0,0.0,0.0,0.0,0.0,0.0,0.0,0.0,0.0,0.0,0.0,0.0,0.0,0.0,0.0,0.0,0.0,0.0,0.0,0.0,0.0,0.0,0.0,0.0,0.0,0.0,0.0,0.0,0.0,0.0,0.0,0.0,0.0,0.0,0.0,0.0,0.0,0.0,0.0,0.0,0.0,0.0,0.0,0.0,0.0,0.0,-2.1623,0.0,0.0,0.0,0.0,0.0,0.0,0.0,0.0,0.0,0.0,0.0,0.0,0.0,0.0,0.0,0.0,0.0,0.0,0.0,0.0,0.0,0.0,0.0,0.0,0.0,0.0,0.0,0.0,0.0,0.0,0.0,0.0,0.0,0.0,0.0,0.0,0.0,0.0,0.0,0.0,0.0,-2.1059,-2.164,-2.2036,-2.1904,-2.1073,-2.0799,-2.1433,-2.0989,-2.0057,-1.8643,-1.857,0.0,0.0,0.0,0.0,0.0,0.0,0.0,0.0,0.0,0.0,0.0,0.0,0.0,0.0,0.0,0.0,0.0,0.0,0.0,0.0,0.0,0.0,0.0,0.0,0.0,0.0,0.0,0.0,0.0,0.0,0.0,0.0,0.0,0.0,0.0,0.0,0.0,0.0,0.0,0.0,0.0,0.0,0.0,0.0,0.0,0.0,0.0,0.0,0.0,0.0,0.0,0.0,0.0,0.0,0.0,0.0,0.0,0.0,0.0,0.0,-2.2785,0.0,0.0,0.0,0.0,0.0,0.0,0.0,0.0,0.0,0.0,0.0,0.0,0.0,0.0,0.0,0.0,0.0,0.0,0.0,0.0,0.0,0.0,0.0,0.0,0.0,0.0,0.0,0.0,0.0,0.0,0.0,0.0,0.0,0.0,0.0,0.0,0.0,0.0,0.0,0.0,-2.0712,-2.0961,-2.0989,-2.0714,-2.0152,-1.9833,-1.9935,-1.9872,-1.9242,-1.787,-1.7677,0.0,0.0,0.0,0.0,0.0,0.0,0.0,0.0,0.0,0.0,0.0,0.0,0.0,0.0,0.0,0.0,0.0,0.0,0.0,0.0,0.0,0.0,0.0,0.0,0.0,0.0,0.0,0.0,0.0,0.0,0.0,0.0,0.0,0.0,0.0,0.0,0.0,0.0,0.0,0.0,0.0,0.0,0.0,0.0,0.0,0.0,0.0,0.0,0.0,0.0,0.0,0.0,0.0,-2.3595,-2.3716,-2.4259,-2.3717,-2.3757,-2.4272,-2.4381,-2.4269,-2.4006,-2.3622,0.0,0.0,0.0,0.0,0.0,0.0,0.0,0.0,0.0,0.0,0.0,0.0,0.0,0.0,0.0,0.0,0.0,0.0,0.0,0.0,0.0,0.0,0.0,0.0,-2.0577,-2.049,-1.884,0.0,0.0,0.0,0.0,0.0,0.0,0.0,0.0,0.0,0.0,0.0,-2.0673,-2.062,-2.0322,-1.9742,-1.9521,-1.9046,-1.8131,-1.8446,-1.8179,-1.7134,-1.6692,-1.6158,0.0,0.0,0.0,0.0,0.0,0.0,0.0,0.0,0.0,0.0,0.0,0.0,0.0,0.0,0.0,0.0,0.0,0.0,0.0,0.0,0.0,0.0,0.0,0.0,0.0,0.0,0.0,0.0,0.0,0.0,0.0,0.0,-1.4688,-1.5266,0.0,0.0,0.0,0.0,0.0,0.0,0.0,0.0,0.0,0.0,0.0,0.0,0.0,-2.2975,-2.3175,-2.3983,-2.4278,-2.4082,-2.4859,-2.5145,-2.4883,-2.4815,-2.4815,-2.4924,-2.5439,0.0,-2.5325,-2.4791,0.0,0.0,0.0,0.0,0.0,0.0,0.0,0.0,0.0,0.0,0.0,0.0,0.0,0.0,0.0,0.0,0.0,0.0,0.0,0.0,0.0,0.0,-2.121,-2.085,-2.0817,-2.0862,0.0,-2.0529,-2.0302,-1.9292,-1.9611,0.0,0.0,0.0,0.0,0.0,0.0,0.0,-2.083,-2.0218,-1.9733,-1.9228,-1.8316,-1.7656,-1.7616,-1.7666,-1.7195,-1.6088,-1.6173,-1.5985,-1.5277,-1.4578,0.0,0.0,0.0,0.0,0.0,0.0,0.0,0.0,0.0,0.0,0.0,0.0,0.0,0.0,0.0,0.0,0.0,0.0,0.0,0.0,0.0,0.0,0.0,0.0,0.0,0.0,0.0,0.0,0.0,-1.4849,-1.6135,-1.6746,-1.7488,-1.7983,0.0,0.0,0.0,0.0,0.0,0.0,0.0,0.0,0.0,-2.3662,-2.3662,-2.3825,-2.4232,-2.4635,-2.4932,-2.5113,-2.5189,-2.5382,-2.5493,-2.5154,-2.5005,-2.5032,-2.5629,-2.5652,-2.521,-2.5266,-2.4629,-2.3537,0.0,0.0,0.0,0.0,-2.0673,-2.0685,-2.0917,-2.1046,-2.0915,-2.0096,0.0,0.0,0.0,0.0,0.0,0.0,0.0,0.0,0.0,0.0,-2.0795,-2.085,-2.0653,-2.0533,-2.0806,-2.0953,-2.0718,0.0,-2.0221,-2.0542,-2.0137,0.0,0.0,0.0,0.0,-2.0643,-1.9887,-1.9003,-1.8248,-1.7807,-1.702,-1.6369,-1.6091,-1.6279,-1.5946,-1.477,-1.4782,-1.456,-1.3862,-1.37,-1.3306,0.0,0.0,0.0,0.0,0.0,0.0,0.0,0.0,0.0,0.0,0.0,0.0,0.0,0.0,0.0,0.0,0.0,0.0,0.0,0.0,0.0,0.0,0.0,0.0,0.0,0.0,0.0,0.0,-1.5954,-1.705,-1.7905,-1.8729,-1.9271,0.0,0.0,0.0,0.0,0.0,0.0,-2.3378,-2.3405,-2.3689,-2.4327,-2.4354,-2.4557,-2.5005,-2.4856,-2.5005,-2.5426,-2.4842,-2.4774,-2.5195,-2.4747,-2.4488,-2.4404,-2.4997,-2.4904,-2.4445,-2.5177,-2.461,-2.3255,-2.293,-2.2115,-2.1158,-2.1413,-2.1408,-2.1319,-2.192,-2.2215,-2.2138,-2.0989,-2.0533,-2.0041,-1.848,0.0,0.0,0.0,0.0,-1.8884,-1.9736,-1.9802,-1.9867,-2.0216,-2.003,-1.9867,-2.0227,-2.05,-2.0609,0.0,-2.062,-2.0863,-2.0639,0.0,0.0,0.0,0.0,-1.9521,-1.8958,-1.7995,-1.7123,-1.6526,-1.5887,-1.5299,-1.4731,-1.4868,-1.459,-1.3631,-1.3421,-1.3153,-1.2791,-1.2878,-1.2503,-1.1619,0.0,0.0,0.0,0.0,0.0,0.0,0.0,0.0,0.0,0.0,0.0,0.0,0.0,0.0,0.0,0.0,0.0,0.0,0.0,0.0,0.0,0.0,0.0,0.0,0.0,0.0,0.0,0.0,0.0,-1.8097,-1.8862,0.0,0.0,0.0,0.0,-2.2129,-2.2278,-2.2821,-2.4015,-2.4069,-2.4354,-2.4951,-2.4951,-2.4978,-2.5005,-2.4449,-2.4177,-2.4204,-2.3554,-2.3297,-2.331,-2.3283,-2.3097,-2.2736,-2.3263,-2.3289,-2.3026,-2.4445,-2.4978,-2.4659,-2.2498,-2.2344,-2.3081,-2.1531,-2.152,-2.2182,-2.1767,-2.1931,-2.2302,-2.2226,-2.1581,-2.0718,-2.0172,-1.9353,0.0,0.0,-1.9026,-1.8807,-1.9321,-1.9113,-1.8774,-1.8785,-1.8785,-1.8774,-1.8785,-1.9528,-2.0314,0.0,-2.0917,-2.0953,-2.1031,0.0,-2.0377,-2.0469,-2.0089,-1.9402,-1.8391,-1.7651,-1.6857,-1.5923,-1.5198,-1.4571,-1.4104,-1.3583,-1.3238,-1.3064,-1.2589,-1.2414,-1.2674,-1.214,-1.2066,-1.2422,-1.1543,0.0,0.0,0.0,0.0,0.0,0.0,0.0,0.0,0.0,0.0,0.0,0.0,0.0,0.0,0.0,0.0,0.0,0.0,0.0,0.0,0.0,0.0,0.0,0.0,0.0,0.0,0.0,0.0,-1.9788,-2.0233,0.0,-2.0609,-2.1245,-2.1857,-2.2278,-2.3038,-2.3838,-2.4652,-2.4693,-2.4788,-2.4991,-2.4639,-2.4435,-2.4435,-2.3852,-2.35,-2.35,-2.3283,-2.307,-2.2791,-2.2791,-2.2564,-2.2239,-2.2447,-2.2249,-2.1895,-2.2414,-2.3088,-2.371,-2.2953,-2.2585,-2.2491,-2.1661,-2.1549,-2.1822,-2.1647,-2.1274,-2.077,-1.9813,-1.9073,-1.8541,-1.8374,-1.828,-1.8222,-1.8093,-1.8143,-1.8283,-1.8454,-1.8155,-1.7884,-1.8191,-1.801,-1.7868,-1.8056,-1.8392,-1.8711,-1.9113,-2.0085,-2.0798,-2.0477,-1.9997,-1.9553,-1.9253,-1.8428,-1.7632,-1.7042,-1.6169,-1.5344,-1.469,-1.4084,-1.3637,-1.3362,-1.2861,-1.2521,-1.2335,-1.19,-1.1663,-1.1804,-1.1494,-1.126,-1.1198,-1.1046,-1.0883,0.0,0.0,0.0,0.0,0.0,0.0,0.0,0.0,0.0,0.0,0.0,0.0,0.0,0.0,0.0,0.0,0.0,0.0,0.0,0.0,0.0,0.0,0.0,0.0,0.0,0.0,-1.8412,-2.0412,-2.0668,-2.0874,-2.1227,-2.1703,-2.2219,-2.2844,-2.3278,-2.3824,-2.4491,-2.4463,-2.4408,-2.4408,-2.4028,-2.3771,-2.3771,-2.307,-2.2669,-2.2721,-2.235,-2.2049,-2.1773,-2.1773,-2.1548,-2.1174,-2.1364,-2.1112,-2.0511,-2.0706,-2.1104,-2.1588,-2.1737,-2.174,-2.1481,-2.0676,-2.0567,-2.0823,-2.0663,-2.0154,-1.9302,-1.8298,-1.7782,-1.7529,-1.7324,-1.7513,-1.7698,-1.7399,-1.74,-1.7521,-1.7379,-1.6946,-1.657,-1.6859,-1.6557,-1.6279,-1.6696,-1.6848,-1.6981,-1.7296,-1.8765,-1.9846,-1.9441,-1.8953,-1.8518,-1.8216,-1.7079,-1.6155,-1.5788,-1.4805,-1.3959,-1.346,-1.3025,-1.2774,-1.2677,-1.2178,-1.1841,-1.176,-1.1318,-1.1023,-1.1023,-1.0902,-1.0764,-1.0653,-1.0941,-1.1013,-1.0841,0.0,0.0,0.0,0.0,0.0,0.0,0.0,0.0,0.0,0.0,0.0,0.0,0.0,0.0,0.0,0.0,0.0,0.0,0.0,0.0,0.0,0.0,0.0,-1.709,-1.7715,-1.8622,-1.9747,-2.006,-2.0819,-2.2482,-2.1896,-2.2109,-2.3839,-2.2949,-2.2678,-2.3565,-2.3346,-2.3189,-2.3189,-2.3162,-2.3162,-2.3162,-2.214,-2.168,-2.168,-2.0643,-2.0182,-2.0182,-2.0182,-1.9978,-1.9589,-2.0122,-1.9787,-1.8918,-1.9437,-1.9231,-1.8561,-1.8846,-1.9591,-2.0296,-1.8596,-1.8568,-1.927,-1.8832,-1.8375,-1.7924,-1.7914,-1.7914,-1.7833,-1.7365,-1.7234,-1.7234,-1.7223,-1.69,-1.6437,-1.6087,-1.5419,-1.4857,-1.4782,-1.434,-1.4038,-1.4629,-1.4935,-1.5176,-1.5467,-1.687,-1.8065,-1.8097,-1.7726,-1.7408,-1.7397,-1.6198,0.0,-1.4619,-1.3607,-1.2776,-1.2255,-1.2039,-1.2008,-1.2008,-1.1569,-1.1276,-1.1276,-1.0769,-1.0522,-1.0486,-1.0486,-1.0653,-1.0949,-1.1201,-1.1307,-1.1435,0.0,0.0,0.0,0.0,0.0,0.0,0.0,0.0,0.0,0.0,0.0,0.0,0.0,0.0,0.0,0.0,0.0,0.0,0.0,0.0,0.0,-1.6764,-1.7327,-1.7848,-1.7848,-1.8167,-1.931,-1.9649,-2.0206,-2.1285,-2.1594,-2.2076,-2.3012,-2.2978,-2.3009,-2.3305,-2.345,-2.3398,-2.3189,-2.2496,-2.2255,-2.2563,-2.1261,-2.0757,-2.1046,-2.0449,-2.0029,-1.9759,-1.9759,-1.9565,-1.9146,-1.9303,-1.8976,-1.8311,-1.836,-1.7855,-1.7164,-1.7984,-1.8424,-1.8459,-1.7789,-1.7671,-1.7759,-1.6991,-1.6566,-1.6357,-1.5689,-1.5472,-1.5463,-1.5289,-1.5482,-1.5644,-1.4982,-1.4994,-1.5002,-1.4457,-1.4098,-1.3981,-1.4115,-1.4009,-1.3907,-1.3924,-1.3984,-1.3987,-1.3998,-1.4573,-1.5283,-1.6033,-1.6033,-1.5858,-1.5379,-1.4496,0.0,-1.3692,-1.2852,-1.2227,-1.2058,-1.171,-1.1469,-1.1469,-1.1023,-1.0718,-1.0718,-1.0573,-1.053,-1.0623,-1.0631,-1.0515,-1.0271,-1.0464,-1.0262,0.0,0.0,0.0,0.0,0.0,0.0,0.0,0.0,0.0,0.0,0.0,0.0,0.0,0.0,0.0,0.0,0.0,0.0,0.0,0.0,0.0,0.0,-1.6338,-1.693,-1.7201,-1.7435,-1.7921,-1.8725,-1.9158,-1.9675,-2.045,-2.0969,-2.1572,-2.2344,-2.218,-2.2201,-2.2505,-2.2366,-2.2161,-2.1955,-2.1367,-2.1184,-2.1425,-2.0438,-2.0067,-2.0308,-1.9914,-1.9552,-1.9356,-1.9356,-1.9198,-1.8987,-1.8709,-1.8267,-1.7699,-1.7335,-1.6662,0.0,0.0,0.0,0.0,0.0,-1.615,-1.5799,-1.525,-1.4932,-1.4704,-1.419,-1.4002,-1.4002,-1.4002,-1.4222,-1.427,-1.3643,-1.3691,-1.3737,-1.3113,-1.2824,-1.2744,-1.2833,-1.2644,-1.2519,-1.2645,-1.2573,-1.251,-1.2604,-1.2767,0.0,-1.3676,-1.445,-1.4851,-1.4326,-1.3494,-1.2923,-1.2762,-1.1938,-1.136,-1.136,-1.1116,-1.0972,-1.0972,-1.0667,0.0,0.0,0.0,-1.0684,-1.0808,-1.0302,0.0,0.0,0.0,0.0,0.0,0.0,0.0,0.0,-1.1918,-1.2453,0.0,0.0,0.0,0.0,0.0,0.0,0.0,0.0,0.0,0.0,0.0,0.0,0.0,0.0,0.0,0.0,-1.5345,-1.6032,-1.5854,-1.6788,-1.7578,-1.7978,-1.8539,-1.911,-1.9759,-2.0157,-2.0781,-2.1714,-2.1036,-2.0841,-2.1458,0.0,0.0,0.0,0.0,-2.0182,-2.0182,-1.9772,-1.9565,-1.9604,-1.9146,-1.8881,-1.8881,-1.8768,-1.8732,-1.8679,-1.8116,-1.7487,-1.6872,-1.6223,-1.5514,-1.4896,-1.5245,-1.5498,-1.5505,-1.497,-1.4373,-1.3752,-1.3639,0.0,0.0,-1.3123,-1.3177,-1.3232,-1.3232,-1.3241,-1.3232,-1.2905,-1.2832,-1.2659,-1.2058,-1.1643,-1.1394,-1.1305,-1.0902,-1.0653,-1.1186,-1.1091,-1.1026,-1.1312,-1.1408,-1.1431,-1.1431,-1.296,-1.4028,-1.3657,-1.2879,-1.2192,-1.1867,-1.1042,-1.0522,-1.0522,0.0,0.0,-1.036,-1.036,-1.028,-1.0104,-1.0401,-1.0632,-1.0818,-0.9668,-0.9392,-1.0086,-0.95,-0.9358,-0.9741,-0.9533,-0.9742,-1.0335,-1.1427,-1.2398,0.0,0.0,0.0,0.0,0.0,0.0,0.0,0.0,0.0,0.0,0.0,0.0,0.0,0.0,0.0,-1.4843,-1.5572,-1.5926,-1.546,-1.6135,-1.6672,-1.6792,-1.7536,-1.8218,-1.8715,-1.9279,-1.9889,-2.0501,-2.059,-2.0622,-2.0646,-2.0795,-2.066,-2.0233,-1.9965,-1.9965,-2.0182,-1.946,-1.9303,-1.9617,0.0,0.0,-1.8244,-1.7402,-1.7073,-1.705,-1.6532,-1.5992,-1.5426,-1.5161,-1.4538,-1.3839,-1.4091,-1.4211,-1.419,-1.334,-1.2893,-1.2706,-1.2195,-1.1977,-1.1919,-1.1919,-1.2261,-1.2657,-1.2657,-1.2949,0.0,-1.2565,-1.2413,-1.2184,-1.136,-1.1079,-1.097,-1.0721,-1.0569,-1.0538,-1.0661,-1.0617,-1.0641,-1.0653,-1.0899,-1.109,-1.109,-1.1647,-1.2061,-1.1987,-1.1581,-1.1283,-1.1156,-1.0789,-1.0522,-1.0522,-1.0419,-1.0154,-0.9673,-0.9524,-0.9309,-0.9009,-0.9337,-0.9522,-0.9519,-0.9432,-0.9259,-0.8867,-0.8875,-0.8596,-0.7972,-0.8644,-0.903,-0.9316,-1.0593,-1.1587,0.0,0.0,0.0,0.0,0.0,0.0,0.0,0.0,0.0,0.0,0.0,-1.114,-1.1597,0.0,-1.3693,-1.4018,-1.4616,-1.4937,-1.4712,-1.5073,-1.5555,-1.6008,-1.6934,-1.7587,-1.7829,-1.8372,-1.8924,-1.9472,-1.9462,-1.9556,-1.9969,-1.9572,-1.9332,-1.9267,-1.9056,-1.8886,-1.8715,-1.891,-1.8815,-1.8405,-1.8,-1.7619,-1.7328,-1.6572,-1.6247,-1.6225,-1.5674,-1.5153,-1.4558,-1.3762,-1.3068,-1.2546,-1.2491,-1.277,-1.3088,-1.2329,-1.1922,-1.1709,-1.1374,-1.1152,-1.0993,-1.0993,-1.1153,-1.1374,-1.1374,-1.1489,-1.1562,-1.1063,-1.0954,-1.0809,-1.0236,-1.0043,-1.0043,-0.9888,-0.9836,-0.9836,-0.9836,-0.9836,-0.9836,-0.9836,-0.9971,-1.0083,-0.9916,-1.0048,-1.0312,-1.0871,-1.0638,-1.0309,-0.9938,-0.9604,-0.9399,-0.9399,-0.9347,-0.919,-0.8869,-0.8718,-0.8695,-0.8789,-0.8593,-0.8737,-0.9301,-0.8803,-0.849,-0.849,-0.8154,-0.7763,-0.733,-0.7697,-0.7883,-0.7945,-0.9046,-1.0196,0.0,0.0,0.0,0.0,0.0,0.0,0.0,0.0,-0.7195,-0.8637,-0.9839,-1.0768,-1.1232,-1.2067,-1.2783,-1.2929,-1.3443,-1.3839,-1.3793,-1.4061,-1.4468,-1.5017,-1.5916,-1.6571,-1.6736,-1.7067,-1.7492,-1.8051,-1.7785,-1.794,-1.8707,-1.7799,-1.735,-1.7624,-1.7519,-1.7289,-1.6841,-1.7827,-1.782,-1.6972,-1.6972,-1.6729,-1.6116,-1.5539,-1.5222,-1.5099,-1.4501,-1.3985,-1.3451,-1.2295,-1.1658,-1.1343,-1.0909,-1.1242,-1.1877,-1.1375,-1.0981,-1.07,-1.0593,-1.0354,-1.0064,-1.0064,-1.0064,-1.0064,-1.0064,-1.0012,-0.9969,-0.9666,-0.9614,-0.9562,-0.9263,-0.9211,-0.9211,-0.9211,-0.9211,-0.9211,-0.9211,-0.9211,-0.9211,-0.9159,-0.9106,-0.9047,-0.8771,-0.8718,-0.901,-0.9857,-0.9771,-0.9349,-0.8798,-0.8442,-0.8277,-0.8277,-0.8277,-0.8224,-0.8072,-0.7907,-0.7982,-0.8463,-0.7952,-0.8048,-0.9046,-0.8037,-0.7717,-0.8231,-0.7526,-0.7138,-0.7138,-0.7012,-0.6881,-0.6946,-0.7517,-0.8724,0.0499,-0.0867,-0.1962,-0.243,-0.3128,-0.3956,0.0,0.0,-0.656,-0.7495,-0.86,-0.9548,-1.0056,-1.1301,-1.2224,-1.2314,-1.2923,-1.326,-1.2964,-1.342,-1.3643,-1.3326,-1.3742,-1.4353,-1.5092,-1.4878,-1.4939,-1.5463,-1.5477,-1.5543,-1.568,-1.5646,-1.5487,-1.5197,-1.5279,-1.54,-1.551,-1.5657,-1.5831,-1.6038,-1.5519,-1.5018,-1.445,-1.347,-1.2822,-1.2324,-1.1695,-1.1336,-1.1184,-1.0886,-1.0732,-1.0629,-0.9985,-0.9844,-0.9926,-0.9821,-0.9799,-0.9665,-0.9214,-0.9042,-0.8956,-0.8956,-0.9211,-0.9465,-0.9465,-0.9718,-0.9969,-0.9666,-0.9614,-0.9562,-0.9263,-0.9211,-0.9211,-0.9211,-0.9211,-0.9211,-0.9211,-0.9211,-0.9106,-0.8883,-0.883,-0.8718,-0.8389,-0.833,-0.8396,-0.8533,-0.848,-0.8474,-0.8389,-0.833,-0.8277,-0.8277,-0.8178,-0.7865,-0.7295,-0.6885,-0.6769,-0.7012,-0.7144,-0.7409,-0.7707,-0.7396,-0.7265,-0.733,-0.7073,-0.6946,-0.6946,-0.6881,-0.6881,-0.6881,-0.7012,-0.7494,0.1319,0.038,-0.0425,-0.1851,-0.2216,-0.2525,-0.3586,-0.4385,-0.5222,-0.6377,-0.7332,-0.8254,-0.9199,-1.0132,-1.0866,0.0,-1.1598,-1.1797,-1.1772,-1.1727,-1.1727,-1.1768,-1.149,-1.2055,-1.3994,-1.4066,-1.404,-1.4281,-1.4293,-1.435,-1.4448,-1.4083,-1.3933,-1.4029,-1.3784,-1.3546,-1.3479,-1.3934,-1.3931,-1.339,-1.3224,-1.2861,-1.2267,-1.1589,-1.1301,-1.1206,-1.0582,-1.0332,-1.0312,-0.9865,-0.9614,-0.951,-0.8876,-0.8613,-0.8666,-0.8995,-0.9106,-0.9113,-0.8857,-0.8752,-0.8685,-0.8685,-0.8692,-0.8685,-0.8685,-0.8732,-0.8732,-0.8626,-0.8633,-0.858,-0.848,-0.8427,-0.8427,-0.8427,-0.8427,-0.8427,-0.8427,-0.8427,-0.8368,-0.8096,-0.8043,-0.7877,-0.7444,-0.7117,-0.6902,-0.674,-0.7278,-0.7652,-0.7385,-0.7176,-0.7074,-0.7074,-0.702,-0.6864,-0.6603,-0.6524,-0.6562,-0.6653,-0.6432,-0.656,-0.7017,-0.6634,-0.657,-0.6898,-0.6424,-0.6346,-0.6811,-0.6276,-0.6214,-0.6618,-0.6618,-0.6745,0.2424,0.1615,0.0905,-0.0664,-0.0941,-0.1096,-0.2135,-0.2932,-0.3877,-0.5043,-0.591,-0.685,-0.8127,-0.8852,-0.9479,-1.0058,-1.0241,-1.0392,-1.0523,-1.0273,-1.0182,-1.05,-1.0082,-1.0567,-1.256,-1.2736,-1.2725,-1.2725,-1.2725,-1.2718,-1.2701,-1.223,-1.2077,-1.2388,-1.1979,-1.1686,-1.1553,-1.2117,-1.2034,-1.1235,-1.1351,-1.1066,-1.0476,-0.9927,-0.9766,-0.9867,-0.9324,-0.9091,-0.9109,-0.8646,-0.8421,-0.8268,-0.7824,-0.7664,-0.7717,-0.8156,-0.8321,-0.8321,-0.8321,-0.8262,-0.8143,-0.8143,-0.7937,-0.7723,-0.7895,-0.7729,-0.7461,-0.7628,-0.7687,-0.7628,-0.7461,-0.7574,-0.7628,-0.7408,-0.7348,-0.7354,-0.7354,-0.73,-0.7246,-0.6972,-0.6918,-0.675,-0.6263,-0.5941,-0.5618,-0.5454,-0.61,-0.6529,-0.6263,-0.6,-0.5841,-0.5841,-0.5841,-0.5808,-0.5746,-0.5871,-0.5968,-0.598,-0.5559,-0.5575,-0.6132,-0.5691,-0.5646,-0.6081,-0.5513,-0.5505,-0.6009,-0.557,-0.5639,-0.6148,-0.6284,-0.642,0.3758,0.2637,0.1755,0.1545,0.0923,0.0159,-0.0529,-0.1546,-0.2559,-0.3395,-0.4288,-0.5278,-0.6696,-0.7532,-0.8217,-0.8944,-0.9117,-0.9187,-0.9316,-0.9436,-0.9536,-0.9536,-0.9971,-1.0332,0.0,-1.0361,-1.0293,-1.0293,-1.0293,-1.0147,-0.9744,-0.9713,-0.9683,-0.9631,-0.9591,-0.9699,-0.9872,-0.9915,-1.0066,-1.0353,-1.0336,-1.0063,-0.9514,-0.8522,-0.7957,-0.7685,-0.7418,-0.7132,-0.6899,-0.7089,-0.7139,-0.7139,-0.7139,-0.7139,-0.7139,-0.7139,-0.7139,-0.7139,-0.7139,-0.7074,-0.6961,-0.6961,-0.674,-0.6578,-0.7176,-0.6799,-0.6372,-0.6972,-0.7139,-0.6972,-0.6426,-0.6701,-0.6918,-0.6253,-0.6036,-0.6036,-0.5882,-0.5882,-0.5773,-0.5441,-0.5386,-0.5281,-0.5007,-0.4952,-0.4952,-0.4901,-0.4952,-0.4952,-0.4952,-0.4952,-0.4952,-0.4952,-0.4952,-0.4849,-0.4592,-0.4551,-0.4556,-0.4457,-0.4463,-0.4525,-0.4731,-0.4607,-0.454,-0.4532,-0.4361,-0.4299,-0.4353,-0.5016,-0.5342,-0.5477,-0.6083,-0.642,0.5913,0.5399,0.4757,0.3276,0.2605,0.2235,0.1983,0.0706,-0.065,-0.1591,-0.2297,-0.322,-0.4824,-0.5358,-0.5891,-0.6849,-0.6985,-0.7066,-0.7278,-0.7291,-0.7379,-0.7811,-0.8204,0.0,0.0,0.0,0.0,-1.0079,-0.9894,-0.9619,-0.9208,-0.8999,-0.8829,-0.8691,-0.8095,-0.79,-0.8158,-0.7694,-0.7538,-0.7636,-0.7636,-0.7556,-0.7345,-0.7045,-0.6924,-0.7059,-0.6772,-0.6812,-0.703,-0.696,-0.6992,-0.7085,-0.6647,-0.648,-0.6431,-0.6055,-0.5837,-0.5887,-0.6696,-0.6858,-0.6696,-0.6578,-0.6416,-0.6312,-0.6529,-0.6372,-0.6263,-0.6426,-0.648,-0.6426,-0.615,-0.6204,-0.6312,-0.5932,-0.5878,-0.5878,-0.5828,-0.5773,-0.5719,-0.5391,-0.5277,-0.5226,-0.4952,-0.4622,-0.4291,-0.3793,-0.4401,-0.4846,-0.468,-0.4625,-0.457,-0.4343,-0.4284,-0.4249,-0.4182,-0.4273,-0.4327,-0.4218,-0.3861,-0.3851,-0.4223,-0.3786,-0.3742,-0.4159,-0.3743,-0.3782,-0.4287,-0.4048,-0.4177,-0.4683,-0.5286,-0.5554,0.8129,0.7834,0.7287,0.5515,0.4751,0.4355,0.4041,0.2735,0.1321,0.0536,-0.0432,-0.1559,-0.2954,-0.3582,-0.4224,-0.5303,-0.5487,-0.5593,-0.5893,-0.6056,-0.6255,-0.6651,-0.7093,-0.7486,0.0,0.0,0.0,-0.9494,-0.9223,-0.8898,-0.8665,-0.8305,-0.8062,-0.7964,-0.7405,-0.716,-0.7266,-0.6768,-0.6422,-0.6289,-0.6289,-0.6289,-0.6289,-0.6161,-0.6168,-0.6236,-0.5965,-0.6039,-0.6344,-0.6222,-0.6288,-0.6436,-0.605,-0.5887,-0.5832,-0.5403,-0.5183,-0.5234,-0.5991,-0.61,-0.5882,-0.5823,-0.5714,-0.5609,-0.5828,-0.5769,-0.5609,-0.5823,-0.5823,-0.5714,-0.5441,-0.5492,-0.5492,-0.5167,-0.5058,-0.5062,-0.5007,-0.5011,-0.4952,-0.4732,-0.4677,-0.4625,-0.4291,-0.3904,-0.3519,-0.3021,-0.363,-0.4073,-0.3855,-0.3855,-0.3796,-0.3572,-0.3548,-0.3519,-0.3406,-0.3549,-0.359,-0.3374,-0.304,-0.3024,-0.3336,-0.2959,-0.291,-0.3327,-0.3027,-0.3055,-0.3556,-0.3319,-0.3387,-0.3823,-0.442,-0.4659,1.03,0.9808,0.9157,0.8125,0.718,0.6384,0.563,0.4379,0.3242,0.2864,0.1318,-0.0236,-0.1179,-0.2168,-0.3167,-0.4296,-0.4537,-0.472,-0.513,-0.5631,-0.5956,0.0,0.0,0.0,0.0,0.0,0.0,-0.8435,0.0,-0.7907,-0.7907,-0.7531,-0.7328,-0.7328,-0.7286,-0.7245,-0.7125,-0.6914,-0.6605,-0.6252,-0.6252,-0.6252,-0.6204,-0.5825,-0.5524,-0.5231,-0.4952,-0.4819,-0.4755,-0.4939,-0.5067,-0.523,-0.5183,-0.5187,-0.5187,-0.5069,-0.5014,-0.4959,-0.4959,-0.4853,-0.4691,-0.4688,-0.4632,-0.4574,-0.5117,-0.4897,-0.4625,-0.5117,-0.5167,-0.4893,-0.4356,-0.4519,-0.4677,-0.3962,-0.3796,-0.3744,-0.3638,-0.3585,-0.3585,-0.3583,-0.3583,-0.3471,-0.3132,-0.2856,-0.2691,-0.2635,-0.2639,-0.2639,-0.2691,-0.2695,-0.2697,-0.2641,-0.2715,-0.265,-0.2299,-0.2428,-0.2354,-0.2043,-0.2031,-0.2064,-0.2067,-0.2068,-0.2095,-0.2153,-0.2097,-0.2095,-0.2154,-0.2749,-0.3008,-0.295,-0.3609,-0.3813,1.1402,1.095,1.0339,0.885,0.7921,0.7245,0.6599,0.5858,0.5079,0.4326,0.3009,0.166,0.0489,-0.0674,-0.1761,-0.2663,-0.2941,0.0,-0.3481,-0.3614,0.0,-0.4409,0.0,-0.5815,-0.6078,-0.6537,0.0,0.0,-0.7007,-0.6898,-0.6814,-0.6345,-0.6209,-0.6477,-0.6081,-0.5916,-0.6062,-0.5674,-0.5415,-0.5323,-0.5323,-0.5323,-0.5323,-0.5106,-0.4792,-0.4395,-0.4139,-0.3887,-0.3706,-0.3708,-0.3797,-0.3928,-0.3862,-0.3788,-0.3788,-0.3674,-0.3566,-0.3461,-0.3461,-0.4018,-0.4688,-0.4574,-0.4519,-0.4515,-0.468,-0.4625,-0.4519,-0.4467,-0.4463,-0.4353,-0.4021,-0.4018,-0.4018,-0.3747,-0.3635,-0.3638,-0.3585,-0.3585,-0.3527,-0.3299,-0.3079,-0.2914,-0.28,-0.2521,-0.224,-0.1902,-0.166,-0.173,-0.2247,-0.2347,-0.2325,-0.215,-0.2151,-0.2191,-0.2071,-0.2102,-0.2134,-0.2102,-0.1926,-0.1887,-0.1929,-0.1797,-0.1736,-0.1749,-0.1736,-0.1736,-0.1749,-0.1936,-0.1981,-0.1953,-0.2535,-0.2752,1.2955,1.2432,1.1787,1.0106,0.9352,0.8802,0.8099,0.7355,0.6585,0.5932,0.439,0.2941,0.2092,0.0706,-0.0499,-0.13,0.0,0.0,-0.285,-0.2917,-0.3102,0.0,-0.4111,0.0,-0.4912,-0.5223,-0.5331,0.0,-0.5893,-0.6225,-0.614,-0.565,-0.548,-0.5658,-0.5351,-0.514,-0.5145,-0.4884,-0.467,-0.4499,-0.4499,-0.4499,-0.4499,-0.436,-0.4092,-0.3781,0.0,-0.333,-0.3225,-0.3158,-0.3237,-0.3395,-0.3353,-0.3244,-0.3176,-0.3065,-0.2959,-0.2905,-0.285,-0.3239,-0.3796,-0.3738,-0.3738,-0.3738,-0.3907,-0.3965,-0.4024,-0.4255,-0.4206,-0.4095,-0.3922,-0.3811,-0.3697,-0.3644,-0.3591,-0.3591,-0.3591,-0.3477,-0.3193,-0.2685,-0.2406,-0.2127,-0.1959,-0.1623,-0.135,-0.1085,-0.0931,-0.0882,-0.111,-0.1542,-0.1681,-0.1261,-0.1667,-0.1814,-0.1544,-0.1705,-0.1798,-0.1868,-0.176,-0.172,-0.1748,-0.1681,-0.1614,-0.1614,-0.1614,-0.1614,-0.1614,-0.1614,-0.1534,-0.1444,-0.1748,-0.1838,1.4293,1.3686,1.293,1.1479,1.0926,1.054,0.9743,0.8829,0.8017,0.7368,0.5649,0.4066,0.3506,0.2068,0.0734,-0.0,0.0,-0.1714,-0.2283,-0.2431,-0.2623,-0.3089,-0.3104,-0.3298,-0.3782,-0.3791,-0.3661,-0.3458,-0.467,-0.5423,-0.5402,-0.4986,-0.4792,-0.4831,-0.4918,-0.4787,-0.4391,-0.4391,-0.422,-0.388,-0.388,-0.388,-0.3836,-0.3653,-0.3473,-0.3249,-0.2987,-0.2871,-0.2874,-0.289,-0.2967,-0.3051,-0.3064,-0.2974,-0.2843,-0.2681,-0.2627,-0.2627,-0.2514,-0.2458,-0.2514,-0.2625,-0.2736,-0.285,-0.3188,-0.3244,-0.3299,-0.3984,-0.399,-0.3769,-0.3711,-0.354,-0.337,-0.337,-0.3314,-0.3256,-0.3256,-0.2972,-0.2521,-0.1959,-0.1623,-0.1286,-0.0894,-0.0618,-0.0399,-0.0293,-0.0237,-0.006,0.0308,-0.0433,-0.0805,-0.031,-0.1019,-0.1283,-0.0751,-0.1111,-0.1263,-0.1232,-0.126,-0.1344,-0.1412,-0.1412,-0.1412,-0.1547,-0.1547,-0.1547,-0.1547,-0.1547,-0.1407,-0.1263,-0.1231,-0.1136,1.3322,1.2785,1.2503,1.1905,1.1686,1.1378,1.0521,1.0242,0.0,0.0,0.6946,0.5972,0.4696,0.3273,0.2124,0.1365,0.027,-0.0265,0.0261,0.0099,-0.0284,0.0,-0.1507,-0.2252,-0.3033,-0.3552,0.0,0.0,-0.2658,-0.3146,-0.3398,-0.3101,-0.3208,-0.3825,-0.4395,-0.457,-0.4391,-0.4216,-0.4049,-0.388,-0.388,-0.3836,-0.3653,-0.3517,-0.3073,-0.2502,-0.2322,0.0,-0.1679,-0.1737,-0.1759,-0.1735,-0.1683,-0.1576,-0.1456,-0.1288,-0.1233,-0.1233,-0.1233,-0.1233,-0.14,-0.2402,-0.2905,-0.3188,-0.3299,-0.285,-0.24,-0.2575,-0.2577,-0.2465,-0.224,-0.2127,-0.2127,-0.2127,-0.1734,-0.1342,-0.1342,-0.1285,-0.1229,-0.1118,-0.0839,-0.056,-0.0504,-0.0459,-0.0293,0.0118,0.0492,0.0826,0.1278,0.0511,-0.0,0.0383,0.0262,0.0133,0.0264,0.02,0.0134,0.0133,0.0268,0.0134,-0.047,-0.0336,-0.0538,-0.1143,-0.121,-0.121,-0.121,-0.121,-0.1117,-0.1066,-0.106,-0.098,1.3593,1.3127,1.2871,1.2476,1.2496,1.2352,1.1296,0.0,0.0,0.0,0.7408,0.636,0.5083,0.3949,0.3083,0.2555,0.1828,0.1329,0.138,0.1651,0.1692,0.1241,0.0233,-0.0593,-0.0982,-0.147,-0.1558,-0.1114,-0.1247,-0.171,-0.2434,-0.244,-0.2679,-0.3255,-0.3561,-0.3737,-0.3781,-0.3697,-0.3568,-0.3398,-0.3398,-0.3262,-0.3034,-0.2812,-0.246,-0.2014,-0.1834,-0.1566,-0.1345,-0.1373,-0.1291,-0.1212,-0.1132,-0.1071,-0.101,-0.0898,-0.0898,-0.0898,-0.0898,-0.0898,-0.0953,-0.1399,-0.1734,-0.2071,-0.2071,-0.179,-0.1454,-0.1119,-0.1064,-0.1008,-0.0896,-0.0616,-0.0392,-0.0392,-0.0168,-0.0056,-0.0392,-0.0448,-0.0392,-0.0336,-0.0224,-0.0,0.0224,0.0461,0.0651,0.0902,0.1252,0.1684,0.2102,0.1776,0.1448,0.1449,0.0999,0.0738,0.1074,0.0939,0.0805,0.0805,0.0873,0.0806,0.047,0.0538,0.02,-0.0526,-0.0526,-0.0718,-0.103,-0.103,-0.1016,-0.0988,-0.0972,-0.0965,1.4169,1.3779,1.3526,1.331,1.3598,1.357,1.2234,1.1764,0.0,0.8961,0.7553,0.6357,0.5357,0.4517,0.3835,0.0,0.3088,0.2611,0.2091,0.2511,0.2819,0.2612,0.1588,0.0,0.0998,0.0896,0.0,-0.0045,-0.0224,-0.0805,-0.1876,-0.2101,-0.2368,-0.2677,-0.2721,-0.281,-0.3037,-0.3037,-0.2998,-0.2915,-0.2915,-0.269,-0.2326,-0.2018,-0.1748,-0.1478,-0.1344,-0.1208,0.0,-0.1253,-0.1169,-0.0996,-0.0996,-0.0886,-0.0721,-0.0721,-0.0613,-0.0504,-0.0617,-0.0561,-0.0448,-0.0112,-0.0449,-0.0898,-0.0898,-0.0785,-0.0561,-0.0,0.0168,0.0168,0.0168,0.0505,0.0785,0.0898,0.0898,0.0785,0.028,0.0168,0.0224,0.0393,0.0449,0.0561,0.1009,0.1392,0.162,0.1596,0.196,0.234,0.2656,0.2715,0.2638,0.2378,0.1735,0.1479,0.1883,0.168,0.1546,0.1546,0.1546,0.1475,0.1333,0.134,0.0992,0.0255,0.0192,-0.0127,-0.074,-0.0926,-0.0985,-0.0978,-0.096,-0.0966,1.454,1.4243,1.4235,1.4684,1.5177,1.5118,1.3356,0.0,1.1555,0.9233,0.7789,0.6751,0.5944,0.5182,0.453,0.401,0.0,0.3116,0.2658,0.2385,0.2387,0.2904,0.0,0.0,0.1993,0.2434,0.2243,0.1299,0.0449,-0.0449,-0.1343,-0.1658,-0.1792,-0.1746,-0.2012,-0.2277,-0.246,-0.246,-0.2598,-0.2881,-0.2881,-0.2516,-0.1748,-0.1433,-0.0985,-0.0537,-0.0716,-0.076,0.0,-0.103,-0.1058,-0.0909,-0.0909,-0.0552,-0.0107,-0.0107,0.0327,0.0838,0.0336,0.0448,0.0783,0.1065,0.0224,-0.0898,-0.0898,-0.0505,0.0056,0.0673,0.0842,0.0842,0.0842,0.0617,0.0505,0.0842,0.0898,0.0898,0.0842,0.0842,0.0898,0.1122,0.1178,0.129,0.1679,0.1828,0.1966,0.1971,0.2277,0.2584,0.2589,0.2843,0.2979,0.2917,0.2931,0.3025,0.3025,0.3025,0.3025,0.3025,0.3025,0.2657,0.1943,0.212,0.1833,0.0928,0.0698,0.0444,-0.0,-0.0679,-0.0974,-0.0888,-0.0973,-0.0986,1.5575,1.5384,1.5511,1.6686,1.618,1.5001,1.354,1.2162,1.0466,0.7964,0.7052,0.633,0.5402,0.4902,0.4385,0.3637,0.0,0.0,0.3492,0.3257,0.3153,0.3252,0.2747,0.2251,0.0,0.0,0.2353,0.1481,0.0806,0.0134,-0.0492,-0.0895,-0.1208,-0.1433,-0.1657,-0.2012,-0.2415,-0.2415,-0.2281,-0.202,-0.202,-0.1703,-0.1074,-0.0895,-0.0537,-0.0179,-0.0224,-0.0179,0.0,-0.0089,-0.0046,0.0048,0.0098,0.0255,0.048,0.0598,0.0829,0.1118,0.1343,0.1174,0.1118,0.23,0.2411,0.1737,0.0112,0.0056,0.0617,0.0842,0.0898,0.0898,0.0898,0.0785,0.0729,0.0842,0.0898,0.0954,0.1122,0.1122,0.1234,0.1569,0.1624,0.1624,0.179,0.2035,0.2219,0.2219,0.2584,0.2824,0.2824,0.2915,0.3015,0.314,0.3132,0.3144,0.3144,0.3195,0.3228,0.3362,0.3362,0.3253,0.2968,0.3061,0.2739,0.1856,0.1636,0.1142,0.0408,-0.0525,-0.082,-0.0589,-0.0836,-0.0981,1.6697,1.6632,1.6833,1.8234,1.693,1.5003,1.3828,1.1753,0.9402,0.7036,0.6274,0.5751,0.496,0.461,0.4267,0.0,0.0,0.3499,0.371,0.3516,0.3319,0.3192,0.0,0.2495,0.2122,0.2027,0.1923,0.1844,0.1031,0.0403,0.0134,-0.0224,-0.0627,-0.1119,-0.121,-0.1435,-0.188,-0.1835,-0.1523,-0.0986,-0.0986,-0.0762,-0.0358,-0.0224,0.0045,0.0313,0.0224,0.0403,0.0,0.0582,0.0642,0.0811,0.0883,0.1021,0.1281,0.1421,0.1608,0.1845,0.2294,0.2127,0.19,0.3254,0.3819,0.3591,0.1792,0.1008,0.0728,0.0729,0.0842,0.0898,0.0898,0.1009,0.1121,0.0954,0.1177,0.1513,0.1514,0.1569,0.1736,0.2069,0.2014,0.1959,0.2071,0.2303,0.253,0.253,0.2817,0.2976,0.2976,0.3011,0.3053,0.3175,0.314,0.3147,0.3175,0.324,0.3344,0.3477,0.3477,0.3496,0.352,0.361,0.3338,0.2721,0.2632,0.2084,0.1064,-0.0168,-0.0625,-0.0407,-0.0645,-0.0793,1.7762,1.7829,1.8107,1.9064,1.7535,1.5509,1.4432,1.1657,0.8783,0.6817,0.573,0.5079,0.494,0.461,0.4363,0.4225,0.3779,0.0,0.3159,0.2619,0.2343,0.0,0.2164,0.2116,0.2915,0.1489,0.117,0.2755,0.1213,0.0,0.0405,0.027,-0.009,-0.0671,-0.0494,-0.0494,-0.0719,-0.0539,-0.027,-0.0,-0.0,0.0135,0.0405,0.0584,0.0853,0.1074,0.0805,0.085,0.0,0.0805,0.0872,0.1095,0.1095,0.1597,0.2287,0.2287,0.2774,0.3357,0.3312,0.3421,0.3585,0.3811,0.386,0.3855,0.4092,0.2404,0.0391,0.0392,0.0617,0.0898,0.0898,0.1344,0.1623,0.1065,0.1902,0.2738,0.2127,0.2235,0.2567,0.285,0.2516,0.2296,0.2635,0.2766,0.2769,0.2769,0.2941,0.2995,0.2995,0.3083,0.3079,0.3079,0.323,0.3337,0.3381,0.339,0.3392,0.3392,0.3392,0.3346,0.3299,0.358,0.3592,0.3421,0.3716,0.3309,0.2071,0.0392,-0.0393,-0.0393,-0.0406,-0.0427,1.9794,1.9995,2.0327,2.191,1.8878,1.5418,1.498,1.1209,0.7337,0.572,0.5322,0.5034,0.4245,0.4278,0.4378,0.4175,0.4134,0.0,0.0,0.0,0.0,0.3026,0.168,0.1105,0.0,0.0,0.0187,0.0405,0.0807,0.0673,-0.009,0.027,0.0449,0.0268,-0.0224,-0.0539,-0.0717,-0.0629,-0.0405,-0.0,0.0315,0.045,0.0405,0.0629,0.0943,0.1299,0.1208,0.1433,0.0,0.1748,0.1837,0.2051,0.2106,0.2395,0.2821,0.3002,0.3217,0.3413,0.358,0.3691,0.3744,0.3913,0.4027,0.4024,0.3752,0.2963,0.2179,0.2348,0.2348,0.2293,0.2293,0.2456,0.2621,0.2454,0.2732,0.3067,0.307,0.3181,0.3239,0.3244,0.3355,0.3408,0.3463,0.3719,0.4026,0.4194,0.4247,0.4303,0.4303,0.432,0.4181,0.3904,0.3884,0.3735,0.3392,0.3348,0.3451,0.3574,0.3576,0.3646,0.3643,0.3733,0.3685,0.353,0.3632,0.3121,0.1902,0.056,-0.0114,-0.0116,-0.012,-0.0124,2.0512,2.1154,2.155,2.3361,2.0325,1.6548,1.5158,1.1376,0.7437,0.4947,0.4651,0.4591,0.3893,0.4055,0.4254,0.4042,0.3986,0.3893,0.0,0.0,0.0,0.2462,0.0,0.0,0.0,0.0448,-0.0096,-0.0645,0.0226,0.0494,-0.0225,-0.0,0.0314,0.0671,0.0045,-0.0404,-0.0627,-0.0584,-0.045,-0.0135,0.045,0.0629,0.0539,0.0763,0.1076,0.1389,0.1523,0.1853,0.0,0.2256,0.243,0.2783,0.2759,0.2956,0.3309,0.3495,0.3577,0.3635,0.3799,0.3855,0.391,0.4024,0.419,0.4359,0.4076,0.3463,0.2905,0.3074,0.3019,0.2905,0.2959,0.3231,0.3395,0.3174,0.3508,0.3843,0.3846,0.3904,0.4018,0.3913,0.4076,0.4187,0.4073,0.4405,0.468,0.4901,0.4952,0.4948,0.4948,0.5007,0.4952,0.4673,0.4457,0.416,0.3795,0.3584,0.351,0.3631,0.369,0.3656,0.3749,0.3746,0.3713,0.3585,0.3593,0.303,0.179,0.0616,-0.0,-0.0,-0.0,-0.0,0.0,2.0933,2.1579,2.3194,2.1287,1.8097,1.4718,1.1837,0.0,0.4565,0.3978,0.4117,0.3795,0.4094,0.4247,0.3735,0.3633,0.3178,0.0,0.1762,0.0,0.0,0.1113,0.0,0.0106,0.0257,0.005,-0.0666,-0.0413,-0.018,-0.009,-0.045,-0.0269,0.0582,0.0224,-0.0135,-0.0449,-0.045,-0.036,-0.0225,0.0405,0.072,0.0812,0.1077,0.13,0.0,0.1706,0.0,0.0,0.2418,0.2694,0.3176,0.312,0.3368,0.3796,0.3796,0.391,0.4024,0.4024,0.4024,0.4076,0.4193,0.4467,0.4743,0.4846,0.3956,0.2903,0.3016,0.3072,0.307,0.3231,0.3674,0.3953,0.3395,0.4233,0.4959,0.4401,0.4515,0.4743,0.4743,0.4632,0.4574,0.4625,0.4846,0.5007,0.5062,0.5167,0.5214,0.5214,0.5328,0.5391,0.5386,0.4901,0.4519,0.4519,0.3968,0.3585,0.3585,0.3585,0.3585,0.3585,0.3585,0.3585,0.3585,0.3538,0.286,0.1679,0.056,-0.0,-0.0,-0.0,-0.0,1.4157,0.0,1.8461,1.9452,1.7394,1.4311,0.0,0.9987,0.8408,0.4751,0.6387,0.7405,0.3978,0.597,0.689,0.3116,0.5618,0.6352,0.1484,0.0284,0.0,0.1676,0.0223,-0.06,0.0205,-0.0456,-0.0883,-0.0733,-0.0633,-0.0674,-0.0855,-0.0674,-0.0494,-0.0359,-0.0045,0.0134,0.0045,-0.0404,-0.0,0.1256,0.0718,0.0958,0.1921,0.1363,0.1367,0.1784,0.191,0.0,0.2519,0.3097,0.3248,0.3237,0.3779,0.3921,0.3796,0.391,0.3965,0.4024,0.4135,0.4245,0.4408,0.468,0.4791,0.4846,0.4897,0.4677,0.4398,0.4398,0.4512,0.457,0.4622,0.4794,0.4959,0.4794,0.5018,0.5242,0.5073,0.5128,0.5132,0.5018,0.5293,0.5508,0.5605,0.5987,0.6322,0.6539,0.6588,0.6642,0.6642,0.6642,0.648,0.6046,0.5445,0.4952,0.4519,0.3968,0.3585,0.3585,0.3585,0.3585,0.3585,0.3585,0.3585,0.3585,0.2687,0.1624,0.0448,0.0112,-0.0,-0.0,-0.0,-0.0,1.1075,1.4677,1.7514,1.657,1.6409,1.5124,1.0017,0.8858,0.7866,0.4202,0.0,0.6668,0.5821,0.6225,0.6346,0.5343,0.5524,0.4465,0.0,0.0,-0.034,0.0503,-0.0558,-0.1203,0.0,-0.122,-0.1279,-0.0974,-0.0817,-0.0764,-0.09,-0.081,-0.0629,-0.0315,0.0134,0.0268,0.009,-0.0045,0.0403,0.1433,0.1032,0.1315,0.2175,0.1539,0.1452,0.1898,0.226,0.0,0.3115,0.3718,0.4098,0.4271,0.4365,0.4378,0.4398,0.4294,0.4242,0.4356,0.4794,0.5011,0.5066,0.5011,0.5011,0.5011,0.5234,0.5289,0.5289,0.5066,0.5069,0.5128,0.5183,0.5242,0.5352,0.5521,0.5517,0.5572,0.5677,0.5727,0.5673,0.5614,0.5946,0.6218,0.6317,0.6642,0.6918,0.7085,0.7085,0.7085,0.7085,0.7085,0.6864,0.6263,0.566,0.5062,0.4574,0.3968,0.3585,0.3585,0.3585,0.3585,0.3585,0.3585,0.3585,0.3591,0.2408,0.1231,-0.0,-0.0,-0.0,-0.0,-0.0,-0.0,0.8242,1.2654,1.5777,1.3403,1.5579,1.6402,0.9015,0.0,0.0,0.0,0.0,0.0,0.7071,0.5669,0.0,0.7294,0.3976,0.0,0.08,-0.0168,-0.092,-0.1008,-0.1338,0.0,-0.2223,-0.1843,-0.1531,-0.1373,-0.1007,-0.0764,-0.0719,-0.0944,-0.0719,0.0135,0.0313,0.0358,0.0269,0.0403,0.0716,0.1164,0.1398,0.1809,0.231,0.1719,0.1724,0.2189,0.0,0.0,0.3983,0.4478,0.504,0.5529,0.5063,0.4988,0.5109,0.4791,0.4739,0.4963,0.5614,0.5882,0.5828,0.5344,0.5234,0.5344,0.5736,0.5845,0.5791,0.5399,0.5289,0.5289,0.5403,0.5458,0.5517,0.5791,0.5845,0.5896,0.6154,0.6209,0.6209,0.6263,0.6485,0.6701,0.6761,0.6977,0.7085,0.7085,0.7085,0.7085,0.7085,0.7085,0.6864,0.6263,0.566,0.5117,0.4574,0.3968,0.3638,0.3638,0.3638,0.3638,0.3638,0.3638,0.3644,0.3599,0.241,0.1231,-0.0,-0.0,-0.0,-0.0,-0.0,-0.0,0.1785,0.4603,0.7173,0.7668,1.0198,1.0968,0.4784,0.0,0.0,0.0,0.0,0.0,0.0,0.5414,0.6748,0.0,0.0,0.0975,0.0,0.0,-0.168,-0.0833,0.0,-0.3002,-0.1735,-0.2172,-0.2252,-0.1593,-0.1395,-0.1121,-0.0719,-0.0987,-0.0807,-0.0,0.0045,0.0537,0.1435,0.0806,0.0983,0.1921,0.195,0.2454,0.3251,0.2264,0.2542,0.3736,0.0,0.4066,0.5023,0.5664,0.5859,0.5823,0.6328,0.6013,0.5277,0.5395,0.5504,0.5664,0.5891,0.61,0.6253,0.5841,0.5841,0.6046,0.61,0.6159,0.61,0.6046,0.6046,0.6046,0.605,0.605,0.61,0.61,0.6159,0.6159,0.6209,0.6209,0.6263,0.6593,0.6647,0.6756,0.6977,0.7085,0.7085,0.7085,0.7085,0.7085,0.7085,0.7085,0.6864,0.6263,0.566,0.5117,0.4688,0.4132,0.3799,0.3913,0.3855,0.3799,0.3913,0.3855,0.3694,0.3599,0.241,0.1231,-0.0,-0.0,-0.0,-0.0,-0.0,-0.0,-0.1601,-0.0,0.1569,0.21,0.5491,0.7628,0.3532,0.0,0.0,0.0,0.0,0.0,0.0,0.0,0.3434,-0.0168,0.0,-0.0391,0.0682,-0.0523,-0.1558,0.0,0.0,-0.3088,-0.2888,-0.2867,-0.2768,-0.2346,-0.1794,-0.1479,-0.1391,-0.1122,-0.0807,-0.0538,0.0045,0.0626,0.1164,0.1297,0.1607,0.2101,0.2329,0.284,0.3607,0.3036,0.3339,0.4295,0.0,0.5117,0.5836,0.657,0.6869,0.6972,0.7074,0.6848,0.6465,0.6421,0.6745,0.7176,0.6907,0.6961,0.7015,0.6539,0.6322,0.6209,0.6431,0.6485,0.6485,0.6647,0.6426,0.6209,0.6209,0.6209,0.6263,0.6426,0.6485,0.6485,0.6647,0.6701,0.6756,0.6864,0.6923,0.6977,0.7198,0.7198,0.7198,0.7198,0.7198,0.709,0.6647,0.6593,0.6322,0.5504,0.512,0.4794,0.4356,0.4076,0.391,0.4021,0.3965,0.391,0.4021,0.3965,0.3635,0.3142,0.2127,0.1175,0.0224,0.0224,0.0168,-0.0,-0.0,-0.0,-0.3733,-0.3315,-0.2871,-0.2299,0.2069,0.5528,0.2847,0.2547,0.0,0.0,0.0,0.0,0.0,0.3965,0.0,-0.0815,-0.1102,-0.1498,-0.2905,-0.2057,-0.1719,-0.2751,-0.2902,-0.3123,-0.3708,-0.3438,-0.3086,-0.2747,-0.2199,-0.1927,-0.2018,-0.1346,-0.0987,-0.0985,-0.0045,0.0537,0.076,0.1607,0.2099,0.2235,0.262,0.3163,0.3787,0.3678,0.3985,0.4678,0.542,0.6052,0.6611,0.7252,0.7715,0.8002,0.767,0.7551,0.7599,0.7379,0.7765,0.8315,0.7877,0.7771,0.7723,0.7176,0.675,0.648,0.6701,0.6815,0.6815,0.7031,0.681,0.6426,0.6426,0.6426,0.648,0.6761,0.6815,0.6923,0.7139,0.7192,0.7192,0.7192,0.7192,0.7252,0.7311,0.7365,0.7365,0.7365,0.7365,0.7144,0.6593,0.648,0.6154,0.5234,0.5014,0.4688,0.4079,0.4079,0.4132,0.4132,0.4079,0.4079,0.4132,0.4079,0.3691,0.2856,0.2014,0.1231,0.0505,0.0505,0.0393,0.0224,0.0112,0.0056,-0.5168,-0.5981,-0.6576,-0.4427,0.077,0.0,0.1601,0.1901,0.0,0.1263,0.0,0.0,0.0,0.5365,0.4862,0.3546,0.0985,-0.1671,-0.403,0.0,-0.2971,-0.3956,-0.4092,-0.377,-0.3072,-0.3331,-0.3178,-0.2241,-0.246,-0.2462,-0.2101,-0.1927,-0.1569,-0.103,-0.0538,0.009,0.0985,0.1607,0.2144,0.2642,0.302,0.3481,0.4043,0.382,0.4303,0.5445,0.5601,0.6349,0.7449,0.7763,0.8037,0.8368,0.8315,0.815,0.7871,0.7972,0.819,0.8368,0.8368,0.8268,0.8055,0.745,0.7187,0.7025,0.7085,0.7085,0.7085,0.7085,0.7144,0.7203,0.7085,0.7025,0.7085,0.7203,0.7263,0.7311,0.7467,0.7467,0.7467,0.7467,0.7467,0.7467,0.7467,0.7467,0.7467,0.7467,0.7467,0.7467,0.7408,0.7408,0.7139,0.6534,0.5991,0.5285,0.4249,0.4353,0.4463,0.4463,0.4301,0.4245,0.4463,0.4301,0.3913,0.3246,0.2293,0.1455,0.0842,0.0842,0.0842,0.0842,0.0505,0.0224,-0.7672,-0.861,-0.9403,-0.9353,-0.7134,0.0,0.0,-0.321,-0.2605,0.1433,-0.1768,0.0,0.0,0.0,-0.2578,0.0659,-0.2098,-0.4952,-0.581,-0.4076,-0.3113,-0.4095,-0.3518,-0.3183,-0.3478,-0.3487,-0.332,-0.287,-0.2823,-0.2773,-0.2677,-0.2235,-0.188,-0.1569,-0.1031,-0.0493,0.0135,0.1299,0.2237,0.2948,0.3581,0.4168,0.4716,0.4923,0.54,0.615,0.6427,0.6997,0.7753,0.7961,0.8261,0.8646,0.885,0.8988,0.9079,0.8928,0.9093,0.9368,0.9204,0.9047,0.8844,0.8302,0.8043,0.7836,0.7461,0.7354,0.7354,0.7354,0.7359,0.7419,0.7257,0.7306,0.7359,0.7413,0.7419,0.7413,0.7467,0.7521,0.7521,0.7521,0.7521,0.7521,0.7616,0.7622,0.7622,0.7622,0.7622,0.7456,0.7025,0.6918,0.675,0.6253,0.5769,0.5171,0.4463,0.4463,0.4519,0.4519,0.4408,0.4411,0.4519,0.4408,0.3907,0.2961,0.2569,0.1902,0.0898,0.0898,0.0898,0.0898,0.0785,0.0673,-0.9288,-1.033,-1.1388,-1.2731,0.0,0.0,-0.9521,-0.9494,-0.8135,-0.1629,-0.1608,-0.2097,0.0188,0.0,0.0,0.0,-0.4077,-0.6609,-0.565,-0.4217,-0.336,-0.3643,-0.3034,-0.2877,-0.3599,-0.3272,-0.304,-0.3182,-0.2821,-0.2726,-0.3034,-0.2322,-0.1923,-0.2105,-0.1567,-0.1031,-0.0494,0.1118,0.2366,0.3255,0.4224,0.4821,0.5088,0.5636,0.6088,0.648,0.6936,0.7465,0.7976,0.8254,0.867,0.9211,0.9361,0.9666,0.9925,0.9725,0.9888,1.0154,0.994,0.9725,0.9458,0.9093,0.8732,0.8321,0.7889,0.7628,0.7521,0.7521,0.7515,0.7515,0.7467,0.7467,0.7515,0.7568,0.7568,0.7568,0.7628,0.7628,0.7628,0.7628,0.7628,0.7681,0.7729,0.7783,0.7783,0.7783,0.7783,0.7568,0.7079,0.6864,0.6534,0.5873,0.5496,0.5062,0.4574,0.4519,0.4519,0.4519,0.4519,0.4519,0.4519,0.4519,0.3959,0.2736,0.2681,0.2125,0.0898,0.0898,0.0898,0.0898,0.0898,0.0898,-0.9703,-1.092,-1.2468,0.0,0.0,0.0,-1.7595,-1.6402,-1.3577,-0.8786,0.0487,0.5964,0.0135,0.2812,0.0,0.026,-0.4025,-0.5854,-0.3229,-0.3594,-0.3703,-0.2564,-0.2783,-0.3074,-0.3129,-0.2497,-0.2366,-0.2946,-0.2366,-0.2319,-0.3117,-0.2055,-0.1744,-0.241,-0.2105,-0.1524,-0.0716,0.1023,0.2487,0.3653,0.4918,0.5356,0.5048,0.5696,0.6118,0.6349,0.7026,0.7596,0.8133,0.8665,0.9314,1.0012,1.0012,1.0079,1.0205,1.0205,1.0308,1.0522,1.0522,1.0198,0.9814,0.9814,0.9145,0.8421,0.8421,0.7996,0.7521,0.7521,0.7622,0.7723,0.7723,0.7622,0.7515,0.767,0.7723,0.7723,0.7848,0.7901,0.7901,0.7901,0.7901,0.7901,0.7901,0.7901,0.7901,0.7901,0.7901,0.7901,0.7901,0.7413,0.6642,0.5441,0.5277,0.5062,0.4574,0.4519,0.4519,0.4519,0.4519,0.4519,0.4519,0.4519,0.3959,0.2736,0.2681,0.2125,0.0898,0.0898,0.0898,0.0898,0.0898,0.0898,-1.0138,-1.1676,0.0,-1.4833,0.0,0.0,0.0,-1.5249,0.0,0.0,-0.8505,-0.3334,-0.3718,-0.5971,0.0,-0.2636,-0.4946,-0.6795,-0.5571,-0.0949,0.1942,0.0938,0.1634,0.1891,0.1239,-0.1197,-0.2724,-0.2637,-0.2635,-0.1487,0.1102,-0.0716,-0.068,0.1833,-0.11,-0.2422,-0.171,0.1321,0.3662,0.5296,0.6044,0.6192,0.5873,0.6392,0.6774,0.7076,0.7327,0.7802,0.8453,0.9152,0.978,1.0293,1.0352,1.0557,1.0812,1.0616,1.0718,1.0922,1.0726,1.0659,1.06,0.9769,0.951,0.9347,0.8527,0.8109,0.7955,0.7848,0.7794,0.7842,0.7842,0.7788,0.7788,0.7842,0.7842,0.7842,0.7901,0.7901,0.7901,0.7901,0.7901,0.7901,0.7901,0.7901,0.7901,0.7901,0.7901,0.7788,0.7413,0.681,0.6154,0.5386,0.5277,0.5062,0.4574,0.4519,0.4519,0.4519,0.4519,0.4519,0.4519,0.4519,0.3959,0.2736,0.2681,0.2125,0.0898,0.0898,0.0898,0.0898,0.0898,0.0898,-1.0428,-1.183,0.0,-1.4923,-1.5904,-1.5194,-1.0222,0.0,0.0,0.0,-0.795,-0.3762,-0.636,-0.794,0.0,-0.1971,-0.409,-0.4908,-0.0684,0.2589,0.4723,0.5175,0.5852,0.5977,0.5104,0.195,0.0463,0.1709,0.0695,0.1548,0.5086,0.3621,0.2977,0.3673,0.093,-0.0373,0.0043,0.2213,0.4833,0.7881,0.8076,0.7883,0.7356,0.7273,0.7419,0.7802,0.7997,0.8496,0.9225,0.9842,1.0434,1.0913,1.0964,1.1124,1.1326,1.1175,1.1226,1.1326,1.1175,1.1226,1.1217,1.0541,1.0174,0.9865,0.9099,0.8527,0.8168,0.7955,0.7901,0.7901,0.8008,0.7955,0.7901,0.7901,0.7901,0.7901,0.7901,0.7901,0.7901,0.7901,0.7901,0.7901,0.7901,0.7901,0.7901,0.7901,0.7741,0.73,0.648,0.6046,0.5605,0.5062,0.5007,0.4842,0.4515,0.4519,0.4519,0.4519,0.4519,0.4405,0.4128,0.4128,0.3683,0.2736,0.2458,0.1846,0.0898,0.0898,0.0898,0.0898,0.0898,0.0898,-1.0458,-1.1432,-1.258,-1.4194,-1.4085,0.0,-0.7836,-0.1746,0.0989,-0.598,0.0,0.0997,-0.7653,-0.5325,-0.148,0.0482,-0.2111,-0.1194,0.7809,0.66,0.6165,0.981,0.9936,0.947,0.8803,0.6367,0.5812,0.8221,0.6199,0.609,0.9021,0.9573,0.8191,0.467,0.4083,0.368,0.3353,0.3873,0.6415,1.0856,1.0511,0.9962,0.9239,0.8292,0.8077,0.8512,0.8869,0.9481,1.0228,1.0561,1.1085,1.1674,1.171,1.1728,1.1719,1.1728,1.1728,1.1728,1.1728,1.1728,1.1719,1.1678,1.0897,1.0012,0.9814,0.9047,0.8221,0.8008,0.7955,0.8008,0.8168,0.8062,0.7955,0.7955,0.7955,0.7901,0.7901,0.7901,0.7901,0.7901,0.7901,0.7901,0.7901,0.7901,0.7901,0.7848,0.73,0.6534,0.5441,0.5281,0.5062,0.4574,0.4519,0.4519,0.4519,0.4519,0.4519,0.4519,0.4519,0.4239,0.3627,0.3624,0.3292,0.2625,0.2069,0.1512,0.0898,0.0898,0.0898,0.0898,0.0898,0.0898,-0.9359,-1.0447,0.0,-1.207,-0.6106,0.1083,0.5792,1.1379,1.1907,-0.107,-0.3367,-0.3751,-0.6101,-0.6249,-0.5212,-0.2823,-0.1077,0.1148,0.451,0.9767,1.3326,1.3465,1.3683,1.3762,1.3603,1.0208,0.8362,0.9175,0.8591,0.9736,1.3348,1.1215,1.072,1.2556,0.9463,0.6503,0.3874,0.7377,1.0182,0.0,1.1793,1.1246,1.0568,0.9612,0.9142,0.9065,0.9394,0.9825,1.0306,1.0695,1.114,1.1627,1.18,1.1927,1.1977,1.1877,1.1877,1.1877,1.1877,1.1877,1.1778,1.1377,1.0795,1.021,0.9666,0.9047,0.8474,0.8315,0.8321,0.8321,0.8321,0.8321,0.8321,0.8321,0.8215,0.8115,0.8115,0.8115,0.8115,0.7955,0.7901,0.7901,0.7901,0.7901,0.7741,0.7354,0.6372,0.5605,0.5332,0.4952,0.4625,0.4519,0.4519,0.4519,0.4519,0.4519,0.4519,0.4519,0.4519,0.4239,0.3627,0.3624,0.307,0.2014,0.1846,0.1512,0.0898,0.0898,0.0898,0.0898,0.0898,0.0898,-0.935,0.0,0.0,-0.9807,0.0,0.5982,0.863,1.4212,1.626,0.7202,0.2898,0.0602,0.0175,-0.1487,-0.09,0.4844,0.5524,0.6797,1.104,1.4101,1.6289,1.7304,1.7618,1.7721,1.7721,1.4205,1.2735,1.4676,1.305,1.3606,1.7386,1.5851,1.4923,1.5046,1.2629,1.0477,0.8609,1.0374,1.2126,1.3742,1.3459,1.2758,1.1729,1.0598,0.9864,0.9496,0.9753,1.0168,1.0736,1.0941,1.1444,1.2024,1.2141,1.2224,1.2274,1.2224,1.2126,1.2076,1.2076,1.2026,1.1927,1.1678,1.1049,1.0312,0.9917,0.9249,0.8573,0.8421,0.8421,0.8421,0.8474,0.8421,0.8421,0.8533,0.8427,0.8321,0.8321,0.8221,0.8168,0.8062,0.7955,0.7794,0.7574,0.7359,0.6977,0.649,0.5832,0.534,0.4956,0.468,0.4519,0.4519,0.4519,0.4519,0.4519,0.4519,0.4519,0.4519,0.4239,0.3793,0.3181,0.2903,0.2458,0.179,0.1512,0.1233,0.0898,0.0898,0.0898,0.0898,0.0898,0.0898,-0.9455,0.0,-0.9152,-0.6608,0.018,0.0,0.8117,1.3201,1.7019,1.4937,1.1164,0.7996,0.7185,0.4976,0.5861,1.3679,1.2424,1.2571,1.8675,1.7866,1.7637,2.0247,2.0591,2.0594,2.0578,1.7825,1.7316,2.0359,1.7726,1.7282,2.0327,2.0395,1.8973,1.6036,1.5328,1.4824,1.4476,1.3467,1.3713,1.5183,1.4809,1.3966,1.2696,1.1494,1.0649,1.0088,1.0088,1.0519,1.1228,1.1295,1.1794,1.2522,1.255,1.2578,1.2578,1.2529,1.2431,1.2323,1.2332,1.2224,1.2126,1.2026,1.1301,1.0415,1.021,0.9451,0.8633,0.848,0.848,0.848,0.8633,0.8527,0.8533,0.8752,0.8639,0.8474,0.8421,0.8321,0.8275,0.8221,0.8115,0.7842,0.7408,0.6815,0.6273,0.5837,0.5618,0.5234,0.4629,0.457,0.457,0.457,0.457,0.457,0.457,0.4574,0.4519,0.4408,0.3904,0.3292,0.2569,0.2068,0.1734,0.1623,0.1177,0.0898,0.0898,0.0898,0.0898,0.0898,0.0898,0.0898,-0.8409,0.0,-0.6484,0.0,0.2627,0.5837,0.0,0.0,1.5785,0.0,1.4592,1.2167,0.9999,0.8988,0.9174,1.1229,1.2604,1.4116,1.6111,1.8318,1.9887,2.0369,2.0525,2.0579,2.0527,2.0115,2.0053,2.0477,2.0109,2.0018,2.0382,2.0448,2.0224,1.9696,1.9476,1.8933,1.8035,1.7526,1.6805,1.5859,1.4911,1.4025,1.32,1.2602,1.1945,1.1255,1.0736,1.0825,1.1398,1.1697,1.2103,1.2603,1.2773,1.2832,1.2832,1.2578,1.248,1.248,1.2323,1.2382,1.2323,1.1778,1.1099,1.0466,1.0012,0.9361,0.8752,0.8752,0.8752,0.8752,0.8752,0.8752,0.8752,0.8804,0.8752,0.8692,0.8573,0.8573,0.8521,0.8368,0.8374,0.8315,0.8262,0.7289,0.6534,0.648,0.5609,0.4952,0.4846,0.4842,0.4842,0.4842,0.4842,0.4842,0.4842,0.4739,0.4463,0.3907,0.3683,0.307,0.1958,0.1846,0.1568,0.1009,0.0954,0.0898,0.0898,0.0898,0.0898,0.0898,0.0898,0.0898,-0.7361,-0.6687,-0.4952,0.0,0.2901,0.617,1.0577,1.2948,1.4579,1.5901,1.549,1.4845,1.4772,1.3521,1.3186,1.5173,1.6366,1.7269,1.7952,1.9279,2.0255,2.0437,2.0516,2.0558,2.0561,2.0584,2.0585,2.0564,2.0585,2.0552,2.046,2.0448,2.0405,2.0289,2.0077,1.971,1.9147,1.8503,1.7378,1.5892,1.518,1.447,1.3729,1.3327,1.2672,1.1752,1.1094,1.1467,1.2481,1.2066,1.2481,1.3367,1.313,1.3027,1.2988,1.2783,1.2676,1.2578,1.2529,1.2323,1.1977,1.1728,1.0947,1.0115,0.9865,0.9309,0.8804,0.8804,0.8804,0.8804,0.8804,0.8804,0.8804,0.8804,0.8804,0.8804,0.8745,0.8633,0.8573,0.8421,0.783,0.745,0.7557,0.6583,0.5778,0.5778,0.534,0.5011,0.4901,0.4897,0.4897,0.4897,0.4897,0.4897,0.4897,0.4632,0.4245,0.3852,0.3183,0.2516,0.1846,0.1456,0.1177,0.0898,0.0898,0.0898,0.0898,0.0898,0.0898,0.0898,0.0898,0.0898,0.0,0.0,-0.3362,-0.0746,0.2938,0.6599,0.0,0.0,1.395,0.0,1.6271,1.6976,1.8358,1.7135,1.6615,1.8785,1.9284,1.9473,1.9777,1.9992,2.02,2.0395,2.0461,2.0516,2.0564,2.0578,2.0585,2.0603,2.0583,2.0551,2.0495,2.0446,2.0366,2.0229,2.0022,1.9755,1.9448,1.8464,1.7279,1.5894,1.5477,1.4935,1.4259,1.3907,1.3281,1.2461,1.1667,1.2091,1.3294,1.2434,1.2815,1.3854,1.3324,1.312,1.3113,1.2978,1.2881,1.2735,1.2578,1.2175,1.1769,1.1418,1.0643,0.9814,0.9666,0.9256,0.8804,0.8804,0.8804,0.8804,0.8804,0.8804,0.8804,0.8804,0.8804,0.8804,0.8804,0.8745,0.858,0.8315,0.7557,0.6912,0.6966,0.61,0.5395,0.5395,0.5234,0.5128,0.5014,0.5011,0.5011,0.5011,0.5011,0.5011,0.5011,0.4577,0.4135,0.3796,0.2796,0.2015,0.168,0.1177,0.0898,0.0898,0.0898,0.0898,0.0898,0.0898,0.0898,0.0898,0.0898,0.0898,0.0,-0.3503,0.0,0.0723,0.3597,0.6635,0.0,0.0,1.434,1.6716,1.793,1.8688,1.9159,1.8946,1.8806,1.9139,1.925,1.9434,1.9851,2.0069,2.0188,2.0204,2.0376,2.0509,2.0503,2.0503,2.0539,2.0589,2.054,2.0501,2.0499,2.0511,2.0429,2.0302,2.0227,1.9903,1.9318,1.7986,1.6954,1.6176,1.5711,1.5224,1.4732,1.4292,1.4019,1.3822,1.2719,1.2647,1.3291,1.278,1.3018,1.3685,1.3239,1.3135,1.318,1.3123,1.2978,1.2783,1.2175,1.1977,1.1868,1.0659,1.0131,0.9917,0.9361,0.9008,0.8804,0.8804,0.8804,0.8804,0.8804,0.8804,0.8804,0.8804,0.8804,0.8804,0.8804,0.8804,0.8639,0.8037,0.7871,0.7664,0.7187,0.6534,0.6154,0.6154,0.5673,0.5297,0.5297,0.5297,0.5297,0.5297,0.5297,0.5297,0.5297,0.4794,0.4239,0.3627,0.274,0.1961,0.1346,0.1066,0.0898,0.0898,0.0898,0.0898,0.0898,0.0898,0.0898,0.0898,0.0898,0.0898,-0.5015,0.0,0.0,0.108,0.3308,0.5761,0.9211,1.1451,1.3573,1.6242,1.7457,1.8265,1.8915,1.8753,1.8548,1.8622,1.8698,1.8928,1.9331,1.9518,1.973,2.0037,2.0218,2.0318,2.0371,2.0441,2.0515,2.0536,2.0507,2.0501,2.0499,2.0458,2.0365,2.0242,2.0214,1.9882,1.9176,1.8235,1.7369,1.659,1.6004,1.5419,1.4808,1.4483,1.4214,1.3986,1.3689,1.3766,1.4012,1.3003,1.3218,1.4079,1.3375,1.3207,1.3324,1.3162,1.3085,1.2978,1.2627,1.2332,1.1968,1.1108,1.0541,1.0012,0.9413,0.9061,0.8903,0.8804,0.8804,0.8804,0.8804,0.8804,0.8804,0.8804,0.8804,0.8804,0.8804,0.848,0.8143,0.7925,0.7331,0.6745,0.6534,0.6,0.5618,0.5618,0.5458,0.5297,0.5297,0.5297,0.5297,0.5297,0.5077,0.4912,0.4912,0.4245,0.3633,0.3183,0.2404,0.1736,0.1291,0.1066,0.0898,0.0898,0.0898,0.0898,0.0898,0.0898,0.0898,0.0898,0.0898,0.0898,-0.5198,-0.371,0.0,0.0,0.3052,0.5485,0.8519,1.0805,1.2933,1.5174,1.6265,1.7001,1.7585,1.7665,1.7774,1.8266,1.8385,1.8569,1.9057,1.9291,1.955,1.9926,2.0104,2.0231,2.0286,2.0402,2.0499,2.0533,2.0508,0.0,2.0494,2.0444,2.0314,2.0134,2.0041,1.9705,1.907,1.8387,1.7708,1.6963,1.6235,1.5608,1.5088,1.4735,1.4452,1.4227,1.4337,1.4319,1.4175,1.3192,1.3248,1.3887,1.3249,1.3115,1.3168,1.314,1.3104,1.3113,1.2774,1.2421,1.2017,1.141,1.0736,1.0115,0.9658,0.9309,0.9061,0.8956,0.8956,0.891,0.8857,0.8857,0.8857,0.8804,0.8857,0.8798,0.8533,0.8203,0.7871,0.7664,0.6853,0.6154,0.5941,0.5567,0.5297,0.5297,0.5297,0.5297,0.5297,0.5297,0.5297,0.5297,0.4967,0.4691,0.4691,0.3913,0.3302,0.3074,0.2348,0.1792,0.1457,0.1178,0.101,0.0898,0.0898,0.0898,0.0898,0.0898,0.0898,0.0898,0.0898,0.0898,0.0,0.0,0.0,0.0,0.0,0.0,0.75,0.0,1.2568,1.3668,1.4553,1.5153,1.526,1.5799,1.6699,1.8093,1.8246,1.8439,1.9095,1.9415,1.9676,1.9866,2.0078,2.0217,2.0288,2.0357,2.046,2.0585,2.0542,2.0507,2.0497,2.042,2.0277,2.0021,1.9731,1.9411,1.9008,1.8479,1.7915,1.7292,1.638,1.5838,1.5681,1.5088,1.4763,1.4683,1.4547,1.4241,1.3775,1.3378,1.3118,1.2985,1.294,1.2882,1.2853,1.3104,1.3208,1.3122,1.2363,1.2166,1.2107,1.1401,1.0736,1.0218,1.0167,0.971,0.9211,0.9211,0.9211,0.9159,0.9008,0.9008,0.8956,0.8857,0.891,0.8791,0.8037,0.7871,0.7717,0.7187,0.6593,0.5996,0.5407,0.5297,0.5297,0.5297,0.5297,0.5297,0.5297,0.5297,0.5297,0.5297,0.4912,0.4688,0.4691,0.3858,0.3357,0.3357,0.2631,0.2071,0.179,0.1457,0.1178,0.0898,0.0898,0.0898,0.0898,0.0898,0.0898,0.0898,0.0898,0.0898,-0.5885,0.0,0.0,0.0,0.0,0.0,0.0,0.0,1.1635,1.3342,1.466,1.5327,1.4635,1.4733,1.5248,1.6225,1.7482,1.8491,1.8912,1.9159,1.9429,1.9781,1.9953,2.012,2.0276,2.0355,2.0437,0.0,2.0518,2.0508,2.0505,2.0332,2.0204,2.0077,1.976,1.9472,1.9225,1.8735,1.8159,1.7512,1.6962,1.6305,1.5623,1.5419,1.5029,1.4547,1.4655,1.4433,1.3914,1.3399,1.3011,1.2753,1.3022,1.3012,1.2934,1.3445,1.3515,1.3276,1.2958,1.2832,1.2676,1.156,1.1049,1.0736,0.9865,0.951,0.9316,0.9113,0.9061,0.9008,0.891,0.8857,0.8857,0.8811,0.8804,0.8692,0.8037,0.761,0.7133,0.6534,0.5941,0.5513,0.5352,0.5297,0.5297,0.5297,0.5297,0.5297,0.5297,0.5297,0.5187,0.4912,0.4467,0.4079,0.3802,0.3246,0.2914,0.2914,0.2464,0.2071,0.179,0.1457,0.1178,0.0898,0.0898,0.0898,0.0898,0.0898,0.0898,0.0898,0.0898,0.0898,-0.6501,-0.5435,-0.3991,0.0,0.0,0.0,0.4378,0.6704,0.8894,0.0,1.1763,1.2414,1.2223,1.2667,1.3173,1.3495,1.496,1.6744,1.8669,1.9148,1.939,1.9682,1.9931,2.0122,2.0246,2.0344,2.0433,2.0483,2.0495,2.0508,2.0503,2.0366,2.0238,2.0129,1.9828,1.9553,1.9328,1.8894,1.8395,1.7837,1.7342,1.6735,1.613,1.5695,1.5285,1.4907,1.4825,1.4465,1.3921,1.3488,1.302,1.2623,1.2709,1.2795,1.2832,1.3221,1.3408,1.3467,1.3172,1.2968,1.2657,1.1859,1.1259,1.0753,1.0035,0.9673,0.9465,0.9211,0.9113,0.9008,0.8956,0.8738,0.8474,0.8421,0.8315,0.799,0.7337,0.6966,0.6647,0.6263,0.5727,0.5297,0.5297,0.5297,0.5297,0.5297,0.5297,0.5297,0.5297,0.5297,0.5187,0.4967,0.4356,0.3965,0.3968,0.319,0.2802,0.297,0.2633,0.2296,0.1959,0.1793,0.1569,0.1288,0.1122,0.101,0.0898,0.0898,0.0898,0.0898,0.0898,0.0898,-0.7502,-0.6647,-0.5477,0.0,0.0,0.0,0.1466,0.3445,0.5309,0.0,0.7512,0.8082,0.8973,1.007,1.0844,1.0703,1.1737,1.3899,1.7783,1.8516,1.8802,1.9213,1.9562,1.9894,2.0178,2.0324,2.0433,2.0483,2.0516,2.0507,2.0499,2.0434,2.0332,2.02,1.9903,1.9632,1.9392,1.9012,1.8606,1.8187,1.7574,1.7126,1.6834,1.5991,1.5565,1.5448,1.5041,1.4497,1.3934,1.3589,1.3101,1.2544,1.2323,1.2384,1.2616,1.2772,1.3181,1.3525,1.3162,1.2745,1.2365,1.2008,1.1217,1.0403,1.0352,0.9984,0.9562,0.9413,0.9211,0.9008,0.9113,0.8672,0.8131,0.8031,0.7717,0.7289,0.6529,0.6367,0.6372,0.6209,0.5727,0.5297,0.5297,0.5297,0.5297,0.5297,0.5297,0.5297,0.5297,0.5297,0.5297,0.5242,0.4522,0.4245,0.4581,0.3524,0.3023,0.3413,0.3079,0.2689,0.2294,0.2294,0.2127,0.179,0.1513,0.1234,0.0954,0.0898,0.0898,0.0898,0.0898,0.0898,-0.7988,-0.7482,0.0,0.0,0.0,0.0,-0.0229,0.1752,0.3538,0.0,0.6439,0.7287,0.7432,0.8171,0.9163,1.0347,1.0776,1.1666,1.378,1.4084,1.4845,1.6854,1.7165,1.8024,2.0076,2.0354,2.0435,2.0482,2.0542,2.0554,2.0506,2.0434,2.0334,2.0203,2.0021,1.9775,1.9392,1.9123,1.8699,1.8187,1.7805,1.7304,1.6747,1.6432,1.5994,1.5418,1.5208,1.4763,1.4189,1.3934,1.3204,1.2293,1.246,1.2557,1.2659,1.3038,1.3376,1.3515,1.2774,1.2472,1.2218,1.1099,1.06,1.03,0.9873,0.9666,0.9562,0.9316,0.9113,0.8956,0.891,0.8745,0.8639,0.8639,0.8586,0.8315,0.7711,0.7551,0.7283,0.6372,0.5727,0.5297,0.5297,0.5297,0.5297,0.5297,0.5297,0.5297,0.5297,0.5297,0.5187,0.4853,0.4688,0.4467,0.4135,0.3913,0.3799,0.3858,0.3799,0.3463,0.2794,0.2738,0.246,0.179,0.1734,0.1569,0.1234,0.101,0.0898,0.0898,0.0898,0.0898,-0.8241,0.0,0.0,-0.6287,0.0,0.0,0.0,-0.0,0.1754,0.3291,0.4467,0.557,0.6635,0.7102,0.7583,0.8493,0.8824,0.9358,1.0539,1.2124,1.3684,1.5139,1.6199,1.732,1.8621,1.9756,2.0421,2.05,2.0527,2.055,2.0503,2.0463,2.0399,2.0289,2.0109,1.9884,1.9657,1.9269,1.8857,1.8395,1.8048,1.7608,1.7027,1.667,1.6188,1.5623,1.5344,1.4871,1.4268,1.3835,1.3216,1.252,1.2427,1.238,1.2472,1.2818,1.2976,1.2926,1.2541,1.207,1.1534,1.0702,1.0241,0.9932,0.9666,0.9562,0.9458,0.9361,0.9159,0.9008,0.891,0.8633,0.8368,0.8368,0.8156,0.7889,0.7563,0.7503,0.7343,0.6756,0.6376,0.6,0.5407,0.5567,0.5673,0.5352,0.5297,0.5297,0.5297,0.5297,0.5242,0.5022,0.4802,0.4688,0.4632,0.4245,0.4079,0.4356,0.4135,0.3855,0.3463,0.3463,0.3128,0.2348,0.2125,0.1847,0.1569,0.14,0.1177,0.0898,0.0898,0.0898,0.0,0.0,0.0,0.0,0.0,-0.4648,0.0,0.0,0.0,0.14,0.2468,0.0,0.0,0.0,0.0,0.0,0.0,0.0,0.0,1.08,0.0,1.3733,1.4995,1.6195,1.7226,1.918,2.0394,2.0469,2.0482,2.0499,2.0495,2.0497,2.0459,2.0408,2.0177,2.0003,1.9912,1.9465,1.9038,1.8589,1.8258,1.7854,1.7361,1.6799,1.6324,1.5879,1.5448,1.4887,1.4254,1.3722,1.3251,1.2861,1.2318,1.2152,1.2214,1.2401,1.2418,1.2375,1.2177,1.1621,1.0905,1.0395,0.9932,0.9614,0.9614,0.951,0.9413,0.9361,0.9211,0.9008,0.8956,0.8527,0.809,0.809,0.7723,0.7408,0.7295,0.7348,0.7354,0.7139,0.73,0.7031,0.5677,0.5887,0.5996,0.5407,0.5297,0.5297,0.5297,0.5297,0.5297,0.5297,0.5022,0.4967,0.5297,0.4632,0.4411,0.4798,0.4467,0.419,0.4135,0.4021,0.3744,0.3128,0.274,0.2406,0.2124,0.2068,0.168,0.1065,0.1009,0.0954,0.0,0.0,0.0,0.0,-0.6648,0.0,0.0,0.0,-0.1207,-0.0348,0.0,0.0,0.0,0.0,0.0,0.0,0.0,0.0,0.8529,0.8694,0.9662,1.2512,1.1782,1.2851,1.7382,1.9284,2.0286,2.0405,2.0478,2.0506,2.0502,2.0434,2.0402,2.0405,2.0301,2.0139,1.9899,1.9613,1.9158,1.8589,1.8258,1.781,1.7305,1.6917,1.6459,1.5879,1.558,1.5027,1.4268,1.3967,1.3467,1.2826,1.2102,1.2001,1.2171,1.2026,1.2139,1.2289,1.1433,1.1106,1.0846,0.9976,0.9666,0.9614,0.9614,0.9562,0.951,0.9316,0.9211,0.9106,0.891,0.8752,0.8699,0.8699,0.8646,0.848,0.7931,0.8209,0.8321,0.73,0.7889,0.8049,0.6372,0.6154,0.5996,0.5407,0.5297,0.5297,0.5297,0.5297,0.5297,0.5297,0.5246,0.5242,0.5297,0.5187,0.5187,0.5242,0.5187,0.4967,0.4632,0.4245,0.3965,0.3855,0.3799,0.3685,0.3403,0.2959,0.2404,0.1679,0.1401,0.1234,0.0,0.0,0.0,0.0,0.0,0.0,-0.4566,0.0,-0.2135,0.0,0.0,0.0,0.0,0.0,0.0,0.0,0.5672,0.0,0.0,0.0,0.8254,0.0,0.0,0.0,1.7263,1.8778,1.9688,2.0137,2.0302,2.0383,2.0385,2.0396,2.0379,2.0334,2.0301,2.0208,2.0012,1.9752,1.9397,1.8942,1.8459,1.8005,1.7566,1.7117,1.6549,1.5894,1.571,1.5104,1.4268,1.4013,1.3501,1.2861,1.2401,1.1934,1.1538,1.1696,1.1586,1.1305,1.1024,1.0836,1.0608,0.9821,0.9614,0.9614,0.9614,0.9614,0.9562,0.9361,0.9309,0.9256,0.9061,0.9008,0.9008,0.9008,0.8956,0.885,0.8573,0.8692,0.8646,0.8162,0.8209,0.7937,0.6918,0.6701,0.6376,0.5462,0.5297,0.5297,0.5297,0.5297,0.5297,0.5297,0.5297,0.5297,0.5297,0.5297,0.5297,0.5297,0.5297,0.5242,0.5077,0.4632,0.4411,0.4411,0.4135,0.3965,0.3852,0.3411,0.3019,0.2685,0.1737,0.1291,-0.8275,0.0,0.0,0.0,0.0,0.0,0.0,0.0,0.0,0.0,0.0,0.0,0.0,0.0,0.0,0.4036,0.0,0.5719,0.0,0.7011,0.0,0.0,0.0,0.0,0.0,1.7866,1.9113,1.996,2.0346,2.0666,2.0951,2.0776,2.0662,2.0629,2.0388,2.02,2.0105,1.9828,1.9516,1.917,1.8572,1.8115,1.7789,1.7216,1.6602,1.6006,1.5739,1.515,1.4351,1.3934,1.3421,1.2873,1.2508,1.1836,1.105,1.1397,1.1111,1.0596,1.0672,1.0564,1.0257,0.9777,0.9614,0.9614,0.9614,0.9614,0.9562,0.9465,0.9413,0.9361,0.9211,0.9211,0.9211,0.9211,0.9113,0.9008,0.885,0.885,0.8804,0.8639,0.8362,0.7984,0.7402,0.7187,0.6707,0.5462,0.5458,0.5458,0.5297,0.5297,0.5297,0.5297,0.5297,0.5297,0.5297,0.5297,0.5297,0.5297,0.5297,0.5297,0.5297,0.5022,0.4857,0.4857,0.4522,0.4356,0.4356,0.3968,0.3691,0.3524,0.2184,0.157,0.0,0.0,0.0,-0.6767,0.0,0.0,0.0,0.0,-0.373,0.0,0.0,0.0,0.0,0.0,0.1824,0.3029,0.3634,0.0,0.0,0.0,0.0,0.0,0.0,0.0,0.0,1.6504,1.8665,0.0,2.0765,2.1612,2.2566,2.1837,2.1411,2.1466,2.0587,2.0095,2.0093,1.9824,1.9499,1.9107,1.8572,1.8115,1.7789,1.7117,1.6607,1.6274,1.574,1.5165,1.4533,1.3742,1.3216,1.2861,1.233,1.1653,1.1019,1.1029,1.0815,1.0475,1.0268,1.0148,0.9947,0.9673,0.9614,0.9614,0.9614,0.9614,0.9562,0.9465,0.9413,0.9361,0.9211,0.9211,0.9211,0.9211,0.9211,0.9054,0.8527,0.8745,0.8844,0.8237,0.8468,0.8586,0.7984,0.745,0.6707,0.5462,0.5778,0.5941,0.5352,0.5297,0.5297,0.5297,0.5297,0.5297,0.5297,0.5297,0.5297,0.5297,0.5297,0.5297,0.5297,0.5297,0.5297,0.5297,0.5246,0.5246,0.5246,0.4853,0.4411,0.3968,0.274,0.2183,0.0,0.0,-0.6911,-0.6637,0.0,0.0,0.0,0.0,0.0,0.0,0.0,0.0,0.0,0.0,0.0439,0.1684,0.2633,0.3502,0.0,0.0,0.0,0.0,0.0,0.0,0.0,0.0,0.0,0.0,2.0005,0.0,2.1976,2.2047,2.1842,2.1321,2.1082,2.0652,1.9982,1.9797,1.9553,1.9283,1.8663,1.8197,1.7832,1.7224,1.6659,1.6151,1.5782,1.5136,1.4301,1.3907,1.3285,1.2615,1.2282,1.1799,1.1282,1.1094,1.0795,1.0503,1.0558,1.0293,0.9945,0.9864,0.9725,0.9614,0.9614,0.9614,0.9614,0.9562,0.951,0.951,0.9458,0.9465,0.9465,0.9465,0.9413,0.9256,0.9099,0.9106,0.9054,0.8883,0.8567,0.8296,0.8078,0.7818,0.7235,0.605,0.6046,0.5996,0.5352,0.5297,0.5297,0.5297,0.5297,0.5297,0.5297,0.5297,0.5297,0.5297,0.5297,0.5297,0.5297,0.5297,0.5297,0.5297,0.5297,0.5297,0.5297,0.4912,0.4467,0.3965,0.3299,0.2687,-0.6969,-0.6832,0.0,-0.6403,-0.6502,0.0,-0.5912,0.0,-0.4739,0.0,0.0,0.0,0.0,0.0,-0.0223,0.0624,0.1828,0.2898,0.0,0.4955,0.0,0.0,0.0,0.0,0.0,0.0,0.0,1.8336,1.9549,2.0825,0.0,2.2483,2.2444,2.214,2.1553,2.0991,2.0451,1.9863,1.9458,1.9191,1.8607,1.8132,1.7687,1.7109,1.6538,1.5981,1.5623,1.5031,1.4251,1.3809,1.3251,1.2615,1.221,1.1763,1.1292,1.0878,1.0497,1.0215,1.0375,1.021,0.9929,0.9987,0.9836,0.9614,0.9614,0.9614,0.9614,0.9614,0.9614,0.9614,0.9614,0.9614,0.9614,0.9614,0.951,0.9458,0.9458,0.9361,0.9256,0.9256,0.883,0.8508,0.8508,0.8402,0.7925,0.6696,0.6696,0.6583,0.6005,0.595,0.595,0.595,0.595,0.5841,0.5622,0.5618,0.5513,0.5301,0.5297,0.5297,0.5297,0.5297,0.5297,0.5297,0.5297,0.5297,0.5297,0.5022,0.4688,0.4245,0.3802,0.3244]},{"header":{"parameterUnit":"m.s-1","parameterCategory":1,"la1":30.6,"la2":29.2853,"lo1":-89.7004,"lo2":-87.6739,"dy":0.0162,"dx":0.0183,"nx":112,"ny":82,"refTime":"2024-09-27T06:00:00:Z","depth":0,"parameterNumber":3,"parameterNumberName":"V-component_of_WINDS"},"data":[0.0,0.0,0.0,0.0,0.0,0.0,0.0,0.0,0.0,0.0,0.0,0.0,0.0,0.0,0.0,0.0,0.0,0.0,0.0,0.0,0.0,0.0,0.0,0.0,0.0,0.0,0.0,0.0,0.0,0.0,0.0,0.0,0.0,0.0,0.0,0.0,0.0,0.0,0.0,0.0,0.0,0.0,0.0,0.0,0.0,0.0,0.0,0.0,0.0,0.0,0.0,0.0,0.0,0.0,0.0,0.0,0.0,0.0,0.0,0.0,0.0,0.0,0.0,0.0,0.0,0.0,0.0,0.0,0.0,0.0,0.0,0.0,0.0,0.0,0.0,0.0,0.0,0.0,0.0,0.0,0.0,0.0,0.0,0.0,0.0,0.0,0.0,0.0,0.0,0.0,-2.6171,-2.5868,-2.4079,-2.3278,-2.4111,-2.4321,-2.4386,-2.4551,0.0,0.0,0.0,0.0,0.0,0.0,0.0,0.0,0.0,0.0,0.0,0.0,0.0,0.0,0.0,0.0,0.0,0.0,0.0,0.0,0.0,0.0,0.0,0.0,0.0,0.0,0.0,0.0,0.0,0.0,0.0,0.0,0.0,0.0,0.0,0.0,0.0,0.0,0.0,0.0,0.0,0.0,0.0,0.0,0.0,0.0,0.0,0.0,0.0,0.0,0.0,0.0,0.0,0.0,0.0,0.0,0.0,0.0,0.0,0.0,0.0,0.0,0.0,0.0,0.0,0.0,0.0,0.0,0.0,0.0,0.0,0.0,0.0,0.0,0.0,0.0,0.0,0.0,0.0,0.0,0.0,0.0,0.0,0.0,0.0,0.0,0.0,0.0,0.0,0.0,0.0,0.0,0.0,0.0,0.0,0.0,0.0,0.0,0.0,0.0,0.0,0.0,0.0,0.0,-2.4283,-2.4164,-2.3167,-2.2837,-2.3646,-2.4292,-2.4393,-2.3885,0.0,0.0,0.0,0.0,0.0,0.0,0.0,0.0,0.0,0.0,0.0,0.0,0.0,0.0,0.0,0.0,0.0,0.0,0.0,0.0,0.0,0.0,0.0,0.0,0.0,0.0,0.0,0.0,0.0,0.0,0.0,0.0,0.0,0.0,0.0,0.0,0.0,0.0,0.0,0.0,0.0,0.0,0.0,0.0,0.0,0.0,0.0,0.0,0.0,0.0,0.0,0.0,0.0,0.0,0.0,0.0,0.0,0.0,0.0,0.0,0.0,0.0,0.0,0.0,0.0,0.0,0.0,0.0,0.0,0.0,0.0,0.0,0.0,0.0,0.0,0.0,0.0,0.0,0.0,0.0,0.0,0.0,0.0,0.0,0.0,0.0,0.0,0.0,0.0,0.0,0.0,0.0,0.0,0.0,0.0,0.0,0.0,0.0,0.0,0.0,0.0,0.0,0.0,-2.4423,-2.3778,-2.3781,-2.2948,-2.2592,-2.3185,-2.4137,-2.4297,-2.3371,-2.3886,0.0,0.0,0.0,0.0,0.0,0.0,0.0,0.0,0.0,0.0,0.0,0.0,0.0,0.0,0.0,0.0,0.0,0.0,0.0,0.0,0.0,0.0,0.0,0.0,0.0,0.0,0.0,0.0,0.0,0.0,0.0,0.0,0.0,0.0,0.0,0.0,0.0,0.0,0.0,0.0,0.0,0.0,0.0,0.0,0.0,0.0,0.0,0.0,0.0,0.0,0.0,0.0,0.0,0.0,0.0,0.0,0.0,0.0,0.0,0.0,0.0,0.0,0.0,0.0,0.0,0.0,0.0,0.0,0.0,0.0,0.0,0.0,0.0,0.0,0.0,0.0,0.0,0.0,0.0,0.0,0.0,0.0,0.0,0.0,0.0,0.0,0.0,0.0,0.0,0.0,0.0,0.0,0.0,0.0,0.0,0.0,0.0,0.0,0.0,0.0,0.0,0.0,-2.4642,-2.4042,-2.3817,-2.3047,-2.2726,-2.3138,-2.4019,-2.4162,-2.3253,-2.3348,0.0,0.0,0.0,0.0,0.0,0.0,0.0,0.0,0.0,0.0,0.0,0.0,0.0,0.0,0.0,0.0,0.0,0.0,0.0,0.0,0.0,0.0,0.0,0.0,0.0,0.0,0.0,0.0,0.0,0.0,0.0,0.0,0.0,0.0,0.0,0.0,0.0,0.0,0.0,0.0,0.0,0.0,0.0,0.0,0.0,0.0,0.0,0.0,0.0,0.0,0.0,0.0,0.0,0.0,0.0,0.0,0.0,0.0,0.0,0.0,0.0,0.0,0.0,0.0,0.0,0.0,0.0,0.0,0.0,0.0,0.0,0.0,0.0,0.0,0.0,0.0,0.0,0.0,0.0,0.0,0.0,0.0,0.0,0.0,0.0,0.0,0.0,0.0,0.0,0.0,0.0,0.0,0.0,0.0,0.0,0.0,0.0,0.0,0.0,0.0,0.0,0.0,-2.4807,-2.5112,-2.4104,-2.3306,-2.3198,-2.3956,-2.4016,-2.3999,-2.3858,-2.2787,0.0,0.0,0.0,0.0,0.0,0.0,0.0,0.0,0.0,0.0,0.0,0.0,0.0,0.0,0.0,0.0,0.0,0.0,0.0,0.0,0.0,0.0,0.0,0.0,0.0,0.0,0.0,0.0,0.0,0.0,0.0,0.0,0.0,0.0,0.0,0.0,0.0,0.0,0.0,0.0,0.0,0.0,0.0,0.0,0.0,0.0,0.0,0.0,0.0,0.0,0.0,0.0,0.0,0.0,0.0,0.0,0.0,0.0,0.0,0.0,0.0,0.0,0.0,0.0,0.0,0.0,0.0,0.0,0.0,0.0,0.0,0.0,0.0,0.0,0.0,0.0,0.0,0.0,0.0,0.0,0.0,0.0,0.0,0.0,0.0,0.0,0.0,0.0,0.0,0.0,0.0,0.0,0.0,0.0,0.0,0.0,0.0,0.0,0.0,0.0,0.0,0.0,-2.4234,-2.4403,-2.4041,-2.3367,-2.3059,-2.3449,-2.3819,-2.3644,-2.2756,0.0,0.0,0.0,0.0,0.0,0.0,0.0,0.0,0.0,0.0,0.0,0.0,0.0,0.0,0.0,0.0,0.0,0.0,0.0,0.0,0.0,0.0,0.0,0.0,0.0,0.0,0.0,0.0,0.0,0.0,0.0,0.0,0.0,0.0,0.0,0.0,0.0,0.0,0.0,0.0,0.0,0.0,0.0,0.0,0.0,0.0,0.0,0.0,0.0,0.0,0.0,0.0,0.0,0.0,0.0,0.0,0.0,0.0,0.0,0.0,0.0,0.0,0.0,0.0,0.0,0.0,0.0,0.0,0.0,0.0,0.0,0.0,0.0,0.0,0.0,0.0,0.0,0.0,0.0,0.0,0.0,0.0,0.0,0.0,0.0,0.0,0.0,0.0,0.0,0.0,0.0,0.0,0.0,0.0,0.0,0.0,0.0,0.0,0.0,0.0,0.0,0.0,-2.3703,-2.4081,-2.424,-2.43,-2.3495,-2.3076,-2.3349,-2.3568,-2.3197,-2.2072,0.0,0.0,0.0,0.0,0.0,0.0,0.0,0.0,0.0,0.0,0.0,0.0,0.0,0.0,0.0,0.0,0.0,0.0,0.0,0.0,0.0,0.0,0.0,0.0,0.0,0.0,0.0,0.0,0.0,0.0,0.0,0.0,0.0,0.0,0.0,0.0,0.0,0.0,0.0,0.0,0.0,0.0,0.0,0.0,0.0,0.0,0.0,0.0,0.0,0.0,0.0,0.0,0.0,0.0,0.0,0.0,0.0,0.0,0.0,0.0,0.0,0.0,0.0,0.0,0.0,0.0,0.0,0.0,0.0,0.0,0.0,0.0,0.0,0.0,0.0,0.0,0.0,0.0,0.0,0.0,0.0,0.0,0.0,0.0,0.0,0.0,0.0,0.0,0.0,0.0,0.0,0.0,0.0,0.0,0.0,0.0,0.0,0.0,0.0,0.0,0.0,0.0,-2.3648,-2.4424,-2.4909,-2.4909,-2.3832,-2.331,-2.396,-2.3395,-2.272,0.0,0.0,0.0,0.0,0.0,0.0,0.0,0.0,0.0,0.0,0.0,0.0,0.0,0.0,0.0,0.0,0.0,0.0,0.0,0.0,0.0,0.0,0.0,0.0,0.0,0.0,0.0,0.0,0.0,0.0,0.0,0.0,0.0,0.0,0.0,0.0,0.0,0.0,0.0,0.0,0.0,0.0,0.0,0.0,0.0,0.0,0.0,0.0,0.0,0.0,0.0,0.0,0.0,0.0,0.0,0.0,0.0,0.0,0.0,0.0,0.0,0.0,0.0,0.0,0.0,0.0,0.0,0.0,0.0,0.0,0.0,0.0,0.0,0.0,0.0,0.0,0.0,0.0,0.0,0.0,0.0,0.0,0.0,0.0,0.0,0.0,0.0,0.0,0.0,0.0,0.0,0.0,0.0,0.0,0.0,0.0,0.0,0.0,0.0,0.0,0.0,0.0,0.0,-2.3768,-2.4819,-2.542,-2.4891,-2.3765,-2.3258,-2.3875,-2.3334,-2.2498,-2.1384,0.0,0.0,0.0,0.0,0.0,0.0,0.0,0.0,0.0,0.0,0.0,0.0,0.0,0.0,0.0,0.0,0.0,0.0,0.0,0.0,0.0,0.0,0.0,0.0,0.0,0.0,0.0,0.0,0.0,0.0,0.0,0.0,0.0,0.0,0.0,0.0,0.0,0.0,0.0,0.0,0.0,0.0,0.0,0.0,0.0,0.0,0.0,0.0,0.0,0.0,0.0,0.0,0.0,0.0,0.0,0.0,0.0,0.0,0.0,0.0,0.0,0.0,0.0,0.0,0.0,0.0,0.0,0.0,0.0,0.0,0.0,0.0,0.0,0.0,0.0,0.0,0.0,0.0,0.0,0.0,0.0,0.0,0.0,0.0,0.0,0.0,0.0,0.0,0.0,0.0,0.0,0.0,0.0,0.0,0.0,0.0,0.0,0.0,0.0,0.0,0.0,0.0,-2.3434,-2.4675,-2.5241,-2.4531,-2.3779,-2.3515,-2.3893,-2.3325,-2.2526,-2.1481,0.0,0.0,0.0,0.0,0.0,0.0,0.0,0.0,0.0,0.0,0.0,0.0,0.0,0.0,0.0,0.0,0.0,0.0,0.0,0.0,0.0,0.0,0.0,0.0,0.0,0.0,0.0,0.0,0.0,0.0,0.0,0.0,0.0,0.0,0.0,0.0,0.0,0.0,0.0,0.0,0.0,0.0,0.0,0.0,0.0,0.0,0.0,0.0,0.0,0.0,0.0,0.0,0.0,0.0,0.0,0.0,0.0,0.0,0.0,0.0,0.0,0.0,0.0,0.0,0.0,0.0,0.0,0.0,0.0,0.0,0.0,0.0,0.0,0.0,0.0,0.0,0.0,0.0,0.0,0.0,0.0,0.0,0.0,0.0,0.0,0.0,0.0,0.0,0.0,0.0,0.0,0.0,0.0,0.0,0.0,0.0,0.0,0.0,0.0,0.0,0.0,0.0,-2.2921,-2.4039,-2.4582,-2.394,-2.3772,-2.3745,-2.3873,-2.331,-2.2643,-2.1989,0.0,0.0,0.0,0.0,0.0,0.0,0.0,0.0,0.0,0.0,0.0,0.0,0.0,0.0,0.0,0.0,0.0,0.0,0.0,0.0,0.0,0.0,0.0,0.0,0.0,0.0,0.0,0.0,0.0,0.0,0.0,0.0,0.0,0.0,0.0,0.0,0.0,0.0,0.0,0.0,0.0,0.0,0.0,0.0,0.0,0.0,0.0,0.0,0.0,0.0,0.0,0.0,0.0,0.0,0.0,0.0,0.0,0.0,0.0,0.0,-2.2588,0.0,0.0,0.0,0.0,0.0,0.0,0.0,0.0,0.0,0.0,0.0,0.0,0.0,0.0,0.0,0.0,0.0,0.0,0.0,0.0,0.0,0.0,0.0,0.0,0.0,0.0,0.0,0.0,0.0,0.0,0.0,0.0,0.0,0.0,0.0,0.0,0.0,0.0,0.0,0.0,0.0,-2.2982,-2.3616,-2.4048,-2.3904,-2.2997,-2.2797,-2.3804,-2.331,-2.2571,-2.1732,-2.2229,0.0,0.0,0.0,0.0,0.0,0.0,0.0,0.0,0.0,0.0,0.0,0.0,0.0,0.0,0.0,0.0,0.0,0.0,0.0,0.0,0.0,0.0,0.0,0.0,0.0,0.0,0.0,0.0,0.0,0.0,0.0,0.0,0.0,0.0,0.0,0.0,0.0,0.0,0.0,0.0,0.0,0.0,0.0,0.0,0.0,0.0,0.0,0.0,0.0,0.0,0.0,0.0,0.0,0.0,0.0,0.0,0.0,0.0,0.0,0.0,-2.3801,0.0,0.0,0.0,0.0,0.0,0.0,0.0,0.0,0.0,0.0,0.0,0.0,0.0,0.0,0.0,0.0,0.0,0.0,0.0,0.0,0.0,0.0,0.0,0.0,0.0,0.0,0.0,0.0,0.0,0.0,0.0,0.0,0.0,0.0,0.0,0.0,0.0,0.0,0.0,0.0,-2.2902,-2.3178,-2.331,-2.3006,-2.2381,-2.2221,-2.2731,-2.276,-2.253,-2.197,-2.2524,0.0,0.0,0.0,0.0,0.0,0.0,0.0,0.0,0.0,0.0,0.0,0.0,0.0,0.0,0.0,0.0,0.0,0.0,0.0,0.0,0.0,0.0,0.0,0.0,0.0,0.0,0.0,0.0,0.0,0.0,0.0,0.0,0.0,0.0,0.0,0.0,0.0,0.0,0.0,0.0,0.0,0.0,0.0,0.0,0.0,0.0,0.0,0.0,0.0,0.0,0.0,0.0,0.0,-2.4864,-2.4883,-2.5121,-2.4667,-2.4709,-2.5135,-2.5247,-2.5463,-2.5631,-2.4784,0.0,0.0,0.0,0.0,0.0,0.0,0.0,0.0,0.0,0.0,0.0,0.0,0.0,0.0,0.0,0.0,0.0,0.0,0.0,0.0,0.0,0.0,0.0,0.0,-3.0506,-3.0235,-2.7931,0.0,0.0,0.0,0.0,0.0,0.0,0.0,0.0,0.0,0.0,0.0,-2.2859,-2.2801,-2.257,-2.2119,-2.1872,-2.1718,-2.1704,-2.2179,-2.2449,-2.2229,-2.2661,-2.2757,0.0,0.0,0.0,0.0,0.0,0.0,0.0,0.0,0.0,0.0,0.0,0.0,0.0,0.0,0.0,0.0,0.0,0.0,0.0,0.0,0.0,0.0,0.0,0.0,0.0,0.0,0.0,0.0,0.0,0.0,0.0,0.0,-2.2296,-2.2213,0.0,0.0,0.0,0.0,0.0,0.0,0.0,0.0,0.0,0.0,0.0,0.0,0.0,-2.4105,-2.4103,-2.5384,-2.5696,-2.5047,-2.6196,-2.6382,-2.5767,-2.5697,-2.5697,-2.5809,-2.6343,0.0,-2.6803,-2.6125,0.0,0.0,0.0,0.0,0.0,0.0,0.0,0.0,0.0,0.0,0.0,0.0,0.0,0.0,0.0,0.0,0.0,0.0,0.0,0.0,0.0,0.0,-3.1445,-3.0911,-3.0862,-3.0784,0.0,-2.9592,-2.8462,-2.7047,-2.6502,0.0,0.0,0.0,0.0,0.0,0.0,0.0,-2.3033,-2.2454,-2.2206,-2.2414,-2.1446,-2.1135,-2.1949,-2.211,-2.2108,-2.1941,-2.2674,-2.3259,-2.3637,-2.4143,0.0,0.0,0.0,0.0,0.0,0.0,0.0,0.0,0.0,0.0,0.0,0.0,0.0,0.0,0.0,0.0,0.0,0.0,0.0,0.0,0.0,0.0,0.0,0.0,0.0,0.0,0.0,0.0,0.0,-2.2118,-2.2725,-2.2839,-2.2894,-2.2406,0.0,0.0,0.0,0.0,0.0,0.0,0.0,0.0,0.0,-2.461,-2.461,-2.4779,-2.5093,-2.5734,-2.6045,-2.6006,-2.6313,-2.6398,-2.6399,-2.6048,-2.5893,-2.5921,-2.654,-2.7031,-2.7391,-2.6859,-2.6412,-2.6141,0.0,0.0,0.0,0.0,-2.9252,-2.9817,-3.0865,-3.1202,-3.1008,-2.9793,0.0,0.0,0.0,0.0,0.0,0.0,0.0,0.0,0.0,0.0,-3.083,-3.0911,-3.0619,-3.0441,-3.0846,-3.0486,-2.9865,0.0,-2.8878,-2.8144,-2.5659,0.0,0.0,0.0,0.0,-2.4492,-2.2877,-2.2349,-2.2039,-2.1795,-2.0925,-2.0671,-2.1354,-2.18,-2.1948,-2.1795,-2.2654,-2.3076,-2.2956,-2.4092,-2.4379,0.0,0.0,0.0,0.0,0.0,0.0,0.0,0.0,0.0,0.0,0.0,0.0,0.0,0.0,0.0,0.0,0.0,0.0,0.0,0.0,0.0,0.0,0.0,0.0,0.0,0.0,0.0,0.0,-2.2471,-2.2833,-2.2917,-2.3336,-2.3068,0.0,0.0,0.0,0.0,0.0,0.0,-2.4315,-2.4343,-2.4638,-2.5191,-2.5219,-2.543,-2.5893,-2.5739,-2.5893,-2.6329,-2.5725,-2.5655,-2.609,-2.5626,-2.5469,-2.5604,-2.6226,-2.6823,-2.7268,-2.7236,-2.7093,-2.6988,-2.757,-2.8179,-2.8856,-3.002,-3.086,-3.1607,-3.2498,-3.2935,-3.2821,-3.1264,-3.0441,-2.9713,-2.7397,0.0,0.0,0.0,0.0,-2.7996,-2.9259,-2.9497,-2.9453,-2.9972,-2.9696,-2.9453,-2.9988,-3.0393,-3.0554,0.0,-3.0571,-3.0073,-2.7514,0.0,0.0,0.0,0.0,-2.4652,-2.2896,-2.2422,-2.2015,-2.144,-2.0798,-2.0581,-2.1039,-2.1633,-2.1939,-2.1814,-2.2559,-2.2897,-2.2609,-2.3966,-2.4406,-2.3691,0.0,0.0,0.0,0.0,0.0,0.0,0.0,0.0,0.0,0.0,0.0,0.0,0.0,0.0,0.0,0.0,0.0,0.0,0.0,0.0,0.0,0.0,0.0,0.0,0.0,0.0,0.0,0.0,0.0,-2.1759,-2.2084,0.0,0.0,0.0,0.0,-2.2915,-2.3069,-2.3631,-2.4868,-2.4924,-2.5219,-2.5837,-2.5837,-2.5865,-2.5893,-2.5317,-2.5036,-2.5064,-2.4498,-2.423,-2.4244,-2.4216,-2.434,-2.4704,-2.5387,-2.5865,-2.6256,-2.7268,-2.8232,-2.9128,-2.8796,-2.9384,-3.0491,-3.075,-3.1754,-3.2886,-3.2271,-3.2514,-3.3064,-3.2951,-3.1996,-3.0716,-2.9907,-2.8692,0.0,0.0,-2.8207,-2.7883,-2.8644,-2.8336,-2.7834,-2.785,-2.785,-2.7834,-2.785,-2.8951,-3.0117,0.0,-3.0865,-3.0486,-2.9213,0.0,-2.7538,-2.6317,-2.5597,-2.4722,-2.3329,-2.2694,-2.2269,-2.1916,-2.1307,-2.1103,-2.1511,-2.1844,-2.2032,-2.2068,-2.2364,-2.2863,-2.3588,-2.4086,-2.4603,-2.5189,-2.4896,0.0,0.0,0.0,0.0,0.0,0.0,0.0,0.0,0.0,0.0,0.0,0.0,0.0,0.0,0.0,0.0,0.0,0.0,0.0,0.0,0.0,0.0,0.0,0.0,0.0,0.0,0.0,0.0,-2.3271,-2.3481,0.0,-2.1908,-2.2193,-2.2634,-2.3069,-2.3856,-2.4685,-2.5528,-2.557,-2.5669,-2.5879,-2.5514,-2.5303,-2.5303,-2.4699,-2.4441,-2.4441,-2.4216,-2.4204,-2.444,-2.444,-2.4624,-2.4917,-2.515,-2.5482,-2.5863,-2.6243,-2.7515,-2.928,-2.9778,-3.0521,-3.1242,-3.1516,-3.1947,-3.2352,-3.2093,-3.199,-3.1831,-3.11,-3.0228,-2.9386,-2.9121,-2.8556,-2.8059,-2.8537,-2.8343,-2.802,-2.8281,-2.7823,-2.7277,-2.7097,-2.6701,-2.649,-2.7023,-2.7526,-2.8135,-2.8876,-3.006,-3.0403,-2.8841,-2.8558,-2.7796,-2.555,-2.548,-2.5064,-2.3348,-2.2773,-2.2325,-2.1778,-2.1687,-2.1718,-2.1911,-2.2164,-2.2358,-2.2483,-2.2738,-2.3014,-2.3293,-2.4098,-2.4424,-2.4151,-2.4521,-2.4444,0.0,0.0,0.0,0.0,0.0,0.0,0.0,0.0,0.0,0.0,0.0,0.0,0.0,0.0,0.0,0.0,0.0,0.0,0.0,0.0,0.0,0.0,0.0,0.0,0.0,0.0,-2.2838,-2.3378,-2.3776,-2.3387,-2.1885,-2.2376,-2.2909,-2.3145,-2.3895,-2.4563,-2.514,-2.5222,-2.5275,-2.5275,-2.4882,-2.4723,-2.4723,-2.4204,-2.3992,-2.3943,-2.3863,-2.3957,-2.4181,-2.4181,-2.4356,-2.4682,-2.4904,-2.5272,-2.5786,-2.6031,-2.7134,-2.8779,-2.9375,-3.0339,-3.1402,-3.1238,-3.152,-3.1913,-3.1667,-3.1183,-3.0591,-2.9859,-2.9304,-2.8887,-2.8691,-2.8439,-2.8323,-2.8531,-2.8256,-2.7904,-2.7947,-2.7251,-2.6518,-2.6336,-2.574,-2.5431,-2.6208,-2.6574,-2.7044,-2.7815,-2.9034,-2.9562,-2.842,-2.8232,-2.7583,-2.5656,-2.5561,-2.5116,-2.3629,-2.3128,-2.2668,-2.1965,-2.2113,-2.2237,-2.2292,-2.2546,-2.2747,-2.2833,-2.3077,-2.3241,-2.3241,-2.3922,-2.4177,-2.3927,-2.4718,-2.5028,-2.4784,0.0,0.0,0.0,0.0,0.0,0.0,0.0,0.0,0.0,0.0,0.0,0.0,0.0,0.0,0.0,0.0,0.0,0.0,0.0,0.0,0.0,0.0,0.0,-2.0918,-2.2271,-2.2894,-2.1931,-2.2673,-2.3122,-2.2679,-2.2379,-2.2498,-2.3223,-2.315,-2.328,-2.3668,-2.3965,-2.4118,-2.4118,-2.4089,-2.4089,-2.4089,-2.3846,-2.3659,-2.3659,-2.3435,-2.3319,-2.3319,-2.3319,-2.3494,-2.387,-2.4519,-2.5213,-2.592,-2.663,-2.7211,-2.7648,-2.755,-2.8909,-3.081,-2.9904,-3.0449,-3.16,-3.0883,-3.0132,-2.9538,-2.9521,-2.9521,-2.9388,-2.8758,-2.854,-2.854,-2.8524,-2.7988,-2.7492,-2.7585,-2.6573,-2.5476,-2.5475,-2.4963,-2.4686,-2.5338,-2.6131,-2.696,-2.7759,-2.7938,-2.7951,-2.8001,-2.7427,-2.6934,-2.6918,-2.5922,0.0,-2.421,-2.3808,-2.3288,-2.2571,-2.2643,-2.2703,-2.2703,-2.2952,-2.3119,-2.3119,-2.336,-2.3494,-2.3552,-2.3552,-2.3927,-2.4736,-2.5607,-2.6476,-2.727,0.0,0.0,0.0,0.0,0.0,0.0,0.0,0.0,0.0,0.0,0.0,0.0,0.0,0.0,0.0,0.0,0.0,0.0,0.0,0.0,0.0,-2.1651,-2.2178,-2.2539,-2.2539,-2.2434,-2.2214,-2.2307,-2.2148,-2.1472,-2.1688,-2.2173,-2.2812,-2.2679,-2.3009,-2.3923,-2.3863,-2.3914,-2.4118,-2.3914,-2.3658,-2.3364,-2.3406,-2.3256,-2.2968,-2.3215,-2.3451,-2.3653,-2.3653,-2.3839,-2.4177,-2.4376,-2.473,-2.5203,-2.5504,-2.5979,-2.6557,-2.7562,-2.8371,-2.8975,-2.8888,-2.912,-2.941,-2.8844,-2.8549,-2.8332,-2.8015,-2.7913,-2.7896,-2.7724,-2.7504,-2.7233,-2.6889,-2.6502,-2.6115,-2.5683,-2.5302,-2.4965,-2.4822,-2.4635,-2.4581,-2.4863,-2.5098,-2.5364,-2.5647,-2.6156,-2.6876,-2.791,-2.791,-2.7605,-2.7182,-2.5885,0.0,-2.4701,-2.367,-2.2875,-2.2677,-2.2859,-2.3003,-2.3003,-2.3241,-2.3383,-2.3383,-2.3471,-2.3789,-2.4431,-2.4449,-2.4923,-2.5909,-2.6736,-2.7086,0.0,0.0,0.0,0.0,0.0,0.0,0.0,0.0,0.0,0.0,0.0,0.0,0.0,0.0,0.0,0.0,0.0,0.0,0.0,0.0,0.0,0.0,-2.1682,-2.2164,-2.2621,-2.2416,-2.213,-2.2021,-2.175,-2.1284,-2.054,-2.1153,-2.1572,-2.1483,-2.218,-2.279,-2.3203,-2.3364,-2.3558,-2.3751,-2.3627,-2.3424,-2.3177,-2.3407,-2.3392,-2.3157,-2.3523,-2.3824,-2.4009,-2.4009,-2.4135,-2.4302,-2.4492,-2.4799,-2.516,-2.546,-2.5905,0.0,0.0,0.0,0.0,0.0,-2.8113,-2.7504,-2.7231,-2.6939,-2.6664,-2.6409,-2.6333,-2.6333,-2.6333,-2.6193,-2.6011,-2.5794,-2.5614,-2.5433,-2.519,-2.4899,-2.4611,-2.4521,-2.4289,-2.4178,-2.4552,-2.4677,-2.4818,-2.5143,-2.5607,0.0,-2.6986,-2.7466,-2.7495,-2.6802,-2.5784,-2.4958,-2.4646,-2.3685,-2.3035,-2.3035,-2.3175,-2.3265,-2.3265,-2.3407,0.0,0.0,0.0,-2.4426,-2.5308,-2.5497,0.0,0.0,0.0,0.0,0.0,0.0,0.0,0.0,-3.0257,-3.0822,0.0,0.0,0.0,0.0,0.0,0.0,0.0,0.0,0.0,0.0,0.0,0.0,0.0,0.0,0.0,0.0,-2.1514,-2.1666,-2.1821,-2.1879,-2.1805,-2.1425,-2.1046,-2.0582,-1.9932,-2.0692,-2.0872,-2.0072,-2.1689,-2.2546,-2.2123,0.0,0.0,0.0,0.0,-2.3319,-2.3319,-2.3668,-2.3839,-2.3782,-2.4177,-2.4385,-2.4385,-2.4348,-2.4302,-2.4343,-2.4595,-2.4974,-2.5371,-2.5837,-2.6337,-2.6736,-2.6538,-2.6979,-2.7828,-2.8008,-2.7175,-2.6001,-2.6061,0.0,0.0,-2.5074,-2.5046,-2.5017,-2.5017,-2.5034,-2.5017,-2.5056,-2.5049,-2.5115,-2.5279,-2.4827,-2.4297,-2.4382,-2.3922,-2.3649,-2.4264,-2.4479,-2.4766,-2.5408,-2.5622,-2.5676,-2.5676,-2.6426,-2.6805,-2.6095,-2.5551,-2.4998,-2.4331,-2.3815,-2.3494,-2.3494,0.0,0.0,-2.3544,-2.3544,-2.3643,-2.3804,-2.4653,-2.551,-2.6278,-2.6744,-2.7276,-2.7901,-2.8188,-2.9016,-3.0432,-2.9781,-3.0206,-3.1574,-3.0362,-3.1075,0.0,0.0,0.0,0.0,0.0,0.0,0.0,0.0,0.0,0.0,0.0,0.0,0.0,0.0,0.0,-2.2005,-2.1832,-2.172,-2.2079,-2.1027,-2.0225,-2.01,-2.0262,-2.0233,-1.9721,-2.0316,-2.0868,-2.1229,-2.1414,-2.1922,-2.283,-2.2694,-2.2844,-2.3275,-2.348,-2.348,-2.3319,-2.3925,-2.4051,-2.3797,0.0,0.0,-2.4768,-2.4509,-2.4383,-2.4351,-2.3831,-2.3821,-2.4215,-2.4381,-2.4804,-2.5356,-2.5953,-2.631,-2.6409,-2.604,-2.5719,-2.5485,-2.5712,-2.5685,-2.5561,-2.5561,-2.542,-2.5247,-2.5247,-2.5142,0.0,-2.4396,-2.4232,-2.4173,-2.3816,-2.3625,-2.3525,-2.3661,-2.3601,-2.3529,-2.3667,-2.3708,-2.3761,-2.3927,-2.448,-2.4908,-2.4908,-2.5557,-2.6012,-2.5852,-2.5265,-2.4757,-2.4622,-2.3952,-2.3494,-2.3494,-2.3539,-2.3634,-2.3792,-2.3873,-2.4251,-2.5092,-2.6551,-2.7458,-2.7645,-2.8396,-2.8925,-2.9231,-2.9963,-3.0227,-3.0014,-3.0396,-3.0732,-3.0953,-3.0332,-3.0991,0.0,0.0,0.0,0.0,0.0,0.0,0.0,0.0,0.0,0.0,0.0,-2.1174,-2.1927,0.0,-2.1913,-2.2217,-2.1875,-2.1633,-2.1811,-2.0651,-1.982,-2.0035,-1.9827,-1.9618,-1.9372,-1.9961,-2.0382,-2.043,-2.1054,-2.1814,-2.2571,-2.2916,-2.3348,-2.4006,-2.4173,-2.4282,-2.4389,-2.4313,-2.441,-2.4648,-2.4438,-2.4474,-2.4633,-2.4112,-2.3861,-2.3829,-2.3681,-2.3786,-2.411,-2.4573,-2.4971,-2.5302,-2.533,-2.5474,-2.5686,-2.5561,-2.5279,-2.4969,-2.5102,-2.4902,-2.4545,-2.4545,-2.4473,-2.4392,-2.4392,-2.436,-2.4239,-2.3998,-2.3898,-2.3857,-2.3683,-2.366,-2.366,-2.3725,-2.3747,-2.3747,-2.3747,-2.3747,-2.3747,-2.3747,-2.4071,-2.4342,-2.4389,-2.4715,-2.505,-2.5303,-2.5062,-2.4735,-2.4444,-2.4073,-2.386,-2.386,-2.3881,-2.3941,-2.4041,-2.4117,-2.4726,-2.6078,-2.7047,-2.7923,-2.8625,-2.9251,-2.9608,-2.9608,-3.0167,-3.029,-2.9956,-3.0307,-3.0481,-3.0445,-3.0055,-3.0921,0.0,0.0,0.0,0.0,0.0,0.0,0.0,0.0,-2.1504,-2.2647,-2.2493,-2.2324,-2.2902,-2.2694,-2.2366,-2.2282,-2.1724,-2.1311,-2.1341,-2.0268,-1.9641,-2.011,-1.9481,-1.8979,-1.8834,-1.9376,-1.9599,-1.9273,-2.046,-2.138,-2.1806,-2.2578,-2.334,-2.4036,-2.4112,-2.435,-2.4851,-2.4202,-2.4304,-2.5045,-2.4239,-2.4003,-2.4349,-2.37,-2.344,-2.3473,-2.3664,-2.386,-2.4142,-2.4795,-2.5144,-2.518,-2.4647,-2.4668,-2.5041,-2.5251,-2.4956,-2.4461,-2.4508,-2.41,-2.3566,-2.3566,-2.3566,-2.3566,-2.3566,-2.3588,-2.3628,-2.3774,-2.3795,-2.3816,-2.3976,-2.3996,-2.3996,-2.3996,-2.3996,-2.3996,-2.3996,-2.3996,-2.3996,-2.4016,-2.4036,-2.4037,-2.4098,-2.4117,-2.426,-2.4708,-2.4805,-2.4675,-2.4171,-2.4174,-2.421,-2.421,-2.421,-2.4228,-2.43,-2.4518,-2.5314,-2.6842,-2.7283,-2.8068,-2.936,-2.9734,-2.9839,-2.9681,-2.9907,-3.0022,-3.0022,-3.0072,-3.0102,-3.0087,-2.9869,-3.0678,-2.5386,-2.4829,-2.4257,-2.4136,-2.3366,-2.3022,0.0,0.0,-2.3455,-2.4137,-2.3952,-2.3632,-2.3548,-2.3042,-2.2632,-2.2561,-2.1401,-2.0615,-2.0849,-1.9618,-1.8865,-1.9209,-1.8914,-1.8454,-1.7906,-1.821,-1.8614,-1.9095,-1.9284,-1.9805,-2.0808,-2.0858,-2.1025,-2.1404,-2.1321,-2.169,-2.2567,-2.2465,-2.282,-2.3555,-2.3783,-2.4033,-2.4288,-2.393,-2.3863,-2.4058,-2.3457,-2.3242,-2.3316,-2.3478,-2.3549,-2.3595,-2.3811,-2.3912,-2.3963,-2.4006,-2.3952,-2.3922,-2.4162,-2.4185,-2.4113,-2.4113,-2.3996,-2.3876,-2.3876,-2.3753,-2.3628,-2.3774,-2.3795,-2.3816,-2.3976,-2.3996,-2.3996,-2.3996,-2.3996,-2.3996,-2.3996,-2.3996,-2.4036,-2.4078,-2.4097,-2.4117,-2.4192,-2.4192,-2.4211,-2.4266,-2.4284,-2.4266,-2.4192,-2.4192,-2.421,-2.421,-2.4264,-2.4388,-2.4626,-2.5473,-2.6412,-2.7358,-2.813,-2.8909,-2.9801,-2.994,-2.9972,-2.9956,-3.0038,-3.0087,-3.0087,-3.0102,-3.0102,-3.0102,-3.0072,-3.0056,-2.5161,-2.488,-2.4371,-2.4912,-2.4705,-2.4538,-2.5116,-2.487,-2.4568,-2.4657,-2.3982,-2.3308,-2.3057,-2.2234,-2.1557,0.0,-2.0815,-2.0433,-2.0492,-1.9613,-1.895,-1.8925,-1.8568,-1.83,-1.8238,-1.8331,-1.8547,-1.8781,-1.8796,-1.9218,-2.0162,-2.049,-2.0852,-2.1397,-2.1532,-2.189,-2.2434,-2.2085,-2.2294,-2.3076,-2.2562,-2.2502,-2.2831,-2.2262,-2.23,-2.2849,-2.2693,-2.2936,-2.3437,-2.3671,-2.3795,-2.3837,-2.4059,-2.4155,-2.4136,-2.4057,-2.4036,-2.4054,-2.417,-2.4209,-2.4191,-2.4191,-2.4209,-2.4191,-2.4191,-2.4154,-2.4154,-2.4192,-2.421,-2.4229,-2.4284,-2.4303,-2.4303,-2.4303,-2.4303,-2.4303,-2.4303,-2.4303,-2.4303,-2.4374,-2.4392,-2.4425,-2.454,-2.4617,-2.4678,-2.4723,-2.457,-2.4456,-2.4538,-2.462,-2.467,-2.467,-2.4685,-2.4749,-2.4861,-2.5688,-2.6565,-2.7447,-2.7861,-2.8413,-2.9228,-2.9317,-2.9332,-2.9296,-2.9904,-3.018,-3.0098,-3.0174,-3.0207,-3.0161,-3.0161,-3.0113,-2.4607,-2.4635,-2.4397,-2.5343,-2.5354,-2.5113,-2.5026,-2.4768,-2.448,-2.4247,-2.3486,-2.2761,-2.2482,-2.1638,-2.0921,-2.0736,-2.0428,-2.0176,-2.0108,-1.9423,-1.8852,-1.8654,-1.8283,-1.812,-1.8361,-1.8359,-1.8343,-1.8343,-1.8343,-1.8679,-1.9372,-1.9764,-2.02,-2.072,-2.0959,-2.1302,-2.1729,-2.1307,-2.1489,-2.229,-2.146,-2.1257,-2.1597,-2.1167,-2.1306,-2.1904,-2.2373,-2.2932,-2.3575,-2.4081,-2.4284,-2.4358,-2.4442,-2.4493,-2.4476,-2.4375,-2.4339,-2.4339,-2.4339,-2.4339,-2.4338,-2.4338,-2.4426,-2.4495,-2.4481,-2.4513,-2.4596,-2.4566,-2.4568,-2.4566,-2.4596,-2.4582,-2.4566,-2.4613,-2.461,-2.4629,-2.4629,-2.4645,-2.466,-2.4719,-2.4734,-2.476,-2.4888,-2.4987,-2.5082,-2.5118,-2.4929,-2.4799,-2.4888,-2.4993,-2.5051,-2.5051,-2.5051,-2.5158,-2.5393,-2.5946,-2.6644,-2.7542,-2.763,-2.8025,-2.8848,-2.8938,-2.9046,-2.9237,-2.9747,-3.0067,-3.0209,-3.0054,-3.0061,-3.0221,-3.0213,-3.0204,-2.3728,-2.4075,-2.4331,-2.5265,-2.4866,-2.4238,-2.4232,-2.3582,-2.2904,-2.2716,-2.2585,-2.2414,-2.2073,-2.1719,-2.1407,-2.1198,-2.0356,-1.9702,-1.9641,-1.8822,-1.8222,-1.8222,-1.7988,-1.7805,0.0,-1.7766,-1.7738,-1.7738,-1.7738,-1.7844,-1.8134,-1.8172,-1.8211,-1.8305,-1.8326,-1.8732,-1.9586,-1.9565,-1.997,-2.0765,-2.073,-2.0864,-2.112,-2.1497,-2.1713,-2.1852,-2.2829,-2.3329,-2.348,-2.432,-2.4692,-2.4692,-2.4692,-2.4692,-2.4692,-2.4692,-2.4692,-2.4692,-2.4692,-2.467,-2.4682,-2.4682,-2.4723,-2.4766,-2.462,-2.4727,-2.4861,-2.4719,-2.4692,-2.4719,-2.4847,-2.4794,-2.4734,-2.485,-2.4904,-2.4904,-2.4981,-2.4981,-2.5006,-2.5061,-2.5072,-2.5115,-2.5171,-2.5182,-2.5182,-2.5212,-2.5182,-2.5182,-2.5182,-2.5182,-2.5182,-2.5182,-2.5182,-2.554,-2.6381,-2.6487,-2.6862,-2.775,-2.7788,-2.8174,-2.9051,-2.909,-2.9496,-3.0327,-2.9622,-2.9651,-3.0492,-2.9578,-2.954,-3.029,-3.0234,-3.0204,-2.2659,-2.2928,-2.287,-2.4075,-2.3784,-2.3213,-2.3255,-2.3114,-2.292,-2.2757,-2.2323,-2.1874,-2.1537,-2.0906,-2.0376,-2.0178,-1.9323,-1.8898,-1.9465,-1.8749,-1.8379,-1.8856,-1.9327,0.0,0.0,0.0,0.0,-1.7905,-1.7941,-1.809,-1.8368,-1.845,-1.851,-1.8532,-1.8842,-1.9073,-1.9219,-1.9409,-1.9638,-1.9893,-1.9893,-1.9945,-2.0044,-2.0172,-2.0544,-2.1096,-2.1477,-2.2283,-2.3359,-2.3686,-2.4185,-2.4707,-2.4808,-2.4832,-2.4865,-2.498,-2.5032,-2.5,-2.4775,-2.4731,-2.4775,-2.4766,-2.4809,-2.4855,-2.4799,-2.4861,-2.4888,-2.4847,-2.4832,-2.4847,-2.4896,-2.4883,-2.4855,-2.4949,-2.4962,-2.4962,-2.4994,-2.5006,-2.5019,-2.5091,-2.5096,-2.5126,-2.5182,-2.5244,-2.5303,-2.5382,-2.5284,-2.5222,-2.5253,-2.5264,-2.5274,-2.5274,-2.5264,-2.5389,-2.5677,-2.6236,-2.694,-2.7807,-2.7918,-2.8294,-2.9129,-2.9248,-2.9411,-2.9592,-2.9943,-3.0253,-3.0501,-3.0238,-3.0201,-3.0423,-3.0364,-3.0336,-2.077,-2.1092,-2.1163,-2.2538,-2.2352,-2.1895,-2.2074,-2.2274,-2.2402,-2.2318,-2.1988,-2.1623,-2.1359,-2.0847,-2.0307,-1.979,-1.9456,-1.9344,-1.9582,-1.9061,-1.8832,-1.9317,-2.0031,-2.0429,0.0,0.0,0.0,-1.9251,-1.9014,-1.8974,-1.9125,-1.8986,-1.8878,-1.8877,-1.9166,-1.928,-1.9178,-1.938,-1.9476,-1.9499,-1.9499,-1.9499,-1.9499,-1.954,-1.9865,-2.0396,-2.0802,-2.1776,-2.3069,-2.3426,-2.4095,-2.4884,-2.4961,-2.5,-2.5013,-2.5149,-2.5195,-2.5164,-2.4955,-2.4929,-2.4981,-2.4975,-2.5,-2.5043,-2.4994,-2.4987,-2.5043,-2.4975,-2.4975,-2.5,-2.5061,-2.503,-2.503,-2.5118,-2.5141,-2.516,-2.5171,-2.519,-2.5182,-2.5224,-2.5234,-2.5264,-2.5303,-2.5365,-2.5441,-2.5525,-2.5426,-2.5359,-2.5412,-2.5412,-2.5401,-2.5414,-2.5654,-2.5855,-2.587,-2.6955,-2.7737,-2.7981,-2.8333,-2.8767,-2.9283,-2.9383,-2.9544,-2.9776,-3.0063,-3.0335,-3.0614,-3.0307,-3.0319,-3.0582,-3.0482,-3.0269,-1.8206,-1.8741,-1.9306,-2.0625,-2.056,-2.0248,-2.0652,-2.1053,-2.1377,-2.1391,-2.1542,-2.1659,-2.1589,-2.1532,-2.119,-2.0212,-2.068,-2.0859,-2.0017,-1.9638,-1.9481,0.0,0.0,0.0,0.0,0.0,0.0,-2.1552,0.0,-2.0333,-2.0333,-1.962,-1.9216,-1.9216,-1.9232,-1.9248,-1.9314,-1.939,-1.9456,-1.9532,-1.9532,-1.9532,-1.9526,-1.9663,-1.975,-1.987,-2.0826,-2.1738,-2.2611,-2.349,-2.4361,-2.5145,-2.5195,-2.5214,-2.5214,-2.5198,-2.5209,-2.522,-2.522,-2.5261,-2.5311,-2.5292,-2.5302,-2.5293,-2.5149,-2.5192,-2.5264,-2.5149,-2.5118,-2.5173,-2.5351,-2.5303,-2.5234,-2.5376,-2.5401,-2.5429,-2.5484,-2.5511,-2.5511,-2.5492,-2.5492,-2.5507,-2.5511,-2.5564,-2.5601,-2.5607,-2.5646,-2.5646,-2.5601,-2.564,-2.5659,-2.5665,-2.6384,-2.6901,-2.6953,-2.8471,-2.9104,-2.8325,-2.905,-2.9518,-2.9557,-2.9576,-2.9966,-3.0784,-2.9985,-2.9966,-3.0804,-2.9913,-2.9868,-3.0639,-3.049,-2.9973,-1.6905,-1.7271,-1.7552,-1.7848,-1.8002,-1.8159,-1.8507,-1.9776,-2.0956,-2.1264,-2.1411,-2.1694,-2.2416,-2.206,-2.1765,-2.2086,-2.1262,0.0,-2.1082,-1.9988,0.0,-1.9888,0.0,-2.0966,-2.0851,-2.155,0.0,0.0,-2.1093,-2.0615,-2.0663,-1.9973,-1.9545,-1.9499,-1.9585,-1.9656,-1.9673,-1.9788,-1.9861,-1.9866,-1.9866,-1.9866,-1.9866,-1.9922,-1.996,-2.0031,-2.0345,-2.0971,-2.1856,-2.2766,-2.3642,-2.4452,-2.5095,-2.5343,-2.5343,-2.534,-2.5376,-2.543,-2.543,-2.5367,-2.5292,-2.5293,-2.5303,-2.5284,-2.5253,-2.5264,-2.5303,-2.5332,-2.5313,-2.5332,-2.5387,-2.5367,-2.5367,-2.5448,-2.5464,-2.5484,-2.5511,-2.5511,-2.5499,-2.549,-2.5538,-2.5577,-2.557,-2.5599,-2.5605,-2.5593,-2.6197,-2.6389,-2.5683,-2.6164,-2.6578,-2.6573,-2.7337,-2.7844,-2.7872,-2.8281,-2.871,-2.9143,-2.939,-2.9784,-3.0447,-3.0474,-3.0576,-3.081,-3.0576,-3.0576,-3.081,-3.0564,-3.0228,-2.9799,-2.9716,-2.9246,-1.4903,-1.5216,-1.55,-1.5561,-1.6116,-1.6909,-1.7773,-1.9541,-2.1208,-2.1947,-2.2326,-2.2721,-2.3324,-2.3114,-2.2846,-2.2893,0.0,0.0,-2.1649,-2.0753,-2.0153,0.0,-2.0908,0.0,-2.1276,-2.1966,-2.2422,0.0,-2.1431,-2.0848,-2.0894,-2.0201,-1.9762,-1.9732,-1.9797,-1.9873,-1.9892,-1.9958,-2.0029,-2.0088,-2.0088,-2.0088,-2.0088,-2.0079,-2.0115,-2.0156,0.0,-2.073,-2.1577,-2.2119,-2.3035,-2.4157,-2.4636,-2.5064,-2.5408,-2.5421,-2.5473,-2.5499,-2.5505,-2.5459,-2.5401,-2.539,-2.539,-2.539,-2.5385,-2.5395,-2.5406,-2.5428,-2.5475,-2.5493,-2.5481,-2.5498,-2.5495,-2.5522,-2.555,-2.555,-2.555,-2.5546,-2.5543,-2.5543,-2.5571,-2.5595,-2.5609,-2.5613,-2.5765,-2.6169,-2.6663,-2.6939,-2.6754,-2.7163,-2.7488,-2.751,-2.8271,-2.8634,-2.8278,-2.8915,-2.9398,-2.9492,-2.985,-3.0283,-3.079,-3.0794,-3.0798,-3.0798,-3.0798,-3.0798,-3.0798,-3.0798,-3.0547,-3.0063,-2.9636,-2.9004,-1.2701,-1.2931,-1.3389,-1.362,-1.4632,-1.6,-1.7667,-1.9715,-2.1587,-2.2845,-2.3531,-2.3974,-2.4181,-2.4248,-2.4032,-2.3379,0.0,-2.3766,-2.2187,-2.1759,-2.1363,-2.0669,-2.1081,-2.1427,-2.1446,-2.2059,-2.2477,-2.247,-2.151,-2.097,-2.1077,-2.0375,-1.996,-1.9931,-1.9909,-1.9941,-2.0012,-2.0012,-2.0069,-2.0197,-2.0197,-2.0197,-2.0205,-2.02,-2.0212,-2.0229,-2.0289,-2.0759,-2.1469,-2.1585,-2.254,-2.3986,-2.4083,-2.4665,-2.5447,-2.5504,-2.5529,-2.5529,-2.5521,-2.5526,-2.5521,-2.551,-2.5498,-2.5505,-2.5505,-2.5498,-2.549,-2.5511,-2.555,-2.5603,-2.5592,-2.5596,-2.5599,-2.5599,-2.5607,-2.5594,-2.5594,-2.559,-2.5599,-2.5609,-2.5613,-2.5612,-2.5609,-2.5754,-2.613,-2.6893,-2.7186,-2.7578,-2.828,-2.8376,-2.8387,-2.8455,-2.9181,-2.9386,-2.8682,-2.994,-3.0462,-2.9701,-3.0384,-3.0791,-3.0807,-3.0807,-3.0807,-3.0801,-3.0801,-3.0801,-3.0801,-3.0801,-3.069,-3.0443,-2.9681,-2.8903,-1.1378,-1.1311,-1.1507,-1.1905,-1.2921,-1.4433,-1.6756,-1.8864,0.0,0.0,-2.3262,-2.3733,-2.4734,-2.445,-2.4282,-2.5002,-2.4706,-2.4256,-2.3885,-2.2636,-2.1697,0.0,-2.0903,-2.0561,-2.0598,-2.0674,0.0,0.0,-2.0532,-2.0739,-2.1451,-2.0746,-2.0255,-2.0148,-2.0031,-1.9992,-2.0012,-2.005,-2.0124,-2.0197,-2.0197,-2.0205,-2.02,-2.0204,-2.0257,-2.0374,-2.0376,0.0,-2.0752,-2.1473,-2.2353,-2.3354,-2.4062,-2.4872,-2.5642,-2.5651,-2.5673,-2.5673,-2.5673,-2.5673,-2.5645,-2.5532,-2.5499,-2.5505,-2.549,-2.5505,-2.5512,-2.5574,-2.5593,-2.5604,-2.5605,-2.5595,-2.5595,-2.5595,-2.5605,-2.5609,-2.5609,-2.5593,-2.5595,-2.5601,-2.5631,-2.5677,-2.5679,-2.6285,-2.6834,-2.6972,-2.8179,-2.9129,-2.9269,-2.9273,-2.9277,-2.9294,-3.0018,-3.0449,-3.0292,-3.0546,-3.0644,-3.0507,-3.0682,-3.08,-3.0797,-3.0799,-3.0796,-3.0799,-3.0796,-3.0796,-3.0796,-3.0796,-3.0096,-2.873,-2.8574,-2.8049,-1.0196,-1.0164,-1.0423,-1.0893,-1.228,-1.421,-1.6905,0.0,0.0,0.0,-2.3857,-2.4157,-2.4438,-2.4251,-2.4238,-2.483,-2.46,-2.4339,-2.4297,-2.3614,-2.2769,-2.1859,-2.1346,-2.091,-2.0445,-2.0377,-2.037,-2.0399,-2.0392,-2.0574,-2.0953,-2.0618,-2.0352,-2.0268,-2.0196,-2.0164,-2.0156,-2.0192,-2.0235,-2.0304,-2.0304,-2.0306,-2.0302,-2.0334,-2.0399,-2.0448,-2.0445,-2.0467,-2.0522,-2.0951,-2.1896,-2.3132,-2.3567,-2.4527,-2.5703,-2.5707,-2.5707,-2.5707,-2.5707,-2.5707,-2.5685,-2.5626,-2.5605,-2.56,-2.56,-2.5601,-2.5603,-2.564,-2.5642,-2.5644,-2.5648,-2.5657,-2.5641,-2.5641,-2.5644,-2.5644,-2.5641,-2.5641,-2.5641,-2.5642,-2.5683,-2.5703,-2.5702,-2.6422,-2.7141,-2.7563,-2.8684,-2.9659,-3.0063,-3.0123,-3.0141,-3.016,-3.0511,-3.0753,-3.0743,-3.0747,-3.0751,-3.0751,-3.0788,-3.079,-3.0797,-3.0796,-3.0585,-3.0132,-3.0113,-2.9913,-2.9494,-2.9494,-2.9084,-2.8283,-2.7835,-2.7639,-0.9201,-0.9294,-0.9693,-1.0213,-1.1925,-1.4237,-1.7231,-1.9386,0.0,-2.3652,-2.4323,-2.436,-2.3919,-2.3794,-2.3874,0.0,-2.4277,-2.4333,-2.452,-2.4402,-2.3818,-2.2486,-2.2013,0.0,-2.0777,-2.0527,0.0,-2.0508,-2.0507,-2.0492,-2.0422,-2.0419,-2.039,-2.0332,-2.0326,-2.0314,-2.0321,-2.0321,-2.0366,-2.0418,-2.0418,-2.0429,-2.0415,-2.0487,-2.0492,-2.0494,-2.0503,-2.0492,0.0,-2.0489,-2.1413,-2.281,-2.281,-2.389,-2.5419,-2.5419,-2.5539,-2.5679,-2.5696,-2.5697,-2.568,-2.5703,-2.5699,-2.5707,-2.5707,-2.5691,-2.5697,-2.5703,-2.5703,-2.5703,-2.5703,-2.5698,-2.5691,-2.5707,-2.5707,-2.5691,-2.5702,-2.5703,-2.5702,-2.57,-2.5699,-2.5697,-2.5683,-2.6565,-2.7472,-2.8099,-2.8938,-2.9732,-3.0353,-3.0269,-3.0158,-3.0219,-3.0556,-3.0785,-3.0782,-3.0774,-3.0781,-3.0781,-3.0781,-3.0707,-3.0537,-3.0693,-3.0296,-2.9237,-2.9394,-2.9101,-2.8271,-2.8286,-2.8205,-2.801,-2.7503,-2.7659,-0.8565,-0.8643,-0.9025,-0.9627,-1.1437,-1.3914,-1.725,0.0,-2.1062,-2.359,-2.3797,-2.3543,-2.3619,-2.3138,-2.3035,-2.3964,0.0,-2.449,-2.529,-2.4768,-2.4238,-2.4083,0.0,0.0,-2.1686,-2.0953,-2.0483,-2.0506,-2.0561,-2.0561,-2.0483,-2.0499,-2.0488,-2.0472,-2.0428,-2.0381,-2.0399,-2.0399,-2.0421,-2.0502,-2.0502,-2.0491,-2.0492,-2.0497,-2.0504,-2.0501,-2.0495,-2.0494,0.0,-2.0501,-2.1067,-2.1915,-2.1915,-2.2982,-2.4511,-2.4511,-2.4978,-2.5611,-2.5681,-2.566,-2.5613,-2.5681,-2.5702,-2.5707,-2.5707,-2.5698,-2.5703,-2.5694,-2.5709,-2.5709,-2.5709,-2.5696,-2.5698,-2.5709,-2.5707,-2.5707,-2.5709,-2.5709,-2.5707,-2.5698,-2.5696,-2.569,-2.5609,-2.6989,-2.8115,-2.8193,-2.8934,-2.9536,-2.9594,-2.8864,-2.834,-2.8346,-2.9758,-3.0711,-3.0711,-3.0711,-3.0711,-3.0711,-3.0711,-3.0372,-2.9643,-3.0317,-2.9963,-2.8344,-2.9093,-2.9079,-2.8203,-2.8273,-2.7893,-2.7134,-2.7854,-2.8225,-0.785,-0.8094,-0.8598,-0.9013,-1.1488,-1.455,-1.733,-1.9944,-2.2316,-2.415,-2.4392,-2.4044,-2.3168,-2.2819,-2.2825,-2.3292,0.0,0.0,-2.5248,-2.5161,-2.4781,-2.4295,-2.365,-2.2858,0.0,0.0,-2.106,-2.0533,-2.0511,-2.0527,-2.0502,-2.0508,-2.0492,-2.0497,-2.048,-2.0428,-2.0404,-2.0404,-2.042,-2.0506,-2.0506,-2.0496,-2.0499,-2.0508,-2.0501,-2.0507,-2.0507,-2.0507,0.0,-2.0508,-2.1016,-2.1855,-2.2383,-2.3338,-2.4468,-2.4934,-2.5338,-2.5601,-2.5629,-2.5618,-2.5601,-2.5639,-2.5629,-2.5644,-2.5683,-2.5703,-2.5696,-2.5709,-2.5707,-2.5707,-2.5707,-2.5691,-2.5693,-2.5709,-2.5707,-2.5705,-2.5698,-2.5698,-2.5693,-2.5655,-2.5632,-2.5632,-2.5601,-2.6602,-2.743,-2.743,-2.8124,-2.867,-2.867,-2.8327,-2.81,-2.8106,-2.9188,-2.9913,-2.9913,-3.0399,-3.071,-3.0695,-3.0695,-3.0314,-2.948,-2.9745,-2.911,-2.7398,-2.7745,-2.7535,-2.6696,-2.6714,-2.6823,-2.7005,-2.735,-2.8088,-0.7347,-0.7492,-0.7805,-0.7976,-1.1259,-1.4938,-1.6925,-2.0255,-2.327,-2.4538,-2.4704,-2.4189,-2.2847,-2.2661,-2.2748,0.0,0.0,-2.3767,-2.5197,-2.5422,-2.5212,-2.4658,0.0,-2.3736,-2.2557,-2.2055,-2.1437,-2.0562,-2.0521,-2.0523,-2.0527,-2.0526,-2.0518,-2.0497,-2.0511,-2.0516,-2.0461,-2.0465,-2.049,-2.0523,-2.0523,-2.0533,-2.0524,-2.0526,-2.0527,-2.0505,-2.0507,-2.0504,0.0,-2.05,-2.1006,-2.186,-2.2483,-2.3396,-2.4439,-2.5018,-2.5379,-2.5578,-2.5581,-2.5595,-2.5574,-2.5575,-2.5556,-2.555,-2.5621,-2.5644,-2.5673,-2.5693,-2.5709,-2.5707,-2.5707,-2.5683,-2.5679,-2.5705,-2.5676,-2.5658,-2.5678,-2.5655,-2.5625,-2.558,-2.5585,-2.5609,-2.56,-2.6325,-2.6893,-2.6893,-2.7375,-2.7731,-2.7731,-2.7492,-2.733,-2.7336,-2.8106,-2.8734,-2.8987,-2.9589,-2.9931,-2.9935,-2.9935,-2.954,-2.8671,-2.8877,-2.8202,-2.6442,-2.6726,-2.6481,-2.5661,-2.5683,-2.6028,-2.6618,-2.6887,-2.7938,-0.7131,-0.6799,-0.6501,-0.6425,-1.0484,-1.4782,-1.5889,-1.979,-2.349,-2.458,-2.4334,-2.364,-2.2751,-2.2661,-2.271,-2.2795,-2.3527,0.0,-2.5272,-2.5451,-2.5498,0.0,-2.473,-2.4185,-2.418,-2.2725,-2.1433,-2.0578,-2.057,0.0,-2.0601,-2.0604,-2.0566,-2.0497,-2.056,-2.0599,-2.0593,-2.0598,-2.0604,-2.0605,-2.0605,-2.0605,-2.0601,-2.0597,-2.0568,-2.0499,-2.0492,-2.049,0.0,-2.0492,-2.1017,-2.1808,-2.1808,-2.2835,-2.4307,-2.4307,-2.4826,-2.5503,-2.5587,-2.5553,-2.5511,-2.5498,-2.5451,-2.5412,-2.5474,-2.5551,-2.5602,-2.5681,-2.5696,-2.5707,-2.5707,-2.5648,-2.5613,-2.5681,-2.5593,-2.5517,-2.5595,-2.5547,-2.5496,-2.5505,-2.554,-2.56,-2.5607,-2.632,-2.6909,-2.6909,-2.6851,-2.6806,-2.6806,-2.6049,-2.5538,-2.5538,-2.6306,-2.7179,-2.8039,-2.8117,-2.8136,-2.8136,-2.8136,-2.7748,-2.6868,-2.766,-2.7284,-2.5553,-2.6439,-2.6474,-2.56,-2.5661,-2.57,-2.5739,-2.6598,-2.7926,-0.5211,-0.5733,-0.6458,-0.3962,-0.8209,-1.3285,-1.4403,-1.9125,-2.3449,-2.4056,-2.4007,-2.343,-2.2096,-2.2805,-2.3621,-2.3678,-2.4378,0.0,0.0,0.0,0.0,-2.5564,-2.4806,-2.4096,0.0,0.0,-2.1464,-2.0621,-2.0551,-2.0555,-2.0605,-2.0604,-2.0561,-2.0506,-2.0565,-2.0579,-2.0534,-2.0576,-2.0601,-2.0605,-2.0603,-2.0601,-2.0601,-2.0596,-2.0564,-2.0506,-2.0492,-2.0497,0.0,-2.0492,-2.0994,-2.1798,-2.2382,-2.3275,-2.429,-2.4898,-2.5284,-2.5495,-2.5472,-2.5456,-2.5429,-2.5423,-2.5425,-2.5406,-2.5487,-2.5512,-2.5552,-2.5556,-2.5556,-2.5561,-2.5561,-2.5507,-2.5471,-2.5488,-2.5459,-2.5441,-2.546,-2.5446,-2.5459,-2.5498,-2.5483,-2.5456,-2.5449,-2.565,-2.5781,-2.5754,-2.5726,-2.5717,-2.5717,-2.5476,-2.5321,-2.5365,-2.5605,-2.616,-2.7133,-2.7768,-2.8109,-2.8094,-2.8113,-2.7691,-2.6765,-2.6989,-2.6641,-2.5519,-2.584,-2.5887,-2.5593,-2.5677,-2.6015,-2.6601,-2.748,-2.8496,-0.3894,-0.3968,-0.4189,-0.189,-0.5494,-1.019,-1.244,-1.6946,-2.1297,-2.3528,-2.3927,-2.362,-2.2656,-2.3599,-2.4437,-2.4156,-2.4819,-2.5663,0.0,0.0,0.0,-2.5565,0.0,0.0,0.0,-2.2789,-2.1953,-2.1123,-2.0721,-2.056,-2.0604,-2.0605,-2.0564,-2.0497,-2.0566,-2.0582,-2.0537,-2.0578,-2.0601,-2.0605,-2.0601,-2.0596,-2.0598,-2.0572,-2.0538,-2.05,-2.049,-2.0659,0.0,-2.0599,-2.1327,-2.2662,-2.2881,-2.3644,-2.4721,-2.5267,-2.5453,-2.5464,-2.5421,-2.5412,-2.5404,-2.5406,-2.5379,-2.537,-2.5378,-2.5449,-2.5499,-2.5499,-2.5506,-2.5499,-2.5473,-2.5401,-2.536,-2.5388,-2.5364,-2.5335,-2.5354,-2.5365,-2.5367,-2.5423,-2.5378,-2.536,-2.5359,-2.5303,-2.5253,-2.5212,-2.5182,-2.5163,-2.5163,-2.5171,-2.5182,-2.5215,-2.5274,-2.5542,-2.6172,-2.6773,-2.7117,-2.7121,-2.7113,-2.6862,-2.6257,-2.6238,-2.6006,-2.5511,-2.5569,-2.5602,-2.5601,-2.5676,-2.5977,-2.6523,-2.707,-2.7793,0.0,-0.2431,-0.0989,-0.0658,-0.3181,-0.6811,-1.0644,-1.3983,0.0,-2.2949,-2.3771,-2.3648,-2.3959,-2.4464,-2.4716,-2.4265,-2.4675,-2.5427,0.0,-2.6015,0.0,0.0,-2.5503,0.0,-2.4297,-2.3534,-2.2715,-2.1787,-2.1012,-2.0605,-2.0605,-2.0601,-2.0565,-2.0519,-2.0565,-2.0585,-2.0581,-2.0601,-2.0602,-2.0585,-2.0601,-2.0632,-2.0668,-2.0558,-2.0525,0.0,-2.0535,0.0,0.0,-2.0817,-2.1945,-2.4128,-2.3308,-2.3964,-2.5401,-2.5401,-2.5404,-2.5406,-2.5406,-2.5406,-2.5378,-2.5398,-2.5332,-2.5282,-2.5222,-2.5337,-2.548,-2.5486,-2.5479,-2.546,-2.5401,-2.534,-2.5318,-2.536,-2.5293,-2.522,-2.5284,-2.5284,-2.5282,-2.5282,-2.5302,-2.5293,-2.5264,-2.5222,-2.5171,-2.516,-2.5118,-2.5069,-2.5069,-2.5065,-2.5091,-2.5072,-2.5212,-2.5303,-2.5303,-2.5415,-2.5511,-2.5511,-2.5511,-2.5511,-2.5511,-2.5511,-2.5511,-2.5511,-2.5577,-2.5602,-2.5609,-2.5677,-2.5703,-2.5703,-2.5703,-2.6172,-0.8633,0.0,-0.6132,-0.2907,-0.6896,-1.2115,0.0,-1.5452,-1.7629,-2.2113,-2.0411,-1.9166,-2.2562,-2.1166,-2.0741,-2.449,-2.2533,-2.1971,-2.613,-2.6014,0.0,-2.557,-2.5585,-2.4993,-2.3515,-2.3218,-2.2483,-2.0983,-2.0713,-2.0594,-2.0607,-2.0594,-2.0599,-2.0583,-2.0547,-2.0527,-2.0527,-2.0562,-2.0566,-2.0528,-2.0573,-2.0896,-2.1418,-2.0795,-2.0854,-2.1469,-2.0791,0.0,-2.169,-2.1359,-2.2402,-2.4179,-2.3863,-2.4414,-2.5401,-2.5404,-2.5395,-2.5406,-2.5388,-2.537,-2.5322,-2.5253,-2.5233,-2.5222,-2.5192,-2.5234,-2.5265,-2.5265,-2.5264,-2.5274,-2.5244,-2.5252,-2.522,-2.5252,-2.5228,-2.5203,-2.5217,-2.5206,-2.5225,-2.5228,-2.5172,-2.5106,-2.5024,-2.4936,-2.4893,-2.4837,-2.4804,-2.479,-2.479,-2.479,-2.4832,-2.4942,-2.508,-2.5182,-2.5303,-2.5415,-2.5511,-2.5511,-2.5511,-2.5511,-2.5511,-2.5511,-2.5511,-2.5511,-2.5562,-2.5632,-2.568,-2.5683,-2.5703,-2.5703,-2.5703,-2.6172,-1.1569,-0.8906,-0.6245,-0.5868,-0.7177,-0.9775,-1.4373,-1.5656,-1.7063,-2.1368,0.0,-1.993,-1.997,-2.0685,-2.1424,-2.1836,-2.1952,-2.2968,0.0,0.0,-2.5974,-2.564,-2.556,-2.5049,0.0,-2.3288,-2.2522,-2.1247,-2.0804,-2.0591,-2.0605,-2.0609,-2.0596,-2.0603,-2.0527,-2.0506,-2.0547,-2.0547,-2.0543,-2.0497,-2.054,-2.0759,-2.1138,-2.0705,-2.077,-2.1165,-2.0638,0.0,-2.2165,-2.1636,-2.266,-2.4533,-2.414,-2.4514,-2.5265,-2.5322,-2.5351,-2.5351,-2.5252,-2.519,-2.5179,-2.519,-2.519,-2.519,-2.5164,-2.5153,-2.5153,-2.5179,-2.5198,-2.5206,-2.5195,-2.5203,-2.518,-2.5163,-2.5144,-2.5132,-2.5088,-2.5057,-2.5069,-2.5063,-2.5006,-2.494,-2.4874,-2.479,-2.4734,-2.4707,-2.4707,-2.4707,-2.4707,-2.4707,-2.4749,-2.4888,-2.5012,-2.516,-2.5293,-2.5415,-2.5511,-2.5511,-2.5511,-2.5511,-2.5511,-2.5511,-2.5511,-2.555,-2.559,-2.5634,-2.5703,-2.5703,-2.5703,-2.5703,-2.5703,-2.5957,-1.4276,-0.9754,-0.6096,-0.9428,-0.6977,-0.593,-1.4357,0.0,0.0,0.0,0.0,0.0,-1.8541,-2.1532,0.0,-1.9772,-2.284,0.0,-2.444,-2.5624,-2.6332,-2.5644,-2.5531,0.0,-2.4195,-2.3424,-2.2604,-2.1675,-2.0972,-2.0591,-2.0593,-2.0584,-2.0593,-2.0605,-2.0525,-2.0524,-2.0584,-2.0523,-2.0495,-2.0494,-2.0636,-2.0683,-2.0672,-2.069,-2.0749,-2.0823,0.0,0.0,-2.2879,-2.201,-2.2969,-2.4941,-2.4342,-2.4517,-2.5111,-2.5233,-2.5262,-2.5239,-2.5063,-2.4981,-2.4994,-2.5141,-2.5164,-2.5141,-2.5095,-2.507,-2.5082,-2.513,-2.5153,-2.5153,-2.5149,-2.5137,-2.5144,-2.5082,-2.507,-2.5038,-2.4915,-2.4902,-2.4902,-2.4888,-2.4851,-2.4794,-2.4798,-2.4738,-2.4707,-2.4707,-2.4707,-2.4707,-2.4707,-2.4707,-2.4749,-2.4888,-2.5012,-2.5149,-2.5293,-2.5415,-2.5484,-2.5484,-2.5484,-2.5484,-2.5484,-2.5484,-2.5522,-2.5608,-2.5609,-2.5634,-2.5703,-2.5703,-2.5703,-2.5703,-2.5703,-2.5703,-1.9901,-1.7329,-1.4232,-1.3905,-1.108,-1.0545,-1.8836,0.0,0.0,0.0,0.0,0.0,0.0,-2.1919,-2.1239,0.0,0.0,-2.4805,0.0,0.0,-2.5629,-2.5455,0.0,-2.4898,-2.3354,-2.3082,-2.2367,-2.0818,-2.0597,-2.0536,-2.0593,-2.0543,-2.0531,-2.0605,-2.0527,-2.0501,-2.0516,-2.0511,-2.0465,-2.0418,-2.1219,-2.154,-2.1434,-2.1541,-2.1884,-2.2326,0.0,-2.2209,-2.3632,-2.3366,-2.3942,-2.4975,-2.469,-2.4809,-2.5096,-2.5111,-2.5087,-2.5031,-2.5019,-2.4929,-2.485,-2.5051,-2.5051,-2.4942,-2.4929,-2.4934,-2.4929,-2.4942,-2.4942,-2.4942,-2.4961,-2.4961,-2.4929,-2.4929,-2.4934,-2.4934,-2.4902,-2.4902,-2.4888,-2.4823,-2.4808,-2.4779,-2.4738,-2.4707,-2.4707,-2.4707,-2.4707,-2.4707,-2.4707,-2.4707,-2.4749,-2.4888,-2.5012,-2.5149,-2.5292,-2.5369,-2.5421,-2.5423,-2.5412,-2.5421,-2.5423,-2.5412,-2.5476,-2.5608,-2.5609,-2.5634,-2.5703,-2.5703,-2.5703,-2.5703,-2.5703,-2.5703,-2.0347,-1.9863,-1.888,-1.8435,-1.606,-1.5468,-2.1687,0.0,0.0,0.0,0.0,0.0,0.0,0.0,-2.3323,-2.5663,0.0,-2.5602,-2.2314,-2.3959,-2.548,0.0,0.0,-2.4277,-2.3101,-2.2533,-2.1758,-2.0589,-2.0508,-2.0513,-2.0539,-2.0555,-2.0551,-2.0559,-2.0527,-2.0498,-2.0494,-2.0467,-2.0425,-2.0419,-2.0847,-2.1217,-2.1556,-2.1604,-2.2014,-2.2623,0.0,-2.2612,-2.3626,-2.3493,-2.3956,-2.4719,-2.467,-2.4693,-2.4776,-2.4828,-2.4741,-2.462,-2.4697,-2.4682,-2.4666,-2.4837,-2.4893,-2.4902,-2.4865,-2.4851,-2.4851,-2.4808,-2.4847,-2.4902,-2.4902,-2.4902,-2.4888,-2.4847,-2.4851,-2.4851,-2.4808,-2.4794,-2.4779,-2.4749,-2.4753,-2.4738,-2.4695,-2.4695,-2.4695,-2.4695,-2.4695,-2.4726,-2.4808,-2.4823,-2.4893,-2.5087,-2.5168,-2.5252,-2.5351,-2.5378,-2.5404,-2.5387,-2.5395,-2.5404,-2.5387,-2.5395,-2.5464,-2.5589,-2.5595,-2.5637,-2.5702,-2.5702,-2.5703,-2.5703,-2.5703,-2.5703,-1.943,-2.0357,-2.1095,-2.142,-1.9284,-1.8366,-2.3185,-2.3259,0.0,0.0,0.0,0.0,0.0,-2.0161,0.0,-2.3345,-2.523,-2.6383,-2.5499,-2.5425,-2.5371,-2.5123,-2.4516,-2.3721,-2.2766,-2.2018,-2.1281,-2.052,-2.0488,-2.0476,-2.0487,-2.0542,-2.0543,-2.0504,-2.0527,-2.052,-2.0494,-2.0425,-2.04,-2.0405,-2.0596,-2.0855,-2.1207,-2.1405,-2.1767,-2.2248,-2.236,-2.2784,-2.3441,-2.3537,-2.3923,-2.4446,-2.4512,-2.4508,-2.4472,-2.4519,-2.4441,-2.4321,-2.4425,-2.4459,-2.4495,-2.462,-2.476,-2.4832,-2.4794,-2.4783,-2.4783,-2.4723,-2.4764,-2.4847,-2.4847,-2.4847,-2.4832,-2.4798,-2.4783,-2.4753,-2.4692,-2.4676,-2.4676,-2.4676,-2.4676,-2.4679,-2.4682,-2.4666,-2.4666,-2.4666,-2.4666,-2.4711,-2.4823,-2.4832,-2.4915,-2.5164,-2.5209,-2.5292,-2.5397,-2.5397,-2.5369,-2.5369,-2.5397,-2.5397,-2.5369,-2.5397,-2.5456,-2.5564,-2.5585,-2.5634,-2.5698,-2.5698,-2.57,-2.5702,-2.5703,-2.5703,-1.8795,-1.9718,-2.0391,-2.1283,-1.8558,0.0,-2.2893,-2.0204,0.0,-2.4107,0.0,0.0,0.0,-1.639,-1.7238,-1.7237,-2.2557,-2.6373,-2.5444,0.0,-2.5098,-2.4289,-2.4128,-2.3469,-2.1855,-2.164,-2.1268,-2.0464,-2.0399,-2.0418,-2.0419,-2.0476,-2.0506,-2.0501,-2.0559,-2.0566,-2.0504,-2.0425,-2.0395,-2.0416,-2.1153,-2.1082,-2.0324,-2.1122,-2.1388,-2.1247,-2.2054,-2.2703,-2.327,-2.4072,-2.4373,-2.4303,-2.4321,-2.4356,-2.4407,-2.4353,-2.4301,-2.4303,-2.4303,-2.4358,-2.4429,-2.4559,-2.4657,-2.4704,-2.4707,-2.4707,-2.4707,-2.4707,-2.4711,-2.4714,-2.4707,-2.4704,-2.4707,-2.4714,-2.4717,-2.4682,-2.4615,-2.4615,-2.4615,-2.4615,-2.4615,-2.4615,-2.4615,-2.4615,-2.4615,-2.4615,-2.4615,-2.4615,-2.4613,-2.4613,-2.4692,-2.4818,-2.4955,-2.5134,-2.5389,-2.5332,-2.5313,-2.5313,-2.5361,-2.537,-2.5313,-2.5361,-2.5423,-2.5517,-2.5561,-2.5623,-2.5709,-2.5709,-2.5709,-2.5709,-2.5698,-2.5702,-1.713,-1.8052,-1.886,-1.8863,-1.7656,0.0,0.0,-2.1164,-1.914,-1.8734,-2.0725,0.0,0.0,0.0,-2.0266,-1.5885,-2.1303,-2.5779,-2.4917,-2.4685,-2.4471,-2.4147,-2.3192,-2.2293,-2.1656,-2.112,-2.0672,-2.0424,-2.0411,-2.0379,-2.0332,-2.0405,-2.0461,-2.0506,-2.0521,-2.0541,-2.0566,-2.0506,-2.0425,-2.0334,-2.057,-2.0718,-2.084,-2.1113,-2.146,-2.1806,-2.2051,-2.2532,-2.3171,-2.3451,-2.3823,-2.4247,-2.4152,-2.4039,-2.3963,-2.404,-2.3999,-2.3935,-2.3978,-2.4037,-2.4134,-2.4284,-2.4392,-2.4479,-2.4596,-2.4629,-2.4629,-2.4629,-2.4647,-2.465,-2.4698,-2.4663,-2.4647,-2.4631,-2.465,-2.4631,-2.4615,-2.4599,-2.4599,-2.4599,-2.4599,-2.4599,-2.4528,-2.4547,-2.4547,-2.4547,-2.4547,-2.4578,-2.4704,-2.4734,-2.476,-2.485,-2.4987,-2.5138,-2.5313,-2.5313,-2.5303,-2.5303,-2.5322,-2.5341,-2.5303,-2.5322,-2.5385,-2.5493,-2.5515,-2.5593,-2.5707,-2.5707,-2.5707,-2.5707,-2.5691,-2.5694,-1.6669,-1.7625,-1.8402,-1.7523,0.0,0.0,-1.8889,-1.8836,-1.8164,-1.6914,-1.6327,-1.5661,-1.4354,0.0,0.0,0.0,-2.0497,-2.5102,-2.4473,-2.4225,-2.3906,-2.3331,-2.2294,-2.1488,-2.122,-2.066,-2.034,-2.0378,-2.0392,-2.0365,-2.0302,-2.0376,-2.0437,-2.0458,-2.0487,-2.0521,-2.056,-2.0477,-2.0371,-2.0268,-2.0088,-2.0275,-2.0793,-2.0671,-2.0889,-2.1363,-2.1507,-2.199,-2.2681,-2.2831,-2.3344,-2.3996,-2.3917,-2.3774,-2.3667,-2.3771,-2.3725,-2.3634,-2.3703,-2.3771,-2.3858,-2.3999,-2.4154,-2.4339,-2.4462,-2.4566,-2.4599,-2.4599,-2.458,-2.458,-2.4615,-2.4615,-2.458,-2.4564,-2.4564,-2.4564,-2.4566,-2.4566,-2.4566,-2.4566,-2.4566,-2.4549,-2.4513,-2.4497,-2.4497,-2.4497,-2.4497,-2.4564,-2.4689,-2.4749,-2.4818,-2.4943,-2.5049,-2.516,-2.5293,-2.5303,-2.5303,-2.5303,-2.5303,-2.5303,-2.5303,-2.5303,-2.5357,-2.5498,-2.5504,-2.5576,-2.5707,-2.5707,-2.5707,-2.5707,-2.5707,-2.5707,-1.7778,-1.8819,-1.929,0.0,0.0,0.0,-1.2666,-1.2081,-1.4121,-1.9969,-1.2393,-0.6509,-1.2402,-0.8718,0.0,-1.3259,-2.0009,-2.4385,-2.4121,-2.4049,-2.338,-2.1665,-2.15,-2.1204,-2.0327,-2.0336,-2.0371,-2.0315,-2.0371,-2.0357,-2.025,-2.0405,-2.0453,-2.0366,-2.0458,-2.051,-2.0495,-2.0365,-2.0258,-2.02,-1.9909,-1.9816,-1.9877,-1.9701,-1.9553,-1.9541,-2.0262,-2.1013,-2.1752,-2.2427,-2.3053,-2.3588,-2.3588,-2.3602,-2.3611,-2.3611,-2.3567,-2.3494,-2.3494,-2.3594,-2.3692,-2.3692,-2.3979,-2.4284,-2.4284,-2.4428,-2.4599,-2.4599,-2.4547,-2.4495,-2.4495,-2.4547,-2.458,-2.4512,-2.4495,-2.4495,-2.4517,-2.45,-2.45,-2.45,-2.45,-2.45,-2.45,-2.45,-2.45,-2.45,-2.45,-2.45,-2.45,-2.4631,-2.479,-2.5061,-2.5096,-2.516,-2.5293,-2.5303,-2.5303,-2.5303,-2.5303,-2.5303,-2.5303,-2.5303,-2.5357,-2.5498,-2.5504,-2.5576,-2.5707,-2.5707,-2.5707,-2.5707,-2.5707,-2.5707,-1.6625,-1.7474,0.0,-1.684,0.0,0.0,0.0,-0.8938,0.0,0.0,-0.916,-0.7109,-1.1975,-1.4966,0.0,-1.4052,-1.8955,-2.3124,-2.3429,-2.0701,-1.8472,-1.7905,-1.7365,-1.6926,-1.6673,-1.8888,-2.0346,-2.0377,-2.0357,-1.9435,-1.7387,-1.9284,-1.948,-1.7443,-1.9363,-2.0463,-2.0574,-2.0152,-2.0,-2.0115,-1.9617,-1.9489,-1.9669,-1.9527,-1.9398,-1.9311,-1.9468,-1.9934,-2.0662,-2.1958,-2.2901,-2.3531,-2.3526,-2.3435,-2.3319,-2.343,-2.3383,-2.3289,-2.3401,-2.3389,-2.3394,-2.3732,-2.3837,-2.3881,-2.4247,-2.4411,-2.4482,-2.4517,-2.4534,-2.4498,-2.4498,-2.4515,-2.4515,-2.4498,-2.4498,-2.4498,-2.45,-2.45,-2.45,-2.45,-2.45,-2.45,-2.45,-2.45,-2.45,-2.45,-2.45,-2.4515,-2.4631,-2.4764,-2.4915,-2.5072,-2.5096,-2.516,-2.5293,-2.5303,-2.5303,-2.5303,-2.5303,-2.5303,-2.5303,-2.5303,-2.5357,-2.5498,-2.5504,-2.5576,-2.5707,-2.5707,-2.5707,-2.5707,-2.5707,-2.5707,-1.8246,-1.9024,0.0,-1.8022,-1.8135,-1.6222,-0.7058,0.0,0.0,0.0,-0.6352,-0.7113,-1.5166,-1.7223,0.0,-1.5225,-1.9038,-2.1257,-1.8425,-1.707,-1.5691,-1.3933,-1.3301,-1.2966,-1.2957,-1.6172,-1.7689,-1.6258,-1.7682,-1.7255,-1.407,-1.5841,-1.667,-1.607,-1.7749,-1.9,-1.9766,-1.9425,-1.9206,-1.9144,-1.8574,-1.8572,-1.9038,-1.9196,-1.9202,-1.9071,-1.9308,-1.9775,-2.0479,-2.1722,-2.2633,-2.3271,-2.3247,-2.3193,-2.3095,-2.3168,-2.3144,-2.3095,-2.3168,-2.3144,-2.3126,-2.3399,-2.354,-2.3671,-2.4018,-2.4247,-2.4412,-2.4482,-2.45,-2.45,-2.4465,-2.4482,-2.45,-2.45,-2.45,-2.45,-2.45,-2.45,-2.45,-2.45,-2.45,-2.45,-2.45,-2.45,-2.45,-2.45,-2.4551,-2.4645,-2.4832,-2.4942,-2.5024,-2.516,-2.5171,-2.5203,-2.5284,-2.5303,-2.5303,-2.5303,-2.5303,-2.5303,-2.535,-2.535,-2.5398,-2.5498,-2.5526,-2.5598,-2.5707,-2.5707,-2.5707,-2.5707,-2.5707,-2.5707,-2.1324,-2.2079,-2.2122,-2.0461,-1.9122,0.0,-0.291,0.0203,-0.0664,-0.4843,0.0,-0.698,-2.02,-1.7018,-1.3513,-1.6985,-1.9672,-1.8849,-1.1742,-1.3383,-1.3846,-0.9939,-0.9105,-0.8831,-0.8764,-1.2363,-1.3446,-1.0381,-1.3681,-1.4262,-1.0609,-1.1061,-1.2613,-1.5156,-1.5507,-1.6429,-1.809,-1.8026,-1.7868,-1.7629,-1.7153,-1.7342,-1.8133,-1.8735,-1.8914,-1.8787,-1.9461,-2.0103,-2.074,-2.1534,-2.2233,-2.2789,-2.2859,-2.2893,-2.2876,-2.2893,-2.2893,-2.2893,-2.2893,-2.2893,-2.2876,-2.2919,-2.3236,-2.3588,-2.3692,-2.4037,-2.4394,-2.4465,-2.4482,-2.4465,-2.4412,-2.4447,-2.4482,-2.4482,-2.4482,-2.45,-2.45,-2.45,-2.45,-2.45,-2.45,-2.45,-2.45,-2.45,-2.45,-2.4517,-2.4645,-2.4818,-2.5061,-2.5115,-2.516,-2.5293,-2.5303,-2.5303,-2.5303,-2.5303,-2.5303,-2.5303,-2.5303,-2.5331,-2.5406,-2.5387,-2.5432,-2.551,-2.558,-2.5639,-2.5707,-2.5707,-2.5707,-2.5707,-2.5707,-2.5707,-2.0418,-2.1068,0.0,-2.1334,-1.4042,-0.5041,0.2399,0.7857,0.8532,-0.137,-0.453,-0.8783,-1.9497,-2.0126,-1.9451,-2.0746,-1.8269,-1.5916,-1.5103,-1.0706,-0.7463,-0.7084,-0.3795,-0.1538,-0.155,-0.7248,-1.1669,-1.3412,-1.3816,-1.2295,-0.8382,-0.8961,-0.9401,-0.9333,-1.1739,-1.3712,-1.5117,-1.496,-1.5605,0.0,-1.661,-1.6751,-1.7415,-1.7983,-1.8336,-1.8483,-1.8537,-1.8974,-1.9693,-2.0437,-2.1174,-2.1867,-2.2548,-2.279,-2.2764,-2.2816,-2.2816,-2.2816,-2.2816,-2.2816,-2.2868,-2.307,-2.3283,-2.3482,-2.3774,-2.4037,-2.4266,-2.4321,-2.4339,-2.4339,-2.4339,-2.4339,-2.4339,-2.4339,-2.4375,-2.443,-2.443,-2.443,-2.443,-2.4482,-2.45,-2.45,-2.45,-2.45,-2.4551,-2.4629,-2.4861,-2.5024,-2.5084,-2.5182,-2.5264,-2.5303,-2.5303,-2.5303,-2.5303,-2.5303,-2.5303,-2.5303,-2.5303,-2.5331,-2.5406,-2.5387,-2.546,-2.5585,-2.5598,-2.5639,-2.5707,-2.5707,-2.5707,-2.5707,-2.5707,-2.5707,-2.1001,0.0,0.0,-2.2422,0.0,-0.3015,-0.0207,0.7757,1.1977,0.2819,-0.1955,-0.6554,-1.3378,-1.6182,-1.6479,-1.3493,-1.2121,-1.0467,-0.7695,-0.5662,-0.4099,-0.309,-0.0808,0.0696,0.0696,-0.2665,-0.5537,-0.7158,-0.9351,-0.8668,-0.4134,-0.5497,-0.6722,-0.7379,-0.956,-1.1434,-1.2946,-1.3458,-1.4198,-1.5196,-1.5213,-1.5755,-1.6751,-1.7466,-1.798,-1.8243,-1.8151,-1.8726,-1.9773,-2.0151,-2.0967,-2.203,-2.2478,-2.2632,-2.2605,-2.2632,-2.2685,-2.2712,-2.2712,-2.2738,-2.279,-2.2919,-2.3164,-2.3437,-2.3649,-2.3939,-2.421,-2.4284,-2.4284,-2.4284,-2.4266,-2.4284,-2.4284,-2.4266,-2.4303,-2.4339,-2.4339,-2.4394,-2.4412,-2.4447,-2.4482,-2.4534,-2.4582,-2.4647,-2.4738,-2.487,-2.5013,-2.5122,-2.5201,-2.5253,-2.5303,-2.5303,-2.5303,-2.5303,-2.5303,-2.5303,-2.5303,-2.5303,-2.5331,-2.5382,-2.5446,-2.548,-2.5526,-2.5601,-2.5639,-2.5673,-2.5707,-2.5707,-2.5707,-2.5707,-2.5707,-2.5707,-2.1616,0.0,-2.2233,-2.1957,-1.3768,0.0,-0.3806,0.4903,1.1372,0.6926,0.1918,-0.2812,-0.6555,-1.009,-1.0574,-0.4844,-0.5564,-0.4857,0.0775,-0.0936,-0.1854,0.053,0.0764,0.0674,0.0584,0.0506,0.0529,0.0711,-0.3687,-0.455,-0.0444,-0.2324,-0.4468,-0.6398,-0.7601,-0.904,-1.081,-1.2072,-1.2844,-1.3198,-1.3931,-1.4911,-1.6105,-1.696,-1.7549,-1.7922,-1.7922,-1.8688,-1.9947,-2.0067,-2.0952,-2.2245,-2.2409,-2.246,-2.246,-2.2487,-2.2542,-2.2579,-2.2596,-2.2632,-2.2685,-2.2738,-2.3042,-2.3392,-2.3482,-2.384,-2.421,-2.4284,-2.4284,-2.4284,-2.421,-2.4247,-2.4266,-2.4209,-2.4228,-2.4266,-2.4284,-2.4339,-2.4376,-2.4394,-2.443,-2.4498,-2.4613,-2.4783,-2.4926,-2.5032,-2.5082,-2.5164,-2.5283,-2.5274,-2.5274,-2.5274,-2.5274,-2.5274,-2.5274,-2.5293,-2.5303,-2.5322,-2.5365,-2.5432,-2.5515,-2.5561,-2.5605,-2.5613,-2.5676,-2.5707,-2.5707,-2.5707,-2.5707,-2.5707,-2.5707,-2.5707,-2.0427,0.0,-2.1545,0.0,-1.4173,-1.0161,0.0,0.0,0.6498,0.0,0.5748,0.0133,-0.485,-0.7117,-0.7904,-0.6982,-0.4187,-0.2141,-0.2264,-0.028,0.1173,0.129,0.0941,0.0539,0.0134,0.0307,0.0481,0.067,-0.057,-0.1268,-0.1068,-0.2014,-0.2752,-0.312,-0.4095,-0.5608,-0.7748,-0.8882,-1.0552,-1.2785,-1.3966,-1.4909,-1.5593,-1.613,-1.667,-1.7167,-1.7519,-1.8104,-1.8876,-1.9563,-2.0344,-2.1183,-2.2012,-2.2338,-2.2338,-2.246,-2.2515,-2.2515,-2.2579,-2.2569,-2.2579,-2.2868,-2.314,-2.3369,-2.3588,-2.3917,-2.4209,-2.4209,-2.4209,-2.4209,-2.4209,-2.4209,-2.4209,-2.419,-2.4209,-2.4209,-2.421,-2.421,-2.4229,-2.4303,-2.4321,-2.4321,-2.4339,-2.4607,-2.4818,-2.4832,-2.5043,-2.5182,-2.5222,-2.5203,-2.5203,-2.5203,-2.5203,-2.5203,-2.5203,-2.5262,-2.5313,-2.5385,-2.5398,-2.546,-2.5589,-2.5598,-2.5636,-2.5683,-2.5705,-2.5707,-2.5707,-2.5707,-2.5707,-2.5707,-2.5707,-2.5707,-2.0786,-2.2219,-2.2808,0.0,-1.7337,-1.3156,-0.7935,-0.3288,0.1211,0.5709,0.4296,0.2285,0.2373,-0.062,-0.2266,0.0265,0.1973,0.2581,0.1413,0.2282,0.2667,0.1698,0.1435,0.1077,0.0449,0.0269,0.0225,0.0314,-0.0135,-0.0763,-0.1655,-0.2375,-0.2868,-0.2987,-0.4085,-0.5374,-0.678,-0.8238,-1.0288,-1.2869,-1.3789,-1.4533,-1.5181,-1.5535,-1.6074,-1.6783,-1.7248,-1.7914,-1.8768,-1.9498,-2.0367,-2.1288,-2.196,-2.2225,-2.2271,-2.2366,-2.2405,-2.246,-2.2487,-2.2579,-2.2764,-2.2893,-2.3212,-2.3544,-2.3671,-2.3937,-2.419,-2.419,-2.419,-2.419,-2.419,-2.419,-2.419,-2.419,-2.419,-2.419,-2.419,-2.421,-2.421,-2.4284,-2.4461,-2.4559,-2.4526,-2.4785,-2.5025,-2.5025,-2.5122,-2.519,-2.5212,-2.5192,-2.5192,-2.5192,-2.5192,-2.5192,-2.5192,-2.5302,-2.537,-2.5393,-2.5466,-2.554,-2.5598,-2.5642,-2.5676,-2.5707,-2.5707,-2.5707,-2.5707,-2.5707,-2.5707,-2.5707,-2.5707,-2.5707,0.0,0.0,-2.355,-2.4422,-2.0908,-1.686,0.0,0.0,-0.2648,0.0,0.3756,0.5393,0.8463,0.528,0.3267,0.6514,0.6687,0.6047,0.4885,0.4204,0.3426,0.2324,0.188,0.1435,0.0943,0.0584,0.018,-0.0315,-0.0314,-0.0807,-0.1928,-0.2556,-0.2998,-0.3249,-0.4347,-0.5432,-0.6507,-0.8512,-1.0641,-1.2928,-1.3514,-1.4111,-1.4766,-1.5045,-1.555,-1.6239,-1.6818,-1.7593,-1.8466,-1.9056,-2.0019,-2.1231,-2.1637,-2.1943,-2.2152,-2.2254,-2.231,-2.2394,-2.246,-2.2659,-2.285,-2.3028,-2.3353,-2.3692,-2.3774,-2.3958,-2.419,-2.419,-2.419,-2.419,-2.419,-2.419,-2.419,-2.419,-2.419,-2.419,-2.419,-2.419,-2.4229,-2.4321,-2.4526,-2.4716,-2.47,-2.4929,-2.5111,-2.5111,-2.5164,-2.5206,-2.5209,-2.519,-2.519,-2.519,-2.519,-2.519,-2.519,-2.5312,-2.5388,-2.5401,-2.5531,-2.5604,-2.5629,-2.5676,-2.5707,-2.5707,-2.5707,-2.5707,-2.5707,-2.5707,-2.5707,-2.5707,-2.5707,-2.5707,0.0,-2.181,0.0,-2.368,-2.4069,-2.258,0.0,0.0,-0.3909,0.1646,0.6973,1.0519,1.0187,0.8634,0.7361,0.7203,0.6959,0.6362,0.5226,0.422,0.3605,0.3517,0.2142,0.1254,0.1344,0.1344,0.0583,-0.1214,-0.0538,-0.0537,-0.1658,-0.1975,-0.2373,-0.2898,-0.3612,-0.4778,-0.6464,-0.9313,-1.1328,-1.2638,-1.3242,-1.3828,-1.4351,-1.4735,-1.4968,-1.515,-1.6062,-1.6784,-1.7399,-1.7753,-1.8852,-2.0289,-2.0582,-2.1226,-2.2044,-2.2168,-2.2254,-2.2366,-2.2659,-2.2764,-2.2799,-2.3389,-2.358,-2.3649,-2.3917,-2.4094,-2.419,-2.419,-2.419,-2.419,-2.419,-2.419,-2.419,-2.419,-2.419,-2.419,-2.419,-2.419,-2.4228,-2.4373,-2.4407,-2.4493,-2.4657,-2.4818,-2.4915,-2.4915,-2.5069,-2.5191,-2.5191,-2.5191,-2.5191,-2.5191,-2.5191,-2.5191,-2.5191,-2.5252,-2.5331,-2.5406,-2.5537,-2.5628,-2.5687,-2.5701,-2.5707,-2.5707,-2.5707,-2.5707,-2.5707,-2.5707,-2.5707,-2.5707,-2.5707,-2.5707,-2.069,0.0,0.0,-2.3549,-2.3913,-2.3322,-2.0934,-1.5265,-0.8899,-0.3341,0.2648,0.7706,1.027,0.9658,0.8748,0.8683,0.8423,0.7792,0.6609,0.5967,0.5148,0.3986,0.2932,0.2315,0.2366,0.1385,0.0716,0.0672,-0.0224,-0.103,-0.1658,-0.2105,-0.2726,-0.3524,-0.3792,-0.4865,-0.6932,-0.8993,-1.0644,-1.1888,-1.273,-1.3522,-1.43,-1.4547,-1.4783,-1.4998,-1.527,-1.5905,-1.6773,-1.7493,-1.8617,-1.9922,-2.0401,-2.1135,-2.1957,-2.2123,-2.2214,-2.2254,-2.2432,-2.2596,-2.2747,-2.3157,-2.3399,-2.3588,-2.3896,-2.4074,-2.4133,-2.419,-2.419,-2.419,-2.419,-2.419,-2.419,-2.419,-2.419,-2.419,-2.419,-2.4284,-2.4338,-2.4389,-2.4554,-2.4741,-2.4818,-2.4993,-2.5082,-2.5082,-2.5137,-2.5191,-2.5191,-2.5191,-2.5191,-2.5191,-2.5236,-2.5269,-2.5269,-2.537,-2.5445,-2.5466,-2.5551,-2.5625,-2.571,-2.5701,-2.5707,-2.5707,-2.5707,-2.5707,-2.5707,-2.5707,-2.5707,-2.5707,-2.5707,-2.5707,-2.0282,-2.1043,0.0,0.0,-2.3179,-2.3068,-2.3566,-1.8252,-1.222,-0.8717,-0.3125,0.2087,0.5209,0.6343,0.7362,0.9107,0.9217,0.8659,0.7363,0.6784,0.593,0.4509,0.3635,0.2978,0.2581,0.165,0.1074,0.1166,0.0089,0.0,-0.1478,-0.2239,-0.3081,-0.4096,-0.4443,-0.5465,-0.7273,-0.877,-1.007,-1.1281,-1.2401,-1.3272,-1.3947,-1.4292,-1.4578,-1.4797,-1.4718,-1.5222,-1.6093,-1.6809,-1.7822,-1.9026,-1.9829,-2.0685,-2.1595,-2.1977,-2.2135,-2.2152,-2.2349,-2.2525,-2.2721,-2.301,-2.3289,-2.3544,-2.3756,-2.3937,-2.4074,-2.4113,-2.4113,-2.4151,-2.417,-2.417,-2.417,-2.419,-2.417,-2.4171,-2.4266,-2.4338,-2.4407,-2.4493,-2.4712,-2.4915,-2.4987,-2.5113,-2.5191,-2.5191,-2.5191,-2.5191,-2.5191,-2.5191,-2.5191,-2.5191,-2.5258,-2.5311,-2.5311,-2.5423,-2.551,-2.5499,-2.5556,-2.5621,-2.5662,-2.5696,-2.5703,-2.5707,-2.5707,-2.5707,-2.5707,-2.5707,-2.5707,-2.5707,-2.5707,-2.5707,0.0,0.0,0.0,0.0,0.0,0.0,-2.3787,0.0,-1.3302,-1.3788,-0.9542,-0.5478,-0.4665,-0.1139,0.3246,0.8198,0.9147,0.8795,0.7426,0.6543,0.5782,0.5091,0.4176,0.3202,0.2043,0.214,0.1655,0.018,0.0448,0.0134,-0.1119,-0.2281,-0.3439,-0.453,-0.5518,-0.6495,-0.7487,-0.8666,-0.9778,-1.0805,-1.2176,-1.2998,-1.3216,-1.3947,-1.4319,-1.4429,-1.4483,-1.4811,-1.5298,-1.5595,-1.6418,-1.7628,-1.874,-1.9836,-2.0872,-2.1702,-2.1982,-2.2056,-2.2535,-2.2642,-2.2651,-2.2993,-2.3289,-2.35,-2.3522,-2.3735,-2.3996,-2.3996,-2.3996,-2.4016,-2.4094,-2.4094,-2.4113,-2.417,-2.4151,-2.4153,-2.4373,-2.4407,-2.4476,-2.4657,-2.4823,-2.4974,-2.5168,-2.5191,-2.5191,-2.5191,-2.5191,-2.5191,-2.5191,-2.5191,-2.5191,-2.5191,-2.5269,-2.5292,-2.5311,-2.5432,-2.5503,-2.5503,-2.5568,-2.56,-2.5601,-2.5662,-2.5696,-2.5707,-2.5707,-2.5707,-2.5707,-2.5707,-2.5707,-2.5707,-2.5707,-2.5707,-1.94,0.0,0.0,0.0,0.0,0.0,0.0,0.0,-1.2809,-1.3696,-0.8896,-0.4577,-0.4826,-0.3639,-0.1167,0.3227,0.6886,0.8869,0.7931,0.7259,0.6501,0.5486,0.4652,0.3865,0.3075,0.2499,0.1923,0.0,0.0627,0.0045,-0.0313,-0.2182,-0.3517,-0.4085,-0.5341,-0.6374,-0.714,-0.8292,-0.9403,-1.0522,-1.1387,-1.2342,-1.3285,-1.3522,-1.3954,-1.4483,-1.4401,-1.4624,-1.5118,-1.5551,-1.6504,-1.7797,-1.8683,-1.9752,-2.0799,-2.1516,-2.184,-2.1986,-2.222,-2.2338,-2.2405,-2.2935,-2.3164,-2.3289,-2.3671,-2.3837,-2.3955,-2.4054,-2.4074,-2.4094,-2.4151,-2.417,-2.417,-2.4208,-2.419,-2.4209,-2.4373,-2.451,-2.4673,-2.4818,-2.4987,-2.5125,-2.518,-2.5191,-2.5191,-2.5191,-2.5191,-2.5191,-2.5191,-2.5191,-2.5214,-2.5269,-2.5332,-2.5397,-2.544,-2.5517,-2.5577,-2.5577,-2.5585,-2.56,-2.5601,-2.5662,-2.5696,-2.5707,-2.5707,-2.5707,-2.5707,-2.5707,-2.5707,-2.5707,-2.5707,-2.5707,-1.9429,-1.9936,-2.0534,0.0,0.0,0.0,-2.2786,-1.9608,-1.6728,0.0,-1.5124,-1.2306,-1.1804,-0.9896,-0.7377,-0.4287,0.0131,0.4291,0.7495,0.7398,0.6677,0.583,0.4831,0.3957,0.3388,0.2588,0.1967,0.1612,0.0716,-0.0,-0.0447,-0.223,-0.3432,-0.3822,-0.5082,-0.6118,-0.6797,-0.7923,-0.9022,-1.004,-1.0836,-1.1718,-1.2602,-1.317,-1.3643,-1.4084,-1.4254,-1.4592,-1.5059,-1.5448,-1.6222,-1.7216,-1.8235,-1.9239,-2.024,-2.1056,-2.1562,-2.1869,-2.214,-2.2237,-2.2371,-2.2782,-2.3084,-2.3324,-2.3642,-2.3792,-2.3876,-2.3996,-2.4054,-2.4094,-2.4113,-2.4172,-2.4266,-2.4284,-2.4321,-2.4409,-2.4572,-2.47,-2.4808,-2.4888,-2.5057,-2.5191,-2.5191,-2.5191,-2.5191,-2.5191,-2.5191,-2.5191,-2.5191,-2.5191,-2.5214,-2.5258,-2.5351,-2.5395,-2.5415,-2.5524,-2.5589,-2.557,-2.5587,-2.56,-2.5609,-2.564,-2.5655,-2.5651,-2.5698,-2.5703,-2.5707,-2.5707,-2.5707,-2.5707,-2.5707,-2.5707,-1.9673,-2.0307,-2.1178,0.0,0.0,0.0,-2.3137,-2.2709,-2.2327,0.0,-2.3824,-2.3306,-2.1398,-1.7618,-1.4132,-1.2097,-0.8567,-0.3177,0.5225,0.5705,0.5214,0.5193,0.4069,0.324,0.3196,0.2586,0.1967,0.1343,0.0672,-0.0134,-0.1074,-0.2328,-0.322,-0.3653,-0.4778,-0.5722,-0.6489,-0.7585,-0.8578,-0.9518,-1.0456,-1.1175,-1.1678,-1.2777,-1.3353,-1.3547,-1.4026,-1.456,-1.5074,-1.5359,-1.5752,-1.6347,-1.7599,-1.8621,-1.952,-2.0439,-2.1197,-2.1857,-2.2123,-2.2298,-2.2422,-2.2703,-2.3126,-2.3504,-2.3526,-2.3664,-2.3816,-2.3896,-2.3996,-2.4094,-2.4054,-2.4154,-2.4301,-2.4355,-2.4476,-2.4607,-2.4799,-2.4842,-2.4861,-2.4902,-2.5057,-2.5191,-2.5191,-2.5191,-2.5191,-2.5191,-2.5191,-2.5191,-2.5191,-2.5191,-2.5191,-2.5203,-2.5322,-2.537,-2.5331,-2.548,-2.5544,-2.5495,-2.5538,-2.5582,-2.5581,-2.5581,-2.5595,-2.5601,-2.5658,-2.5693,-2.5705,-2.5707,-2.5707,-2.5707,-2.5707,-2.5707,-2.1222,-2.1426,0.0,0.0,0.0,0.0,-2.0995,-2.108,-2.1429,0.0,-2.1396,-2.1163,-2.0843,-1.9849,-1.7602,-1.3008,-1.1556,-0.9115,-0.366,-0.3577,-0.3054,-0.0221,-0.03,0.0354,0.2822,0.2951,0.2645,0.2062,0.0448,-0.0718,-0.1299,-0.2148,-0.2812,-0.329,-0.4164,-0.5206,-0.6489,-0.7245,-0.8277,-0.9518,-1.0176,-1.0971,-1.1836,-1.227,-1.2836,-1.3581,-1.3874,-1.4319,-1.4887,-1.5074,-1.5666,-1.6537,-1.755,-1.8529,-1.9492,-2.027,-2.1097,-2.184,-2.2237,-2.2385,-2.2502,-2.314,-2.3394,-2.3549,-2.3689,-2.3774,-2.3816,-2.3955,-2.4054,-2.4113,-2.4151,-2.419,-2.4228,-2.4228,-2.4247,-2.4321,-2.4458,-2.4508,-2.4588,-2.4861,-2.5057,-2.5191,-2.5191,-2.5191,-2.5191,-2.5191,-2.5191,-2.5191,-2.5191,-2.5191,-2.5214,-2.5261,-2.5292,-2.5332,-2.5388,-2.5423,-2.5421,-2.5432,-2.5421,-2.5449,-2.5511,-2.5517,-2.5546,-2.5601,-2.5605,-2.5655,-2.5693,-2.5703,-2.5707,-2.5707,-2.5707,-2.5707,-2.1753,0.0,0.0,-2.1746,0.0,0.0,0.0,-2.1465,-2.1687,-2.2357,-2.1713,-2.0972,-2.0885,-2.0338,-1.8886,-1.5724,-1.5518,-1.4903,-1.2394,-0.8931,-0.595,-0.4021,-0.2602,-0.1477,-0.065,0.1642,0.2598,0.1389,-0.0179,-0.1212,-0.1614,-0.2061,-0.246,-0.2851,-0.3818,-0.4774,-0.5637,-0.6729,-0.7859,-0.9022,-0.9697,-1.0475,-1.1431,-1.1945,-1.2591,-1.3285,-1.3695,-1.4235,-1.4839,-1.5165,-1.5681,-1.6316,-1.6948,-1.7845,-1.8844,-1.9645,-2.0565,-2.1513,-2.2167,-2.2582,-2.2883,-2.3348,-2.3553,-2.3685,-2.3774,-2.3816,-2.3858,-2.3917,-2.4016,-2.4094,-2.4151,-2.421,-2.4303,-2.4303,-2.4375,-2.4462,-2.4545,-2.4543,-2.4591,-2.4779,-2.4879,-2.4993,-2.5168,-2.5113,-2.5069,-2.518,-2.5191,-2.5191,-2.5191,-2.5191,-2.5203,-2.5248,-2.529,-2.5292,-2.5302,-2.537,-2.5397,-2.5351,-2.5388,-2.5412,-2.5449,-2.5449,-2.5473,-2.5556,-2.5576,-2.5617,-2.5655,-2.5645,-2.5676,-2.5707,-2.5707,-2.5707,0.0,0.0,0.0,0.0,0.0,-2.2593,0.0,0.0,0.0,-2.2887,-2.2089,0.0,0.0,0.0,0.0,0.0,0.0,0.0,0.0,-1.3043,0.0,-0.7534,-0.5458,-0.4151,-0.4215,0.0042,0.1964,-0.0045,-0.1029,-0.1658,-0.1928,-0.2109,-0.2286,-0.2551,-0.3558,-0.4343,-0.4826,-0.6137,-0.7356,-0.8521,-0.9253,-1.005,-1.0954,-1.1763,-1.2413,-1.2916,-1.3547,-1.4189,-1.4825,-1.524,-1.5652,-1.6024,-1.6421,-1.7194,-1.8194,-1.8914,-1.9969,-2.1113,-2.1968,-2.2685,-2.3253,-2.3486,-2.3685,-2.3795,-2.3795,-2.3837,-2.3896,-2.3917,-2.3996,-2.4094,-2.4113,-2.4247,-2.4355,-2.4355,-2.4495,-2.4613,-2.4626,-2.461,-2.4629,-2.4692,-2.4645,-2.4723,-2.5088,-2.5,-2.4974,-2.5168,-2.5191,-2.5191,-2.5191,-2.5191,-2.5191,-2.5191,-2.5248,-2.5258,-2.5191,-2.5302,-2.5341,-2.5271,-2.5332,-2.5379,-2.5388,-2.5387,-2.5429,-2.5473,-2.5537,-2.5571,-2.5556,-2.5561,-2.5629,-2.5681,-2.5683,-2.5705,0.0,0.0,0.0,0.0,-2.2088,0.0,0.0,0.0,-2.1255,-1.9938,0.0,0.0,0.0,0.0,0.0,0.0,0.0,0.0,-1.85,-1.7925,-1.6001,-1.1926,-1.1834,-1.0041,-0.478,-0.0716,0.0531,-0.2055,-0.2107,-0.202,-0.2064,-0.2328,-0.2595,-0.2868,-0.317,-0.3869,-0.4961,-0.5717,-0.6926,-0.8521,-0.9253,-1.0128,-1.1078,-1.1627,-1.2234,-1.2916,-1.3365,-1.4013,-1.4839,-1.5043,-1.5492,-1.6052,-1.6581,-1.7299,-1.8129,-1.8343,-1.9522,-2.1073,-2.1616,-2.2398,-2.3259,-2.3646,-2.3774,-2.3795,-2.3795,-2.3816,-2.3837,-2.3955,-2.3996,-2.4036,-2.4151,-2.4209,-2.4228,-2.4228,-2.4247,-2.4284,-2.4408,-2.4357,-2.4339,-2.4645,-2.4462,-2.441,-2.4861,-2.4915,-2.4974,-2.5168,-2.5191,-2.5191,-2.5191,-2.5191,-2.5191,-2.5191,-2.5222,-2.5203,-2.5191,-2.5214,-2.5214,-2.5203,-2.5214,-2.5258,-2.5302,-2.537,-2.5395,-2.5412,-2.5421,-2.5418,-2.5418,-2.5473,-2.5551,-2.5609,-2.5665,-2.5693,0.0,0.0,0.0,0.0,0.0,0.0,-2.0594,0.0,-2.075,0.0,0.0,0.0,0.0,0.0,0.0,0.0,-1.8995,0.0,0.0,0.0,-1.7701,0.0,0.0,0.0,-0.4545,-0.3608,-0.3516,-0.3778,-0.3034,-0.2593,-0.2729,-0.264,-0.2773,-0.3084,-0.317,-0.3609,-0.4482,-0.5293,-0.6349,-0.7653,-0.8755,-0.9776,-1.0659,-1.133,-1.2079,-1.2928,-1.3182,-1.3901,-1.4839,-1.5027,-1.5463,-1.6024,-1.6382,-1.6965,-1.7682,-1.8184,-1.9379,-2.082,-2.152,-2.2465,-2.3412,-2.371,-2.3795,-2.3795,-2.3795,-2.3795,-2.3816,-2.3917,-2.3937,-2.3958,-2.4074,-2.4094,-2.4094,-2.4094,-2.4113,-2.4152,-2.421,-2.4209,-2.4247,-2.4393,-2.4357,-2.4426,-2.4734,-2.4794,-2.4879,-2.5156,-2.5191,-2.5191,-2.5191,-2.5191,-2.5191,-2.5191,-2.5191,-2.5191,-2.5191,-2.5191,-2.5191,-2.5191,-2.5191,-2.5203,-2.5236,-2.5302,-2.5341,-2.5341,-2.5388,-2.5395,-2.5393,-2.5476,-2.5506,-2.5543,-2.5644,-2.571,-2.1007,0.0,0.0,0.0,0.0,0.0,0.0,0.0,0.0,0.0,0.0,0.0,0.0,0.0,0.0,-1.899,0.0,-1.9307,0.0,-1.8627,0.0,0.0,0.0,0.0,0.0,-0.6813,-0.6581,-0.5348,-0.4232,-0.3597,-0.3553,-0.3291,-0.3134,-0.3221,-0.3366,-0.3653,-0.4045,-0.5082,-0.6107,-0.712,-0.8464,-0.9531,-1.0322,-1.118,-1.2006,-1.2789,-1.3148,-1.3822,-1.4732,-1.5074,-1.5507,-1.6039,-1.6301,-1.6747,-1.7345,-1.7889,-1.8957,-2.0246,-2.1173,-2.2399,-2.3589,-2.375,-2.3795,-2.3795,-2.3795,-2.3795,-2.3816,-2.3876,-2.3896,-2.3917,-2.3996,-2.3996,-2.3996,-2.3996,-2.4054,-2.4094,-2.4152,-2.4152,-2.419,-2.4228,-2.4284,-2.4391,-2.4594,-2.4657,-2.4813,-2.5156,-2.5137,-2.5137,-2.5191,-2.5191,-2.5191,-2.5191,-2.5191,-2.5191,-2.5191,-2.5191,-2.5191,-2.5191,-2.5191,-2.5191,-2.5191,-2.5248,-2.528,-2.528,-2.5322,-2.5351,-2.5351,-2.5415,-2.5456,-2.548,-2.561,-2.5675,0.0,0.0,0.0,-1.9793,0.0,0.0,0.0,0.0,-2.0126,0.0,0.0,0.0,0.0,0.0,-1.9387,-1.9967,-1.9369,0.0,0.0,0.0,0.0,0.0,0.0,0.0,0.0,-0.977,-0.7399,0.0,-0.5954,-0.5189,-0.4489,-0.4245,-0.3872,-0.3304,-0.3816,-0.3997,-0.3906,-0.5173,-0.6289,-0.7287,-0.8513,-0.9531,-1.0322,-1.133,-1.2066,-1.2544,-1.3207,-1.3835,-1.447,-1.5196,-1.5681,-1.6024,-1.6436,-1.6876,-1.7296,-1.7313,-1.8088,-1.9293,-2.0371,-2.2012,-2.3721,-2.3792,-2.3795,-2.3795,-2.3795,-2.3795,-2.3816,-2.3876,-2.3896,-2.3917,-2.3996,-2.3996,-2.3996,-2.3996,-2.3996,-2.4056,-2.4247,-2.419,-2.4134,-2.4265,-2.4248,-2.4247,-2.4391,-2.4559,-2.4813,-2.5156,-2.5025,-2.4987,-2.518,-2.5191,-2.5191,-2.5191,-2.5191,-2.5191,-2.5191,-2.5191,-2.5191,-2.5191,-2.5191,-2.5191,-2.5191,-2.5191,-2.5191,-2.5191,-2.5222,-2.5222,-2.5222,-2.5261,-2.5341,-2.5415,-2.5537,-2.5591,0.0,0.0,-2.0507,-1.9693,0.0,0.0,0.0,0.0,0.0,0.0,0.0,0.0,0.0,0.0,-2.0112,-2.0262,-2.0003,-1.9612,0.0,0.0,0.0,0.0,0.0,0.0,0.0,0.0,0.0,0.0,-0.778,0.0,-0.6405,-0.5548,-0.4892,-0.4435,-0.4337,-0.439,-0.4613,-0.5351,-0.6118,-0.6923,-0.8358,-0.9372,-1.0089,-1.1132,-1.1993,-1.2733,-1.3126,-1.3809,-1.4617,-1.5045,-1.5623,-1.6219,-1.6448,-1.6773,-1.7126,-1.7248,-1.8054,-1.9344,-2.0947,-2.2074,-2.2873,-2.3523,-2.3771,-2.3795,-2.3795,-2.3795,-2.3795,-2.3816,-2.3837,-2.3837,-2.3858,-2.3876,-2.3876,-2.3876,-2.3896,-2.3958,-2.4018,-2.4036,-2.4056,-2.4078,-2.4192,-2.4265,-2.4318,-2.4424,-2.4623,-2.4961,-2.4942,-2.4974,-2.518,-2.5191,-2.5191,-2.5191,-2.5191,-2.5191,-2.5191,-2.5191,-2.5191,-2.5191,-2.5191,-2.5191,-2.5191,-2.5191,-2.5191,-2.5191,-2.5191,-2.5191,-2.5191,-2.5269,-2.5332,-2.5395,-2.549,-2.5562,-1.9017,-1.9564,0.0,-1.9277,-1.9717,0.0,-1.98,0.0,-1.9933,0.0,0.0,0.0,0.0,0.0,-2.0487,-2.044,-2.0387,-1.9986,0.0,-1.7718,0.0,0.0,0.0,0.0,0.0,0.0,0.0,-1.1346,-0.964,-0.8467,0.0,-0.7089,-0.5961,-0.4807,-0.4927,-0.4846,-0.4487,-0.5555,-0.6416,-0.7175,-0.8529,-0.954,-1.0263,-1.1271,-1.2126,-1.2883,-1.3285,-1.3894,-1.4693,-1.5136,-1.5652,-1.6219,-1.6501,-1.6799,-1.7142,-1.7408,-1.8274,-1.952,-2.1038,-2.1896,-2.2432,-2.3386,-2.3747,-2.3795,-2.3795,-2.3795,-2.3795,-2.3795,-2.3795,-2.3795,-2.3795,-2.3795,-2.3795,-2.3795,-2.3837,-2.3858,-2.3858,-2.3917,-2.3958,-2.3958,-2.4097,-2.4192,-2.4192,-2.4229,-2.4389,-2.4775,-2.4775,-2.4785,-2.5012,-2.5025,-2.5025,-2.5025,-2.5025,-2.5051,-2.5101,-2.5082,-2.5125,-2.521,-2.5191,-2.5191,-2.5191,-2.5191,-2.5191,-2.5191,-2.5191,-2.5191,-2.5191,-2.5248,-2.5292,-2.537,-2.544,-2.5498]}]]